Time,TemperatureF,DewpointF,PressureIn,WindDirection,WindDirectionDegrees,WindSpeedMPH,WindSpeedGustMPH,Humidity,HourlyPrecipIn,Conditions,Clouds,dailyrainin,SoftwareType,DateUTC
2013-08-22 00:00:00,66.8,55.1,29.77,SW,220,1.0,5.0,66,0.00,,SKC,0.00,VWS V13.01,2013-08-22 07:00:00,
2013-08-22 00:01:00,66.8,55.1,29.76,SW,220,1.0,1.0,66,0.00,,SKC,0.00,VWS V13.01,2013-08-22 07:01:00,
2013-08-22 00:02:00,66.8,55.1,29.76,SW,220,1.0,1.0,66,0.00,,SKC,0.00,VWS V13.01,2013-08-22 07:02:00,
2013-08-22 00:03:00,66.6,54.5,29.76,SW,220,3.0,4.0,65,0.00,,SKC,0.00,VWS V13.01,2013-08-22 07:03:00,
2013-08-22 00:04:00,66.5,54.4,29.76,SW,220,4.0,5.0,65,0.00,,SKC,0.00,VWS V13.01,2013-08-22 07:04:00,
2013-08-22 00:05:00,66.5,54.4,29.76,SW,220,4.0,5.0,65,0.00,,SKC,0.00,VWS V13.01,2013-08-22 07:05:00,
2013-08-22 00:06:00,66.4,54.3,29.76,SW,220,3.0,4.0,65,0.00,,SKC,0.00,VWS V13.01,2013-08-22 07:06:00,
2013-08-22 00:07:00,66.4,54.3,29.76,SW,220,3.0,5.0,65,0.00,,SKC,0.00,VWS V13.01,2013-08-22 07:07:00,
2013-08-22 00:08:00,66.3,54.2,29.76,SW,220,2.0,5.0,65,0.00,,SKC,0.00,VWS V13.01,2013-08-22 07:08:00,
2013-08-22 00:09:00,66.3,54.2,29.76,SW,220,4.0,5.0,65,0.00,,SKC,0.00,VWS V13.01,2013-08-22 07:09:00,
2013-08-22 00:10:00,66.2,54.1,29.76,SW,220,2.0,5.0,65,0.00,,SKC,0.00,VWS V13.01,2013-08-22 07:10:00,
2013-08-22 00:11:00,66.2,54.1,29.76,SW,220,0.0,3.0,65,0.00,,SKC,0.00,VWS V13.01,2013-08-22 07:11:00,
2013-08-22 00:12:00,66.1,54.0,29.76,SW,220,0.0,3.0,65,0.00,,SKC,0.00,VWS V13.01,2013-08-22 07:12:00,
2013-08-22 00:13:00,66.1,54.4,29.77,SW,220,1.0,3.0,66,0.00,,SKC,0.00,VWS V13.01,2013-08-22 07:13:00,
2013-08-22 00:14:00,66.1,54.4,29.77,SW,220,0.0,3.0,66,0.00,,SKC,0.00,VWS V13.01,2013-08-22 07:14:00,
2013-08-22 00:15:00,66.0,54.3,29.77,SW,220,0.0,3.0,66,0.00,,SKC,0.00,VWS V13.01,2013-08-22 07:15:00,
2013-08-22 00:16:00,66.0,54.3,29.76,SW,220,0.0,0.0,66,0.00,,SKC,0.00,VWS V13.01,2013-08-22 07:16:00,
2013-08-22 00:17:00,65.9,54.2,29.77,SW,220,2.0,3.0,66,0.00,,SKC,0.00,VWS V13.01,2013-08-22 07:17:00,
2013-08-22 00:18:00,65.8,54.1,29.77,SW,220,2.0,3.0,66,0.00,,SKC,0.00,VWS V13.01,2013-08-22 07:18:00,
2013-08-22 00:19:00,65.8,54.1,29.77,SW,220,2.0,4.0,66,0.00,,SKC,0.00,VWS V13.01,2013-08-22 07:19:00,
2013-08-22 00:20:00,65.8,54.1,29.77,SW,220,0.0,4.0,66,0.00,,SKC,0.00,VWS V13.01,2013-08-22 07:20:00,
2013-08-22 00:21:00,65.7,54.0,29.77,SW,220,0.0,0.0,66,0.00,,SKC,0.00,VWS V13.01,2013-08-22 07:21:00,
2013-08-22 00:22:00,65.7,54.0,29.77,SW,220,0.0,0.0,66,0.00,,SKC,0.00,VWS V13.01,2013-08-22 07:22:00,
2013-08-22 00:23:00,65.6,54.0,29.77,SW,220,0.0,0.0,66,0.00,,SKC,0.00,VWS V13.01,2013-08-22 07:23:00,
2013-08-22 00:24:00,65.6,54.0,29.77,SW,220,1.0,1.0,66,0.00,,SKC,0.00,VWS V13.01,2013-08-22 07:24:00,
2013-08-22 00:25:00,65.5,53.8,29.77,SW,220,2.0,2.0,66,0.00,,SKC,0.00,VWS V13.01,2013-08-22 07:25:00,
2013-08-22 00:26:00,65.5,53.8,29.77,SW,220,3.0,3.0,66,0.00,,SKC,0.00,VWS V13.01,2013-08-22 07:26:00,
2013-08-22 00:27:00,65.4,53.8,29.77,SW,220,2.0,4.0,66,0.00,,SKC,0.00,VWS V13.01,2013-08-22 07:27:00,
2013-08-22 00:28:00,65.4,53.8,29.77,SW,220,1.0,4.0,66,0.00,,SKC,0.00,VWS V13.01,2013-08-22 07:28:00,
2013-08-22 00:29:00,65.3,53.7,29.77,SW,220,3.0,5.0,66,0.00,,SKC,0.00,VWS V13.01,2013-08-22 07:29:00,
2013-08-22 00:30:00,65.3,53.7,29.77,SW,220,2.0,5.0,66,0.00,,SKC,0.00,VWS V13.01,2013-08-22 07:30:00,
2013-08-22 00:31:00,65.2,53.6,29.76,SW,220,3.0,3.0,66,0.00,,SKC,0.00,VWS V13.01,2013-08-22 07:31:00,
2013-08-22 00:32:00,65.2,53.6,29.76,SW,220,2.0,4.0,66,0.00,,SKC,0.00,VWS V13.01,2013-08-22 07:32:00,
2013-08-22 00:33:00,65.2,53.6,29.76,SW,220,6.0,6.0,66,0.00,,SKC,0.00,VWS V13.01,2013-08-22 07:33:00,
2013-08-22 00:34:00,65.2,54.0,29.76,SW,220,2.0,6.0,67,0.00,,SKC,0.00,VWS V13.01,2013-08-22 07:34:00,
2013-08-22 00:35:00,65.1,53.9,29.76,SW,220,4.0,6.0,67,0.00,,SKC,0.00,VWS V13.01,2013-08-22 07:35:00,
2013-08-22 00:36:00,65.1,53.9,29.76,SW,220,4.0,4.0,67,0.00,,SKC,0.00,VWS V13.01,2013-08-22 07:36:00,
2013-08-22 00:37:00,65.1,53.9,29.76,SW,220,4.0,4.0,67,0.00,,SKC,0.00,VWS V13.01,2013-08-22 07:37:00,
2013-08-22 00:38:00,65.1,53.9,29.76,SW,220,5.0,6.0,67,0.00,,SKC,0.00,VWS V13.01,2013-08-22 07:38:00,
2013-08-22 00:39:00,65.1,53.9,29.76,SW,220,5.0,6.0,67,0.00,,SKC,0.00,VWS V13.01,2013-08-22 07:39:00,
2013-08-22 00:40:00,65.1,53.9,29.76,SW,220,3.0,6.0,67,0.00,,SKC,0.00,VWS V13.01,2013-08-22 07:40:00,
2013-08-22 00:41:00,65.1,53.9,29.77,SW,222,4.0,7.0,67,0.00,,SKC,0.00,VWS V13.01,2013-08-22 07:41:00,
2013-08-22 00:42:00,65.1,53.9,29.76,SW,222,3.0,7.0,67,0.00,,SKC,0.00,VWS V13.01,2013-08-22 07:42:00,
2013-08-22 00:43:00,65.0,53.8,29.76,SW,222,3.0,7.0,67,0.00,,SKC,0.00,VWS V13.01,2013-08-22 07:43:00,
2013-08-22 00:44:00,65.0,53.8,29.76,SW,222,3.0,7.0,67,0.00,,SKC,0.00,VWS V13.01,2013-08-22 07:44:00,
2013-08-22 00:45:00,65.0,53.8,29.76,SW,221,5.0,7.0,67,0.00,,SKC,0.00,VWS V13.01,2013-08-22 07:45:00,
2013-08-22 00:46:00,65.0,53.8,29.76,SW,221,3.0,5.0,67,0.00,,SKC,0.00,VWS V13.01,2013-08-22 07:46:00,
2013-08-22 00:47:00,65.0,53.8,29.76,SW,221,2.0,5.0,67,0.00,,SKC,0.00,VWS V13.01,2013-08-22 07:47:00,
2013-08-22 00:48:00,65.0,53.8,29.76,SW,221,4.0,5.0,67,0.00,,SKC,0.00,VWS V13.01,2013-08-22 07:48:00,
2013-08-22 00:49:00,65.0,53.8,29.76,SW,221,4.0,5.0,67,0.00,,SKC,0.00,VWS V13.01,2013-08-22 07:49:00,
2013-08-22 00:50:00,65.0,53.8,29.76,SW,221,3.0,5.0,67,0.00,,SKC,0.00,VWS V13.01,2013-08-22 07:50:00,
2013-08-22 00:51:00,64.9,53.7,29.76,SW,221,4.0,4.0,67,0.00,,SKC,0.00,VWS V13.01,2013-08-22 07:51:00,
2013-08-22 00:52:00,64.9,53.7,29.76,SW,221,3.0,4.0,67,0.00,,SKC,0.00,VWS V13.01,2013-08-22 07:52:00,
2013-08-22 00:53:00,64.9,53.7,29.76,SW,221,3.0,4.0,67,0.00,,SKC,0.00,VWS V13.01,2013-08-22 07:53:00,
2013-08-22 00:54:00,64.9,53.7,29.76,SW,221,2.0,4.0,67,0.00,,SKC,0.00,VWS V13.01,2013-08-22 07:54:00,
2013-08-22 00:55:00,64.8,53.6,29.76,SW,221,2.0,4.0,67,0.00,,SKC,0.00,VWS V13.01,2013-08-22 07:55:00,
2013-08-22 00:56:00,64.8,53.6,29.76,SW,221,3.0,4.0,67,0.00,,SKC,0.00,VWS V13.01,2013-08-22 07:56:00,
2013-08-22 00:57:00,64.8,53.6,29.76,SW,221,3.0,4.0,67,0.00,,SKC,0.00,VWS V13.01,2013-08-22 07:57:00,
2013-08-22 00:58:00,64.8,53.6,29.76,SW,221,2.0,6.0,67,0.00,,SKC,0.00,VWS V13.01,2013-08-22 07:58:00,
2013-08-22 00:59:00,64.8,53.6,29.76,SW,221,3.0,6.0,67,0.00,,SKC,0.00,VWS V13.01,2013-08-22 07:59:00,
2013-08-22 01:00:00,64.7,53.5,29.76,SW,221,3.0,6.0,67,0.00,,SKC,0.00,VWS V13.01,2013-08-22 08:00:00,
2013-08-22 01:01:00,64.7,53.5,29.75,SW,221,4.0,4.0,67,0.00,,SKC,0.00,VWS V13.01,2013-08-22 08:01:00,
2013-08-22 01:02:00,64.7,53.9,29.75,SW,221,3.0,4.0,68,0.00,,SKC,0.00,VWS V13.01,2013-08-22 08:02:00,
2013-08-22 01:03:00,64.6,53.8,29.75,SW,221,2.0,5.0,68,0.00,,SKC,0.00,VWS V13.01,2013-08-22 08:03:00,
2013-08-22 01:04:00,64.6,53.8,29.75,SW,221,0.0,5.0,68,0.00,,SKC,0.00,VWS V13.01,2013-08-22 08:04:00,
2013-08-22 01:05:00,64.5,53.7,29.75,SW,221,0.0,5.0,68,0.00,,SKC,0.00,VWS V13.01,2013-08-22 08:05:00,
2013-08-22 01:06:00,64.5,53.7,29.75,SW,221,4.0,4.0,68,0.00,,SKC,0.00,VWS V13.01,2013-08-22 08:06:00,
2013-08-22 01:07:00,64.5,53.7,29.75,SW,221,3.0,5.0,68,0.00,,SKC,0.00,VWS V13.01,2013-08-22 08:07:00,
2013-08-22 01:08:00,64.4,53.6,29.75,SW,221,1.0,5.0,68,0.00,,SKC,0.00,VWS V13.01,2013-08-22 08:08:00,
2013-08-22 01:09:00,64.4,53.6,29.75,SW,221,2.0,5.0,68,0.00,,SKC,0.00,VWS V13.01,2013-08-22 08:09:00,
2013-08-22 01:10:00,64.4,54.0,29.75,SW,221,4.0,5.0,69,0.00,,SKC,0.00,VWS V13.01,2013-08-22 08:10:00,
2013-08-22 01:11:00,64.3,53.9,29.75,SW,221,4.0,4.0,69,0.00,,SKC,0.00,VWS V13.01,2013-08-22 08:11:00,
2013-08-22 01:12:00,64.3,53.9,29.75,SW,221,0.0,4.0,69,0.00,,SKC,0.00,VWS V13.01,2013-08-22 08:12:00,
2013-08-22 01:13:00,64.3,53.9,29.75,SW,221,3.0,4.0,69,0.00,,SKC,0.00,VWS V13.01,2013-08-22 08:13:00,
2013-08-22 01:14:00,64.3,53.9,29.75,SW,221,2.0,4.0,69,0.00,,SKC,0.00,VWS V13.01,2013-08-22 08:14:00,
2013-08-22 01:15:00,64.2,53.8,29.75,SW,221,3.0,4.0,69,0.00,,SKC,0.00,VWS V13.01,2013-08-22 08:15:00,
2013-08-22 01:16:00,64.2,53.8,29.75,SW,221,3.0,4.0,69,0.00,,SKC,0.00,VWS V13.01,2013-08-22 08:16:00,
2013-08-22 01:17:00,64.1,53.7,29.75,SW,221,1.0,4.0,69,0.00,,SKC,0.00,VWS V13.01,2013-08-22 08:17:00,
2013-08-22 01:18:00,64.1,53.7,29.75,SW,221,4.0,6.0,69,0.00,,SKC,0.00,VWS V13.01,2013-08-22 08:18:00,
2013-08-22 01:19:00,64.1,53.7,29.75,SW,221,2.0,6.0,69,0.00,,SKC,0.00,VWS V13.01,2013-08-22 08:19:00,
2013-08-22 01:20:00,64.1,53.7,29.75,SW,221,2.0,6.0,69,0.00,,SKC,0.00,VWS V13.01,2013-08-22 08:20:00,
2013-08-22 01:21:00,64.1,53.7,29.75,SW,221,2.0,3.0,69,0.00,,SKC,0.00,VWS V13.01,2013-08-22 08:21:00,
2013-08-22 01:22:00,64.1,53.7,29.75,SW,221,1.0,3.0,69,0.00,,SKC,0.00,VWS V13.01,2013-08-22 08:22:00,
2013-08-22 01:23:00,64.1,53.7,29.75,SW,221,1.0,3.0,69,0.00,,SKC,0.00,VWS V13.01,2013-08-22 08:23:00,
2013-08-22 01:24:00,64.0,53.6,29.75,SW,221,2.0,3.0,69,0.00,,SKC,0.00,VWS V13.01,2013-08-22 08:24:00,
2013-08-22 01:25:00,64.0,53.6,29.75,SW,221,1.0,3.0,69,0.00,,SKC,0.00,VWS V13.01,2013-08-22 08:25:00,
2013-08-22 01:26:00,64.0,53.6,29.75,SW,221,2.0,3.0,69,0.00,,SKC,0.00,VWS V13.01,2013-08-22 08:26:00,
2013-08-22 01:27:00,64.0,54.0,29.75,SW,221,0.0,3.0,70,0.00,,SKC,0.00,VWS V13.01,2013-08-22 08:27:00,
2013-08-22 01:28:00,64.0,54.0,29.75,SW,221,2.0,3.0,70,0.00,,SKC,0.00,VWS V13.01,2013-08-22 08:28:00,
2013-08-22 01:29:00,64.0,54.0,29.75,SW,221,3.0,3.0,70,0.00,,SKC,0.00,VWS V13.01,2013-08-22 08:29:00,
2013-08-22 01:30:00,64.0,54.0,29.75,SW,221,2.0,4.0,70,0.00,,SKC,0.00,VWS V13.01,2013-08-22 08:30:00,
2013-08-22 01:31:00,64.0,54.0,29.75,SW,221,0.0,3.0,70,0.00,,SKC,0.00,VWS V13.01,2013-08-22 08:31:00,
2013-08-22 01:32:00,64.0,54.0,29.75,SW,220,3.0,6.0,70,0.00,,SKC,0.00,VWS V13.01,2013-08-22 08:32:00,
2013-08-22 01:33:00,64.1,54.1,29.75,SW,220,3.0,6.0,70,0.00,,SKC,0.00,VWS V13.01,2013-08-22 08:33:00,
2013-08-22 01:34:00,64.1,54.1,29.75,SW,220,3.0,6.0,70,0.00,,SKC,0.00,VWS V13.01,2013-08-22 08:34:00,
2013-08-22 01:35:00,64.2,54.2,29.75,SW,220,2.0,6.0,70,0.00,,SKC,0.00,VWS V13.01,2013-08-22 08:35:00,
2013-08-22 01:36:00,64.2,54.2,29.75,SW,215,3.0,4.0,70,0.00,,SKC,0.00,VWS V13.01,2013-08-22 08:36:00,
2013-08-22 01:37:00,64.2,54.2,29.75,SSW,213,2.0,4.0,70,0.00,,SKC,0.00,VWS V13.01,2013-08-22 08:37:00,
2013-08-22 01:38:00,64.3,54.3,29.75,SSW,213,2.0,4.0,70,0.00,,SKC,0.00,VWS V13.01,2013-08-22 08:38:00,
2013-08-22 01:39:00,64.3,54.3,29.75,SSW,213,0.0,4.0,70,0.00,,SKC,0.00,VWS V13.01,2013-08-22 08:39:00,
2013-08-22 01:40:00,64.3,54.3,29.75,SSW,213,1.0,1.0,70,0.00,,SKC,0.00,VWS V13.01,2013-08-22 08:40:00,
2013-08-22 01:41:00,64.3,54.3,29.75,SSW,213,3.0,4.0,70,0.00,,SKC,0.00,VWS V13.01,2013-08-22 08:41:00,
2013-08-22 01:42:00,64.3,53.9,29.75,SSW,213,2.0,5.0,69,0.00,,SKC,0.00,VWS V13.01,2013-08-22 08:42:00,
2013-08-22 01:43:00,64.4,54.0,29.75,SSW,213,2.0,5.0,69,0.00,,SKC,0.00,VWS V13.01,2013-08-22 08:43:00,
2013-08-22 01:44:00,64.4,54.0,29.75,SSW,213,4.0,5.0,69,0.00,,SKC,0.00,VWS V13.01,2013-08-22 08:44:00,
2013-08-22 01:45:00,64.4,54.0,29.75,SSW,213,5.0,5.0,69,0.00,,SKC,0.00,VWS V13.01,2013-08-22 08:45:00,
2013-08-22 01:46:00,64.4,54.0,29.75,SSW,213,3.0,5.0,69,0.00,,SKC,0.00,VWS V13.01,2013-08-22 08:46:00,
2013-08-22 01:47:00,64.4,54.0,29.74,SSW,213,3.0,5.0,69,0.00,,SKC,0.00,VWS V13.01,2013-08-22 08:47:00,
2013-08-22 01:48:00,64.4,54.0,29.75,SSW,213,2.0,5.0,69,0.00,,SKC,0.00,VWS V13.01,2013-08-22 08:48:00,
2013-08-22 01:49:00,64.4,54.0,29.75,SSW,213,2.0,5.0,69,0.00,,SKC,0.00,VWS V13.01,2013-08-22 08:49:00,
2013-08-22 01:50:00,64.3,53.9,29.75,SSW,213,2.0,5.0,69,0.00,,SKC,0.00,VWS V13.01,2013-08-22 08:50:00,
2013-08-22 01:51:00,64.3,53.9,29.75,SSW,213,2.0,4.0,69,0.00,,SKC,0.00,VWS V13.01,2013-08-22 08:51:00,
2013-08-22 01:52:00,64.3,53.9,29.75,SSW,213,2.0,4.0,69,0.00,,SKC,0.00,VWS V13.01,2013-08-22 08:52:00,
2013-08-22 01:53:00,64.2,53.8,29.75,SSW,213,0.0,4.0,69,0.00,,SKC,0.00,VWS V13.01,2013-08-22 08:53:00,
2013-08-22 01:54:00,64.2,53.8,29.75,SSW,213,0.0,4.0,69,0.00,,SKC,0.00,VWS V13.01,2013-08-22 08:54:00,
2013-08-22 01:55:00,64.1,53.7,29.75,SSW,213,1.0,4.0,69,0.00,,SKC,0.00,VWS V13.01,2013-08-22 08:55:00,
2013-08-22 01:56:00,64.1,53.7,29.75,SSW,213,3.0,3.0,69,0.00,,SKC,0.00,VWS V13.01,2013-08-22 08:56:00,
2013-08-22 01:57:00,64.0,54.0,29.75,SSW,213,3.0,4.0,70,0.00,,SKC,0.00,VWS V13.01,2013-08-22 08:57:00,
2013-08-22 01:58:00,64.0,54.0,29.75,SSW,213,1.0,4.0,70,0.00,,SKC,0.00,VWS V13.01,2013-08-22 08:58:00,
2013-08-22 01:59:00,64.0,54.0,29.75,SSW,213,2.0,4.0,70,0.00,,SKC,0.00,VWS V13.01,2013-08-22 08:59:00,
2013-08-22 02:00:00,64.0,54.0,29.75,SSW,213,2.0,4.0,70,0.00,,SKC,0.00,VWS V13.01,2013-08-22 09:00:00,
2013-08-22 02:01:00,63.9,53.9,29.74,SSW,213,3.0,4.0,70,0.00,,SKC,0.00,VWS V13.01,2013-08-22 09:01:00,
2013-08-22 02:02:00,63.9,53.9,29.74,SSW,213,2.0,4.0,70,0.00,,SKC,0.00,VWS V13.01,2013-08-22 09:02:00,
2013-08-22 02:03:00,63.9,53.9,29.74,SSW,213,2.0,4.0,70,0.00,,SKC,0.00,VWS V13.01,2013-08-22 09:03:00,
2013-08-22 02:04:00,63.8,53.8,29.74,SSW,213,3.0,4.0,70,0.00,,SKC,0.00,VWS V13.01,2013-08-22 09:04:00,
2013-08-22 02:05:00,63.8,53.8,29.74,SSW,213,4.0,4.0,70,0.00,,SKC,0.00,VWS V13.01,2013-08-22 09:05:00,
2013-08-22 02:06:00,63.8,53.8,29.74,SSW,213,3.0,4.0,70,0.00,,SKC,0.00,VWS V13.01,2013-08-22 09:06:00,
2013-08-22 02:07:00,63.8,53.8,29.74,SSW,213,3.0,4.0,70,0.00,,SKC,0.00,VWS V13.01,2013-08-22 09:07:00,
2013-08-22 02:08:00,63.8,54.2,29.74,SSW,213,3.0,4.0,71,0.00,,SKC,0.00,VWS V13.01,2013-08-22 09:08:00,
2013-08-22 02:09:00,63.8,54.2,29.74,SSW,213,1.0,4.0,71,0.00,,SKC,0.00,VWS V13.01,2013-08-22 09:09:00,
2013-08-22 02:10:00,63.8,54.2,29.74,SSW,213,3.0,4.0,71,0.00,,SKC,0.00,VWS V13.01,2013-08-22 09:10:00,
2013-08-22 02:11:00,63.8,54.2,29.74,SSW,213,1.0,3.0,71,0.00,,SKC,0.00,VWS V13.01,2013-08-22 09:11:00,
2013-08-22 02:12:00,63.7,54.1,29.74,SSW,213,2.0,3.0,71,0.00,,SKC,0.00,VWS V13.01,2013-08-22 09:12:00,
2013-08-22 02:13:00,63.7,54.1,29.74,SSW,213,0.0,3.0,71,0.00,,SKC,0.00,VWS V13.01,2013-08-22 09:13:00,
2013-08-22 02:14:00,63.7,54.1,29.74,SSW,213,0.0,3.0,71,0.00,,SKC,0.00,VWS V13.01,2013-08-22 09:14:00,
2013-08-22 02:15:00,63.7,54.1,29.74,SSW,213,0.0,3.0,71,0.00,,SKC,0.00,VWS V13.01,2013-08-22 09:15:00,
2013-08-22 02:16:00,63.7,54.1,29.74,SSW,213,0.0,0.0,71,0.00,,SKC,0.00,VWS V13.01,2013-08-22 09:16:00,
2013-08-22 02:17:00,63.7,54.1,29.74,SSW,213,0.0,0.0,71,0.00,,SKC,0.00,VWS V13.01,2013-08-22 09:17:00,
2013-08-22 02:18:00,63.7,54.1,29.74,SSW,213,0.0,0.0,71,0.00,,SKC,0.00,VWS V13.01,2013-08-22 09:18:00,
2013-08-22 02:19:00,63.7,54.1,29.74,SSW,213,0.0,0.0,71,0.00,,SKC,0.00,VWS V13.01,2013-08-22 09:19:00,
2013-08-22 02:20:00,63.6,54.0,29.74,SSW,213,0.0,0.0,71,0.00,,SKC,0.00,VWS V13.01,2013-08-22 09:20:00,
2013-08-22 02:21:00,63.6,54.0,29.74,SSW,213,0.0,0.0,71,0.00,,SKC,0.00,VWS V13.01,2013-08-22 09:21:00,
2013-08-22 02:22:00,63.6,54.0,29.74,SSW,213,0.0,0.0,71,0.00,,SKC,0.00,VWS V13.01,2013-08-22 09:22:00,
2013-08-22 02:23:00,63.6,54.0,29.75,SSW,213,2.0,3.0,71,0.00,,SKC,0.00,VWS V13.01,2013-08-22 09:23:00,
2013-08-22 02:24:00,63.5,53.9,29.75,SSW,213,2.0,6.0,71,0.00,,SKC,0.00,VWS V13.01,2013-08-22 09:24:00,
2013-08-22 02:25:00,63.5,53.9,29.74,SSW,213,5.0,6.0,71,0.00,,SKC,0.00,VWS V13.01,2013-08-22 09:25:00,
2013-08-22 02:26:00,63.4,53.8,29.75,SSW,213,2.0,5.0,71,0.00,,SKC,0.00,VWS V13.01,2013-08-22 09:26:00,
2013-08-22 02:27:00,63.4,53.8,29.75,SW,214,3.0,7.0,71,0.00,,SKC,0.00,VWS V13.01,2013-08-22 09:27:00,
2013-08-22 02:28:00,63.4,53.8,29.75,SW,214,2.0,7.0,71,0.00,,SKC,0.00,VWS V13.01,2013-08-22 09:28:00,
2013-08-22 02:29:00,63.4,53.8,29.75,SW,214,3.0,7.0,71,0.00,,SKC,0.00,VWS V13.01,2013-08-22 09:29:00,
2013-08-22 02:30:00,63.4,53.8,29.75,SW,214,4.0,7.0,71,0.00,,SKC,0.00,VWS V13.01,2013-08-22 09:30:00,
2013-08-22 02:31:00,63.4,53.5,29.75,SW,214,2.0,4.0,70,0.00,,SKC,0.00,VWS V13.01,2013-08-22 09:31:00,
2013-08-22 02:32:00,63.4,53.5,29.75,SW,214,4.0,5.0,70,0.00,,SKC,0.00,VWS V13.01,2013-08-22 09:32:00,
2013-08-22 02:33:00,63.4,53.5,29.75,SW,214,2.0,5.0,70,0.00,,SKC,0.00,VWS V13.01,2013-08-22 09:33:00,
2013-08-22 02:34:00,63.4,53.5,29.75,SW,214,3.0,5.0,70,0.00,,SKC,0.00,VWS V13.01,2013-08-22 09:34:00,
2013-08-22 02:35:00,63.4,53.5,29.75,SW,214,2.0,5.0,70,0.00,,SKC,0.00,VWS V13.01,2013-08-22 09:35:00,
2013-08-22 02:36:00,63.4,53.5,29.75,SW,214,2.0,3.0,70,0.00,,SKC,0.00,VWS V13.01,2013-08-22 09:36:00,
2013-08-22 02:37:00,63.4,53.5,29.75,SW,214,4.0,4.0,70,0.00,,SKC,0.00,VWS V13.01,2013-08-22 09:37:00,
2013-08-22 02:38:00,63.5,53.5,29.75,SW,214,2.0,4.0,70,0.00,,SKC,0.00,VWS V13.01,2013-08-22 09:38:00,
2013-08-22 02:39:00,63.4,53.5,29.75,SW,214,1.0,4.0,70,0.00,,SKC,0.00,VWS V13.01,2013-08-22 09:39:00,
2013-08-22 02:40:00,63.4,53.1,29.75,SW,214,3.0,4.0,69,0.00,,SKC,0.00,VWS V13.01,2013-08-22 09:40:00,
2013-08-22 02:41:00,63.4,53.1,29.75,SW,214,4.0,4.0,69,0.00,,SKC,0.00,VWS V13.01,2013-08-22 09:41:00,
2013-08-22 02:42:00,63.4,53.1,29.75,SW,214,3.0,5.0,69,0.00,,SKC,0.00,VWS V13.01,2013-08-22 09:42:00,
2013-08-22 02:43:00,63.4,53.1,29.75,SW,214,1.0,5.0,69,0.00,,SKC,0.00,VWS V13.01,2013-08-22 09:43:00,
2013-08-22 02:44:00,63.4,53.1,29.75,SW,214,2.0,5.0,69,0.00,,SKC,0.00,VWS V13.01,2013-08-22 09:44:00,
2013-08-22 02:45:00,63.4,53.1,29.75,SW,214,2.0,5.0,69,0.00,,SKC,0.00,VWS V13.01,2013-08-22 09:45:00,
2013-08-22 02:46:00,63.4,52.7,29.75,SW,214,3.0,4.0,68,0.00,,SKC,0.00,VWS V13.01,2013-08-22 09:46:00,
2013-08-22 02:47:00,63.4,52.7,29.75,SW,214,1.0,4.0,68,0.00,,SKC,0.00,VWS V13.01,2013-08-22 09:47:00,
2013-08-22 02:48:00,63.4,52.7,29.75,SW,214,0.0,4.0,68,0.00,,SKC,0.00,VWS V13.01,2013-08-22 09:48:00,
2013-08-22 02:49:00,63.4,52.7,29.75,SW,214,2.0,5.0,68,0.00,,SKC,0.00,VWS V13.01,2013-08-22 09:49:00,
2013-08-22 02:50:00,63.4,52.7,29.75,SW,214,3.0,5.0,68,0.00,,SKC,0.00,VWS V13.01,2013-08-22 09:50:00,
2013-08-22 02:51:00,63.4,52.7,29.75,SW,214,0.0,2.0,68,0.00,,SKC,0.00,VWS V13.01,2013-08-22 09:51:00,
2013-08-22 02:52:00,63.4,52.7,29.75,SW,214,3.0,3.0,68,0.00,,SKC,0.00,VWS V13.01,2013-08-22 09:52:00,
2013-08-22 02:53:00,63.4,52.7,29.75,SW,214,2.0,3.0,68,0.00,,SKC,0.00,VWS V13.01,2013-08-22 09:53:00,
2013-08-22 02:54:00,63.3,52.6,29.75,SW,214,2.0,3.0,68,0.00,,SKC,0.00,VWS V13.01,2013-08-22 09:54:00,
2013-08-22 02:55:00,63.3,52.6,29.75,SW,214,3.0,3.0,68,0.00,,SKC,0.00,VWS V13.01,2013-08-22 09:55:00,
2013-08-22 02:56:00,63.3,52.6,29.75,SW,214,2.0,3.0,68,0.00,,SKC,0.00,VWS V13.01,2013-08-22 09:56:00,
2013-08-22 02:57:00,63.3,52.6,29.75,SW,214,1.0,3.0,68,0.00,,SKC,0.00,VWS V13.01,2013-08-22 09:57:00,
2013-08-22 02:58:00,63.3,52.6,29.75,SW,214,0.0,3.0,68,0.00,,SKC,0.00,VWS V13.01,2013-08-22 09:58:00,
2013-08-22 02:59:00,63.2,52.5,29.75,SW,214,0.0,3.0,68,0.00,,SKC,0.00,VWS V13.01,2013-08-22 09:59:00,
2013-08-22 03:00:00,63.2,52.5,29.75,SW,214,0.0,3.0,68,0.00,,SKC,0.00,VWS V13.01,2013-08-22 10:00:00,
2013-08-22 03:01:00,63.2,52.5,29.75,SW,214,0.0,0.0,68,0.00,,SKC,0.00,VWS V13.01,2013-08-22 10:01:00,
2013-08-22 03:02:00,63.2,52.5,29.75,SW,214,0.0,0.0,68,0.00,,SKC,0.00,VWS V13.01,2013-08-22 10:02:00,
2013-08-22 03:03:00,63.1,52.4,29.75,SW,214,0.0,0.0,68,0.00,,SKC,0.00,VWS V13.01,2013-08-22 10:03:00,
2013-08-22 03:04:00,63.1,52.4,29.75,SW,214,0.0,0.0,68,0.00,,SKC,0.00,VWS V13.01,2013-08-22 10:04:00,
2013-08-22 03:05:00,63.1,52.4,29.75,SW,214,0.0,0.0,68,0.00,,SKC,0.00,VWS V13.01,2013-08-22 10:05:00,
2013-08-22 03:06:00,63.0,52.3,29.75,SW,214,0.0,0.0,68,0.00,,SKC,0.00,VWS V13.01,2013-08-22 10:06:00,
2013-08-22 03:07:00,63.0,52.3,29.75,SW,214,0.0,0.0,68,0.00,,SKC,0.00,VWS V13.01,2013-08-22 10:07:00,
2013-08-22 03:08:00,62.9,52.2,29.75,SW,214,0.0,0.0,68,0.00,,SKC,0.00,VWS V13.01,2013-08-22 10:08:00,
2013-08-22 03:09:00,62.9,52.6,29.75,SW,214,0.0,0.0,69,0.00,,SKC,0.00,VWS V13.01,2013-08-22 10:09:00,
2013-08-22 03:10:00,62.8,52.5,29.75,SW,214,0.0,0.0,69,0.00,,SKC,0.00,VWS V13.01,2013-08-22 10:10:00,
2013-08-22 03:11:00,62.8,52.5,29.75,SW,214,0.0,0.0,69,0.00,,SKC,0.00,VWS V13.01,2013-08-22 10:11:00,
2013-08-22 03:12:00,62.7,52.4,29.75,SW,214,0.0,0.0,69,0.00,,SKC,0.00,VWS V13.01,2013-08-22 10:12:00,
2013-08-22 03:13:00,62.7,52.4,29.75,SW,214,0.0,0.0,69,0.00,,SKC,0.00,VWS V13.01,2013-08-22 10:13:00,
2013-08-22 03:14:00,62.6,52.3,29.75,SW,214,1.0,3.0,69,0.00,,SKC,0.00,VWS V13.01,2013-08-22 10:14:00,
2013-08-22 03:15:00,62.6,52.3,29.75,SW,214,1.0,3.0,69,0.00,,SKC,0.00,VWS V13.01,2013-08-22 10:15:00,
2013-08-22 03:16:00,62.5,52.2,29.75,SW,214,2.0,3.0,69,0.00,,SKC,0.00,VWS V13.01,2013-08-22 10:16:00,
2013-08-22 03:17:00,62.5,52.2,29.75,SW,214,1.0,3.0,69,0.00,,SKC,0.00,VWS V13.01,2013-08-22 10:17:00,
2013-08-22 03:18:00,62.5,52.2,29.75,SW,214,2.0,3.0,69,0.00,,SKC,0.00,VWS V13.01,2013-08-22 10:18:00,
2013-08-22 03:19:00,62.5,52.2,29.75,SW,214,3.0,3.0,69,0.00,,SKC,0.00,VWS V13.01,2013-08-22 10:19:00,
2013-08-22 03:20:00,62.4,52.1,29.75,SW,214,3.0,3.0,69,0.00,,SKC,0.00,VWS V13.01,2013-08-22 10:20:00,
2013-08-22 03:21:00,62.4,52.1,29.75,SW,214,2.0,3.0,69,0.00,,SKC,0.00,VWS V13.01,2013-08-22 10:21:00,
2013-08-22 03:22:00,62.3,52.0,29.75,SW,214,2.0,3.0,69,0.00,,SKC,0.00,VWS V13.01,2013-08-22 10:22:00,
2013-08-22 03:23:00,62.3,52.0,29.75,SW,214,2.0,4.0,69,0.00,,SKC,0.00,VWS V13.01,2013-08-22 10:23:00,
2013-08-22 03:24:00,62.3,52.0,29.75,SW,214,0.0,4.0,69,0.00,,SKC,0.00,VWS V13.01,2013-08-22 10:24:00,
2013-08-22 03:25:00,62.3,52.0,29.75,SW,214,2.0,4.0,69,0.00,,SKC,0.00,VWS V13.01,2013-08-22 10:25:00,
2013-08-22 05:03:00,61.4,51.2,29.75,SW,215,3.0,5.0,69,0.00,,SKC,0.00,VWS V13.01,2013-08-22 12:03:00,
2013-08-22 05:04:00,61.4,51.2,29.75,SW,215,3.0,5.0,69,0.00,,SKC,0.00,VWS V13.01,2013-08-22 12:04:00,
2013-08-22 05:05:00,61.4,51.2,29.75,SW,215,1.0,5.0,69,0.00,,SKC,0.00,VWS V13.01,2013-08-22 12:05:00,
2013-08-22 05:06:00,61.4,51.2,29.75,SW,215,2.0,2.0,69,0.00,,SKC,0.00,VWS V13.01,2013-08-22 12:06:00,
2013-08-22 05:07:00,61.4,51.2,29.75,SW,215,2.0,3.0,69,0.00,,SKC,0.00,VWS V13.01,2013-08-22 12:07:00,
2013-08-22 05:08:00,61.3,51.1,29.75,SW,215,1.0,3.0,69,0.00,,SKC,0.00,VWS V13.01,2013-08-22 12:08:00,
2013-08-22 05:09:00,61.3,51.1,29.75,SW,215,1.0,3.0,69,0.00,,SKC,0.00,VWS V13.01,2013-08-22 12:09:00,
2013-08-22 05:10:00,61.2,51.3,29.75,SW,215,2.0,3.0,70,0.00,,SKC,0.00,VWS V13.01,2013-08-22 12:10:00,
2013-08-22 05:11:00,61.2,51.3,29.76,SW,215,2.0,3.0,70,0.00,,SKC,0.00,VWS V13.01,2013-08-22 12:11:00,
2013-08-22 05:12:00,61.1,51.2,29.76,SW,215,2.0,3.0,70,0.00,,SKC,0.00,VWS V13.01,2013-08-22 12:12:00,
2013-08-22 05:13:00,61.1,51.2,29.76,SW,215,3.0,4.0,70,0.00,,SKC,0.00,VWS V13.01,2013-08-22 12:13:00,
2013-08-22 05:14:00,61.0,51.2,29.76,SW,215,1.0,4.0,70,0.00,,SKC,0.00,VWS V13.01,2013-08-22 12:14:00,
2013-08-22 05:15:00,61.0,51.2,29.76,SW,215,0.0,4.0,70,0.00,,SKC,0.00,VWS V13.01,2013-08-22 12:15:00,
2013-08-22 05:16:00,61.0,51.5,29.76,SW,215,0.0,0.0,71,0.00,,SKC,0.00,VWS V13.01,2013-08-22 12:16:00,
2013-08-22 05:17:00,60.9,51.5,29.76,SW,215,0.0,0.0,71,0.00,,SKC,0.00,VWS V13.01,2013-08-22 12:17:00,
2013-08-22 05:18:00,60.9,51.5,29.76,SW,215,0.0,0.0,71,0.00,,SKC,0.00,VWS V13.01,2013-08-22 12:18:00,
2013-08-22 05:19:00,60.9,51.5,29.76,SW,215,0.0,0.0,71,0.00,,SKC,0.00,VWS V13.01,2013-08-22 12:19:00,
2013-08-22 05:20:00,60.8,51.3,29.76,SW,215,0.0,0.0,71,0.00,,SKC,0.00,VWS V13.01,2013-08-22 12:20:00,
2013-08-22 05:21:00,60.8,51.3,29.76,SW,215,0.0,0.0,71,0.00,,SKC,0.00,VWS V13.01,2013-08-22 12:21:00,
2013-08-22 05:22:00,60.7,51.2,29.76,SW,215,0.0,0.0,71,0.00,,SKC,0.00,VWS V13.01,2013-08-22 12:22:00,
2013-08-22 05:23:00,60.7,51.2,29.76,SW,215,0.0,0.0,71,0.00,,SKC,0.00,VWS V13.01,2013-08-22 12:23:00,
2013-08-22 05:24:00,60.7,51.2,29.76,SW,215,0.0,0.0,71,0.00,,SKC,0.00,VWS V13.01,2013-08-22 12:24:00,
2013-08-22 05:25:00,60.6,51.2,29.76,SW,215,0.0,0.0,71,0.00,,SKC,0.00,VWS V13.01,2013-08-22 12:25:00,
2013-08-22 05:26:00,60.5,51.4,29.76,SW,215,0.0,0.0,72,0.00,,SKC,0.00,VWS V13.01,2013-08-22 12:26:00,
2013-08-22 05:27:00,60.5,51.4,29.76,SW,215,0.0,0.0,72,0.00,,SKC,0.00,VWS V13.01,2013-08-22 12:27:00,
2013-08-22 05:28:00,60.4,51.3,29.76,SW,215,0.0,0.0,72,0.00,,SKC,0.00,VWS V13.01,2013-08-22 12:28:00,
2013-08-22 05:29:00,60.3,51.2,29.76,SW,215,0.0,0.0,72,0.00,,SKC,0.00,VWS V13.01,2013-08-22 12:29:00,
2013-08-22 05:30:00,60.2,51.2,29.76,SW,215,0.0,0.0,72,0.00,,SKC,0.00,VWS V13.01,2013-08-22 12:30:00,
2013-08-22 05:31:00,60.2,51.2,29.76,SW,215,2.0,4.0,72,0.00,,SKC,0.00,VWS V13.01,2013-08-22 12:31:00,
2013-08-22 05:32:00,60.0,51.0,29.76,SW,215,3.0,4.0,72,0.00,,SKC,0.00,VWS V13.01,2013-08-22 12:32:00,
2013-08-22 05:33:00,60.0,51.3,29.76,SW,215,3.0,4.0,73,0.00,,SKC,0.00,VWS V13.01,2013-08-22 12:33:00,
2013-08-22 05:34:00,59.9,50.9,29.77,SW,215,3.0,4.0,72,0.00,,SKC,0.00,VWS V13.01,2013-08-22 12:34:00,
2013-08-22 05:35:00,59.8,50.8,29.76,SW,214,4.0,7.0,72,0.00,,SKC,0.00,VWS V13.01,2013-08-22 12:35:00,
2013-08-22 05:36:00,59.8,50.8,29.77,SW,215,5.0,6.0,72,0.00,,SKC,0.00,VWS V13.01,2013-08-22 12:36:00,
2013-08-22 05:37:00,59.9,50.9,29.77,SW,214,5.0,7.0,72,0.00,,SKC,0.00,VWS V13.01,2013-08-22 12:37:00,
2013-08-22 05:38:00,60.0,51.0,29.77,SW,214,3.0,7.0,72,0.00,,SKC,0.00,VWS V13.01,2013-08-22 12:38:00,
2013-08-22 05:39:00,60.2,51.2,29.77,SW,214,4.0,7.0,72,0.00,,SKC,0.00,VWS V13.01,2013-08-22 12:39:00,
2013-08-22 05:40:00,60.2,50.8,29.77,SW,214,5.0,7.0,71,0.00,,SKC,0.00,VWS V13.01,2013-08-22 12:40:00,
2013-08-22 05:41:00,60.3,50.9,29.77,SW,214,6.0,6.0,71,0.00,,SKC,0.00,VWS V13.01,2013-08-22 12:41:00,
2013-08-22 05:42:00,60.4,51.0,29.77,SW,227,5.0,10.0,71,0.00,,SKC,0.00,VWS V13.01,2013-08-22 12:42:00,
2013-08-22 05:43:00,60.5,51.1,29.76,SW,225,4.0,10.0,71,0.00,,SKC,0.00,VWS V13.01,2013-08-22 12:43:00,
2013-08-22 05:44:00,60.6,50.8,29.76,SW,225,5.0,10.0,70,0.00,,SKC,0.00,VWS V13.01,2013-08-22 12:44:00,
2013-08-22 05:45:00,60.7,50.9,29.76,SW,225,4.0,10.0,70,0.00,,SKC,0.00,VWS V13.01,2013-08-22 12:45:00,
2013-08-22 05:46:00,60.7,50.9,29.77,SW,225,3.0,4.0,70,0.00,,SKC,0.00,VWS V13.01,2013-08-22 12:46:00,
2013-08-22 05:47:00,60.7,50.9,29.76,SW,225,3.0,4.0,70,0.00,,SKC,0.00,VWS V13.01,2013-08-22 12:47:00,
2013-08-22 05:48:00,60.7,50.9,29.77,SW,225,3.0,4.0,70,0.00,,SKC,0.00,VWS V13.01,2013-08-22 12:48:00,
2013-08-22 05:49:00,60.8,51.0,29.77,SW,225,1.0,4.0,70,0.00,,SKC,0.00,VWS V13.01,2013-08-22 12:49:00,
2013-08-22 05:50:00,60.7,50.9,29.77,SW,225,2.0,5.0,70,0.00,,SKC,0.00,VWS V13.01,2013-08-22 12:50:00,
2013-08-22 05:51:00,60.8,51.0,29.77,SW,225,3.0,3.0,70,0.00,,SKC,0.00,VWS V13.01,2013-08-22 12:51:00,
2013-08-22 05:52:00,60.7,50.9,29.77,SW,225,2.0,4.0,70,0.00,,SKC,0.00,VWS V13.01,2013-08-22 12:52:00,
2013-08-22 05:53:00,60.7,50.9,29.77,SW,225,2.0,4.0,70,0.00,,SKC,0.00,VWS V13.01,2013-08-22 12:53:00,
2013-08-22 05:54:00,60.7,50.9,29.77,SW,225,2.0,4.0,70,0.00,,SKC,0.00,VWS V13.01,2013-08-22 12:54:00,
2013-08-22 05:55:00,60.7,50.9,29.77,SW,225,0.0,4.0,70,0.00,,SKC,0.00,VWS V13.01,2013-08-22 12:55:00,
2013-08-22 05:56:00,60.7,50.9,29.77,SW,225,0.0,0.0,70,0.00,,SKC,0.00,VWS V13.01,2013-08-22 12:56:00,
2013-08-22 05:57:00,60.6,50.8,29.77,SW,225,0.0,0.0,70,0.00,,SKC,0.00,VWS V13.01,2013-08-22 12:57:00,
2013-08-22 05:58:00,60.6,50.8,29.77,SW,225,0.0,0.0,70,0.00,,SKC,0.00,VWS V13.01,2013-08-22 12:58:00,
2013-08-22 05:59:00,60.6,50.8,29.77,SW,225,0.0,0.0,70,0.00,,SKC,0.00,VWS V13.01,2013-08-22 12:59:00,
2013-08-22 06:00:00,60.5,50.7,29.77,SW,225,0.0,0.0,70,0.00,,SKC,0.00,VWS V13.01,2013-08-22 13:00:00,
2013-08-22 06:01:00,60.5,50.7,29.78,SW,225,0.0,0.0,70,0.00,,SKC,0.00,VWS V13.01,2013-08-22 13:01:00,
2013-08-22 06:02:00,60.4,50.6,29.78,SW,225,0.0,0.0,70,0.00,,SKC,0.00,VWS V13.01,2013-08-22 13:02:00,
2013-08-22 06:03:00,60.4,50.6,29.78,SW,225,0.0,0.0,70,0.00,,SKC,0.00,VWS V13.01,2013-08-22 13:03:00,
2013-08-22 06:04:00,60.4,50.6,29.78,SW,225,0.0,0.0,70,0.00,,SKC,0.00,VWS V13.01,2013-08-22 13:04:00,
2013-08-22 06:05:00,60.3,50.5,29.78,SW,225,0.0,0.0,70,0.00,,SKC,0.00,VWS V13.01,2013-08-22 13:05:00,
2013-08-22 06:06:00,60.3,50.5,29.78,SW,225,0.0,0.0,70,0.00,,SKC,0.00,VWS V13.01,2013-08-22 13:06:00,
2013-08-22 06:07:00,60.2,50.4,29.78,SW,225,0.0,0.0,70,0.00,,SKC,0.00,VWS V13.01,2013-08-22 13:07:00,
2013-08-22 06:08:00,60.2,50.4,29.78,SW,225,0.0,0.0,70,0.00,,SKC,0.00,VWS V13.01,2013-08-22 13:08:00,
2013-08-22 06:09:00,60.1,50.7,29.78,SW,225,0.0,0.0,71,0.00,,SKC,0.00,VWS V13.01,2013-08-22 13:09:00,
2013-08-22 06:10:00,60.1,50.7,29.78,SW,225,0.0,0.0,71,0.00,,SKC,0.00,VWS V13.01,2013-08-22 13:10:00,
2013-08-22 06:11:00,60.1,50.7,29.78,SW,225,0.0,0.0,71,0.00,,SKC,0.00,VWS V13.01,2013-08-22 13:11:00,
2013-08-22 06:12:00,60.0,50.6,29.78,SW,225,0.0,0.0,71,0.00,,SKC,0.00,VWS V13.01,2013-08-22 13:12:00,
2013-08-22 06:13:00,60.0,50.6,29.78,SW,225,0.0,0.0,71,0.00,,SKC,0.00,VWS V13.01,2013-08-22 13:13:00,
2013-08-22 06:14:00,59.9,50.5,29.78,SW,225,0.0,0.0,71,0.00,,SKC,0.00,VWS V13.01,2013-08-22 13:14:00,
2013-08-22 06:15:00,59.9,50.5,29.78,SW,225,0.0,0.0,71,0.00,,SKC,0.00,VWS V13.01,2013-08-22 13:15:00,
2013-08-22 06:16:00,59.8,50.8,29.78,SW,225,0.0,0.0,72,0.00,,SKC,0.00,VWS V13.01,2013-08-22 13:16:00,
2013-08-22 06:17:00,59.7,50.7,29.78,SW,225,0.0,0.0,72,0.00,,SKC,0.00,VWS V13.01,2013-08-22 13:17:00,
2013-08-22 06:18:00,59.7,51.0,29.78,SW,225,0.0,0.0,73,0.00,,SKC,0.00,VWS V13.01,2013-08-22 13:18:00,
2013-08-22 06:19:00,59.6,51.0,29.78,SW,225,0.0,0.0,73,0.00,,SKC,0.00,VWS V13.01,2013-08-22 13:19:00,
2013-08-22 06:20:00,59.5,50.8,29.78,SW,225,0.0,0.0,73,0.00,,SKC,0.00,VWS V13.01,2013-08-22 13:20:00,
2013-08-22 06:21:00,59.5,50.8,29.78,SW,225,0.0,0.0,73,0.00,,SKC,0.00,VWS V13.01,2013-08-22 13:21:00,
2013-08-22 06:22:00,59.4,50.8,29.78,SW,225,0.0,0.0,73,0.00,,SKC,0.00,VWS V13.01,2013-08-22 13:22:00,
2013-08-22 06:23:00,59.3,50.7,29.78,SW,225,0.0,0.0,73,0.00,,SKC,0.00,VWS V13.01,2013-08-22 13:23:00,
2013-08-22 06:24:00,59.3,50.7,29.78,SW,225,0.0,0.0,73,0.00,,SKC,0.00,VWS V13.01,2013-08-22 13:24:00,
2013-08-22 06:25:00,59.3,50.7,29.78,SW,225,0.0,0.0,73,0.00,,SKC,0.00,VWS V13.01,2013-08-22 13:25:00,
2013-08-22 06:26:00,59.2,50.6,29.78,SW,225,0.0,0.0,73,0.00,,SKC,0.00,VWS V13.01,2013-08-22 13:26:00,
2013-08-22 06:27:00,59.1,50.5,29.78,SW,225,0.0,0.0,73,0.00,,SKC,0.00,VWS V13.01,2013-08-22 13:27:00,
2013-08-22 06:28:00,59.1,50.5,29.78,SW,225,0.0,0.0,73,0.00,,SKC,0.00,VWS V13.01,2013-08-22 13:28:00,
2013-08-22 06:29:00,59.1,50.5,29.78,SW,225,0.0,0.0,73,0.00,,SKC,0.00,VWS V13.01,2013-08-22 13:29:00,
2013-08-22 06:30:00,59.1,50.5,29.79,SW,225,0.0,0.0,73,0.00,,SKC,0.00,VWS V13.01,2013-08-22 13:30:00,
2013-08-22 06:31:00,59.1,50.5,29.78,SW,225,0.0,0.0,73,0.00,,SKC,0.00,VWS V13.01,2013-08-22 13:31:00,
2013-08-22 06:32:00,59.1,50.5,29.79,SW,225,0.0,0.0,73,0.00,,SKC,0.00,VWS V13.01,2013-08-22 13:32:00,
2013-08-22 06:33:00,59.2,50.6,29.79,SW,225,0.0,0.0,73,0.00,,SKC,0.00,VWS V13.01,2013-08-22 13:33:00,
2013-08-22 06:34:00,59.2,50.9,29.79,SSW,205,0.0,0.0,74,0.00,,SKC,0.00,VWS V13.01,2013-08-22 13:34:00,
2013-08-22 06:35:00,59.2,50.9,29.79,SSW,205,0.0,0.0,74,0.00,,SKC,0.00,VWS V13.01,2013-08-22 13:35:00,
2013-08-22 06:36:00,59.2,50.9,29.79,SSW,205,0.0,0.0,74,0.00,,SKC,0.00,VWS V13.01,2013-08-22 13:36:00,
2013-08-22 06:37:00,59.3,51.4,29.79,SSW,205,0.0,0.0,75,0.00,,SKC,0.00,VWS V13.01,2013-08-22 13:37:00,
2013-08-22 06:38:00,59.3,51.4,29.79,SSW,205,0.0,0.0,75,0.00,,SKC,0.00,VWS V13.01,2013-08-22 13:38:00,
2013-08-22 06:39:00,59.3,51.0,29.79,East,93,0.0,0.0,74,0.00,,SKC,0.00,VWS V13.01,2013-08-22 13:39:00,
2013-08-22 06:40:00,59.3,51.4,29.79,East,92,0.0,0.0,75,0.00,,SKC,0.00,VWS V13.01,2013-08-22 13:40:00,
2013-08-22 06:41:00,59.3,51.4,29.79,East,92,0.0,0.0,75,0.00,,SKC,0.00,VWS V13.01,2013-08-22 13:41:00,
2013-08-22 06:42:00,59.2,51.3,29.79,East,92,0.0,0.0,75,0.00,,SKC,0.00,VWS V13.01,2013-08-22 13:42:00,
2013-08-22 06:43:00,59.3,51.4,29.79,East,92,0.0,0.0,75,0.00,,SKC,0.00,VWS V13.01,2013-08-22 13:43:00,
2013-08-22 06:44:00,59.2,51.3,29.78,East,92,0.0,0.0,75,0.00,,SKC,0.00,VWS V13.01,2013-08-22 13:44:00,
2013-08-22 06:45:00,59.2,51.3,29.78,East,86,0.0,1.0,75,0.00,,SKC,0.00,VWS V13.01,2013-08-22 13:45:00,
2013-08-22 06:46:00,59.2,51.3,29.78,East,86,0.0,0.0,75,0.00,,SKC,0.00,VWS V13.01,2013-08-22 13:46:00,
2013-08-22 06:47:00,59.3,51.4,29.78,East,86,0.0,0.0,75,0.00,,SKC,0.00,VWS V13.01,2013-08-22 13:47:00,
2013-08-22 06:48:00,59.3,51.4,29.79,East,86,0.0,0.0,75,0.00,,SKC,0.00,VWS V13.01,2013-08-22 13:48:00,
2013-08-22 06:49:00,59.3,51.4,29.78,East,86,0.0,0.0,75,0.00,,SKC,0.00,VWS V13.01,2013-08-22 13:49:00,
2013-08-22 06:50:00,59.4,51.8,29.78,East,86,0.0,0.0,76,0.00,,SKC,0.00,VWS V13.01,2013-08-22 13:50:00,
2013-08-22 06:51:00,59.4,51.8,29.78,East,86,0.0,0.0,76,0.00,,SKC,0.00,VWS V13.01,2013-08-22 13:51:00,
2013-08-22 06:52:00,59.5,51.9,29.78,East,86,0.0,0.0,76,0.00,,SKC,0.00,VWS V13.01,2013-08-22 13:52:00,
2013-08-22 06:53:00,59.6,52.0,29.78,East,86,0.0,0.0,76,0.00,,SKC,0.00,VWS V13.01,2013-08-22 13:53:00,
2013-08-22 06:54:00,59.6,52.0,29.78,East,86,0.0,0.0,76,0.00,,SKC,0.00,VWS V13.01,2013-08-22 13:54:00,
2013-08-22 06:55:00,59.7,52.1,29.78,East,86,0.0,0.0,76,0.00,,SKC,0.00,VWS V13.01,2013-08-22 13:55:00,
2013-08-22 06:56:00,59.8,52.2,29.79,WSW,244,0.0,2.0,76,0.00,,SKC,0.00,VWS V13.01,2013-08-22 13:56:00,
2013-08-22 06:57:00,59.8,52.2,29.79,WSW,244,0.0,2.0,76,0.00,,SKC,0.00,VWS V13.01,2013-08-22 13:57:00,
2013-08-22 06:58:00,60.0,52.4,29.79,WSW,244,0.0,2.0,76,0.00,,SKC,0.00,VWS V13.01,2013-08-22 13:58:00,
2013-08-22 06:59:00,60.1,52.5,29.79,WSW,244,0.0,2.0,76,0.00,,SKC,0.00,VWS V13.01,2013-08-22 13:59:00,
2013-08-22 07:00:00,60.1,52.2,29.79,WSW,244,0.0,2.0,75,0.00,,SKC,0.00,VWS V13.01,2013-08-22 14:00:00,
2013-08-22 07:01:00,60.3,52.3,29.79,WSW,244,0.0,0.0,75,0.00,,SKC,0.00,VWS V13.01,2013-08-22 14:01:00,
2013-08-22 07:02:00,60.4,52.5,29.79,WSW,244,2.0,2.0,75,0.00,,SKC,0.00,VWS V13.01,2013-08-22 14:02:00,
2013-08-22 07:03:00,60.5,52.5,29.79,WSW,244,4.0,4.0,75,0.00,,SKC,0.00,VWS V13.01,2013-08-22 14:03:00,
2013-08-22 07:04:00,60.7,52.4,29.79,WSW,244,2.0,5.0,74,0.00,,SKC,0.00,VWS V13.01,2013-08-22 14:04:00,
2013-08-22 07:05:00,60.9,52.6,29.79,WSW,244,1.0,5.0,74,0.00,,SKC,0.00,VWS V13.01,2013-08-22 14:05:00,
2013-08-22 07:06:00,61.1,52.8,29.79,WSW,244,4.0,4.0,74,0.00,,SKC,0.00,VWS V13.01,2013-08-22 14:06:00,
2013-08-22 07:07:00,61.3,52.6,29.79,WSW,244,2.0,4.0,73,0.00,,SKC,0.00,VWS V13.01,2013-08-22 14:07:00,
2013-08-22 07:08:00,61.5,52.8,29.79,WSW,244,5.0,5.0,73,0.00,,SKC,0.00,VWS V13.01,2013-08-22 14:08:00,
2013-08-22 07:09:00,61.7,52.6,29.79,WSW,244,2.0,5.0,72,0.00,,SKC,0.00,VWS V13.01,2013-08-22 14:09:00,
2013-08-22 07:10:00,61.9,52.8,29.79,WSW,244,2.0,5.0,72,0.00,,SKC,0.00,VWS V13.01,2013-08-22 14:10:00,
2013-08-22 07:11:00,62.1,53.0,29.79,WSW,244,4.0,4.0,72,0.00,,SKC,0.00,VWS V13.01,2013-08-22 14:11:00,
2013-08-22 07:12:00,62.3,52.8,29.79,WSW,244,3.0,4.0,71,0.00,,SKC,0.00,VWS V13.01,2013-08-22 14:12:00,
2013-08-22 07:13:00,62.5,53.0,29.79,WSW,244,3.0,5.0,71,0.00,,SKC,0.00,VWS V13.01,2013-08-22 14:13:00,
2013-08-22 07:14:00,62.7,52.8,29.79,WSW,244,5.0,5.0,70,0.00,,SKC,0.00,VWS V13.01,2013-08-22 14:14:00,
2013-08-22 07:15:00,62.9,53.0,29.79,WSW,244,5.0,5.0,70,0.00,,SKC,0.00,VWS V13.01,2013-08-22 14:15:00,
2013-08-22 07:16:00,63.1,52.8,29.79,SW,226,6.0,9.0,69,0.00,,SKC,0.00,VWS V13.01,2013-08-22 14:16:00,
2013-08-22 07:17:00,63.3,53.0,29.79,SW,235,6.0,9.0,69,0.00,,SKC,0.00,VWS V13.01,2013-08-22 14:17:00,
2013-08-22 07:18:00,63.5,52.8,29.79,SW,221,5.0,9.0,68,0.00,,SKC,0.00,VWS V13.01,2013-08-22 14:18:00,
2013-08-22 07:19:00,63.6,52.5,29.79,SW,233,5.0,9.0,67,0.00,,SKC,0.00,VWS V13.01,2013-08-22 14:19:00,
2013-08-22 07:20:00,63.8,52.7,29.79,SSW,199,5.0,10.0,67,0.00,,SKC,0.00,VWS V13.01,2013-08-22 14:20:00,
2013-08-22 07:21:00,63.9,52.3,29.79,SSW,200,6.0,7.0,66,0.00,,SKC,0.00,VWS V13.01,2013-08-22 14:21:00,
2013-08-22 07:22:00,64.0,52.4,29.79,SSW,211,6.0,10.0,66,0.00,,SKC,0.00,VWS V13.01,2013-08-22 14:22:00,
2013-08-22 07:23:00,64.2,52.2,29.79,SSW,211,5.0,10.0,65,0.00,,SKC,0.00,VWS V13.01,2013-08-22 14:23:00,
2013-08-22 07:24:00,64.3,52.3,29.79,SSW,207,8.0,10.0,65,0.00,,SKC,0.00,VWS V13.01,2013-08-22 14:24:00,
2013-08-22 07:25:00,64.4,52.0,29.79,SW,227,10.0,12.0,64,0.00,,SKC,0.00,VWS V13.01,2013-08-22 14:25:00,
2013-08-22 07:26:00,64.5,52.1,29.79,SW,224,5.0,10.0,64,0.00,,SKC,0.00,VWS V13.01,2013-08-22 14:26:00,
2013-08-22 07:27:00,64.5,52.1,29.79,SW,224,5.0,10.0,64,0.00,,SKC,0.00,VWS V13.01,2013-08-22 14:27:00,
2013-08-22 07:28:00,64.7,52.3,29.79,SW,216,6.0,10.0,64,0.00,,SKC,0.00,VWS V13.01,2013-08-22 14:28:00,
2013-08-22 07:29:00,64.8,52.3,29.79,SW,219,7.0,10.0,64,0.00,,SKC,0.00,VWS V13.01,2013-08-22 14:29:00,
2013-08-22 07:30:00,64.9,52.5,29.79,SW,219,8.0,10.0,64,0.00,,SKC,0.00,VWS V13.01,2013-08-22 14:30:00,
2013-08-22 07:31:00,64.9,52.5,29.79,SW,219,7.0,7.0,64,0.00,,SKC,0.00,VWS V13.01,2013-08-22 14:31:00,
2013-08-22 07:32:00,65.0,52.1,29.79,SW,217,4.0,7.0,63,0.00,,SKC,0.00,VWS V13.01,2013-08-22 14:32:00,
2013-08-22 07:33:00,65.1,52.2,29.79,WSW,247,7.0,11.0,63,0.00,,SKC,0.00,VWS V13.01,2013-08-22 14:33:00,
2013-08-22 07:34:00,65.2,52.3,29.79,SW,232,11.0,11.0,63,0.00,,SKC,0.00,VWS V13.01,2013-08-22 14:34:00,
2013-08-22 07:35:00,65.1,52.2,29.80,SW,225,13.0,13.0,63,0.00,,SKC,0.00,VWS V13.01,2013-08-22 14:35:00,
2013-08-22 07:36:00,65.1,52.2,29.79,SW,232,10.0,13.0,63,0.00,,SKC,0.00,VWS V13.01,2013-08-22 14:36:00,
2013-08-22 07:37:00,65.1,52.2,29.79,SW,230,4.0,13.0,63,0.00,,SKC,0.00,VWS V13.01,2013-08-22 14:37:00,
2013-08-22 07:38:00,65.1,52.2,29.80,SW,217,9.0,13.0,63,0.00,,SKC,0.00,VWS V13.01,2013-08-22 14:38:00,
2013-08-22 07:39:00,65.1,52.2,29.80,SSW,205,11.0,13.0,63,0.00,,SKC,0.00,VWS V13.01,2013-08-22 14:39:00,
2013-08-22 07:40:00,65.2,52.3,29.80,SW,223,4.0,13.0,63,0.00,,SKC,0.00,VWS V13.01,2013-08-22 14:40:00,
2013-08-22 07:41:00,65.2,52.3,29.80,SW,224,7.0,9.0,63,0.00,,SKC,0.00,VWS V13.01,2013-08-22 14:41:00,
2013-08-22 07:42:00,65.3,52.4,29.80,SW,224,5.0,9.0,63,0.00,,SKC,0.00,VWS V13.01,2013-08-22 14:42:00,
2013-08-22 07:43:00,65.3,52.4,29.80,SW,219,5.0,9.0,63,0.00,,SKC,0.00,VWS V13.01,2013-08-22 14:43:00,
2013-08-22 07:44:00,65.4,52.1,29.80,SW,230,10.0,11.0,62,0.00,,SKC,0.00,VWS V13.01,2013-08-22 14:44:00,
2013-08-22 07:45:00,65.4,52.1,29.79,SW,229,11.0,11.0,62,0.00,,SKC,0.00,VWS V13.01,2013-08-22 14:45:00,
2013-08-22 07:46:00,65.4,52.1,29.80,SW,217,6.0,11.0,62,0.00,,SKC,0.00,VWS V13.01,2013-08-22 14:46:00,
2013-08-22 07:47:00,65.3,52.0,29.80,SW,216,3.0,11.0,62,0.00,,SKC,0.00,VWS V13.01,2013-08-22 14:47:00,
2013-08-22 07:48:00,65.4,52.1,29.80,SW,217,8.0,11.0,62,0.00,,SKC,0.00,VWS V13.01,2013-08-22 14:48:00,
2013-08-22 07:49:00,65.4,52.1,29.80,SW,231,6.0,11.0,62,0.00,,SKC,0.00,VWS V13.01,2013-08-22 14:49:00,
2013-08-22 07:50:00,65.3,52.0,29.80,WSW,237,3.0,11.0,62,0.00,,SKC,0.00,VWS V13.01,2013-08-22 14:50:00,
2013-08-22 07:51:00,65.3,52.0,29.80,SW,225,9.0,12.0,62,0.00,,SKC,0.00,VWS V13.01,2013-08-22 14:51:00,
2013-08-22 07:52:00,65.3,52.0,29.80,SSW,202,7.0,12.0,62,0.00,,SKC,0.00,VWS V13.01,2013-08-22 14:52:00,
2013-08-22 07:53:00,65.3,52.0,29.79,SSW,213,8.0,12.0,62,0.00,,SKC,0.00,VWS V13.01,2013-08-22 14:53:00,
2013-08-22 07:54:00,65.3,52.0,29.79,SSW,205,8.0,12.0,62,0.00,,SKC,0.00,VWS V13.01,2013-08-22 14:54:00,
2013-08-22 07:55:00,65.3,52.0,29.80,SSW,208,9.0,12.0,62,0.00,,SKC,0.00,VWS V13.01,2013-08-22 14:55:00,
2013-08-22 07:56:00,65.3,52.0,29.80,SSW,210,11.0,13.0,62,0.00,,SKC,0.00,VWS V13.01,2013-08-22 14:56:00,
2013-08-22 07:57:00,65.3,52.0,29.80,SSW,211,9.0,13.0,62,0.00,,SKC,0.00,VWS V13.01,2013-08-22 14:57:00,
2013-08-22 07:58:00,65.3,52.0,29.80,SW,227,11.0,13.0,62,0.00,,SKC,0.00,VWS V13.01,2013-08-22 14:58:00,
2013-08-22 07:59:00,65.4,51.6,29.80,SW,219,7.0,13.0,61,0.00,,SKC,0.00,VWS V13.01,2013-08-22 14:59:00,
2013-08-22 08:00:00,65.4,51.6,29.80,SW,221,5.0,13.0,61,0.00,,SKC,0.00,VWS V13.01,2013-08-22 15:00:00,
2013-08-22 08:01:00,65.5,52.2,29.80,SW,221,4.0,5.0,62,0.00,,SKC,0.00,VWS V13.01,2013-08-22 15:01:00,
2013-08-22 08:02:00,65.6,52.2,29.80,WSW,251,6.0,7.0,62,0.00,,SKC,0.00,VWS V13.01,2013-08-22 15:02:00,
2013-08-22 08:03:00,65.7,51.9,29.80,SW,224,9.0,9.0,61,0.00,,SKC,0.00,VWS V13.01,2013-08-22 15:03:00,
2013-08-22 08:04:00,65.8,52.0,29.80,SW,221,7.0,9.0,61,0.00,,SKC,0.00,VWS V13.01,2013-08-22 15:04:00,
2013-08-22 08:05:00,65.8,52.0,29.80,SW,221,6.0,9.0,61,0.00,,SKC,0.00,VWS V13.01,2013-08-22 15:05:00,
2013-08-22 08:06:00,65.9,52.1,29.80,SW,224,4.0,7.0,61,0.00,,SKC,0.00,VWS V13.01,2013-08-22 15:06:00,
2013-08-22 08:07:00,65.9,52.1,29.81,WSW,253,7.0,11.0,61,0.00,,SKC,0.00,VWS V13.01,2013-08-22 15:07:00,
2013-08-22 08:08:00,65.9,52.5,29.81,West,261,11.0,11.0,62,0.00,,SKC,0.00,VWS V13.01,2013-08-22 15:08:00,
2013-08-22 08:09:00,65.8,52.4,29.81,WSW,252,6.0,12.0,62,0.00,,SKC,0.00,VWS V13.01,2013-08-22 15:09:00,
2013-08-22 08:10:00,65.8,52.4,29.81,SW,224,4.0,12.0,62,0.00,,SKC,0.00,VWS V13.01,2013-08-22 15:10:00,
2013-08-22 08:11:00,65.8,52.4,29.81,SW,215,6.0,7.0,62,0.00,,SKC,0.00,VWS V13.01,2013-08-22 15:11:00,
2013-08-22 08:12:00,65.8,52.4,29.81,SW,215,6.0,11.0,62,0.00,,SKC,0.00,VWS V13.01,2013-08-22 15:12:00,
2013-08-22 08:13:00,65.8,52.4,29.81,West,262,4.0,12.0,62,0.00,,SKC,0.00,VWS V13.01,2013-08-22 15:13:00,
2013-08-22 08:14:00,65.7,52.3,29.81,SW,225,4.0,12.0,62,0.00,,SKC,0.00,VWS V13.01,2013-08-22 15:14:00,
2013-08-22 08:15:00,65.8,52.4,29.81,SW,225,2.0,12.0,62,0.00,,SKC,0.00,VWS V13.01,2013-08-22 15:15:00,
2013-08-22 08:16:00,65.9,52.5,29.81,SW,215,6.0,9.0,62,0.00,,SKC,0.00,VWS V13.01,2013-08-22 15:16:00,
2013-08-22 08:17:00,65.9,52.5,29.81,SW,214,5.0,9.0,62,0.00,,SKC,0.00,VWS V13.01,2013-08-22 15:17:00,
2013-08-22 08:18:00,66.0,52.6,29.81,SW,214,4.0,10.0,62,0.00,,SKC,0.00,VWS V13.01,2013-08-22 15:18:00,
2013-08-22 08:19:00,66.1,52.7,29.81,SW,215,3.0,10.0,62,0.00,,SKC,0.00,VWS V13.01,2013-08-22 15:19:00,
2013-08-22 08:20:00,66.2,52.8,29.81,SW,215,1.0,10.0,62,0.00,,SKC,0.00,VWS V13.01,2013-08-22 15:20:00,
2013-08-22 08:21:00,66.4,53.0,29.81,WNW,284,4.0,5.0,62,0.00,,SKC,0.00,VWS V13.01,2013-08-22 15:21:00,
2013-08-22 08:22:00,66.5,53.1,29.81,WNW,284,4.0,5.0,62,0.00,,SKC,0.00,VWS V13.01,2013-08-22 15:22:00,
2013-08-22 08:23:00,66.5,53.1,29.81,WNW,284,3.0,5.0,62,0.00,,SKC,0.00,VWS V13.01,2013-08-22 15:23:00,
2013-08-22 08:24:00,66.6,53.2,29.81,WNW,287,3.0,5.0,62,0.00,,SKC,0.00,VWS V13.01,2013-08-22 15:24:00,
2013-08-22 08:25:00,66.7,53.3,29.81,WNW,287,2.0,5.0,62,0.00,,SKC,0.00,VWS V13.01,2013-08-22 15:25:00,
2013-08-22 08:26:00,66.8,53.4,29.81,WSW,252,2.0,6.0,62,0.00,,SKC,0.00,VWS V13.01,2013-08-22 15:26:00,
2013-08-22 08:27:00,67.0,53.6,29.81,WSW,252,3.0,6.0,62,0.00,,SKC,0.00,VWS V13.01,2013-08-22 15:27:00,
2013-08-22 08:28:00,67.2,53.8,29.81,SW,225,10.0,10.0,62,0.00,,SKC,0.00,VWS V13.01,2013-08-22 15:28:00,
2013-08-22 08:29:00,67.2,53.3,29.81,WSW,247,8.0,10.0,61,0.00,,SKC,0.00,VWS V13.01,2013-08-22 15:29:00,
2013-08-22 08:30:00,67.2,53.3,29.81,SW,234,4.0,10.0,61,0.00,,SKC,0.00,VWS V13.01,2013-08-22 15:30:00,
2013-08-22 08:31:00,67.1,53.2,29.81,SW,234,9.0,9.0,61,0.00,,SKC,0.00,VWS V13.01,2013-08-22 15:31:00,
2013-08-22 08:32:00,67.0,53.1,29.81,WSW,242,6.0,9.0,61,0.00,,SKC,0.00,VWS V13.01,2013-08-22 15:32:00,
2013-08-22 08:33:00,67.0,53.1,29.81,WSW,239,4.0,10.0,61,0.00,,SKC,0.00,VWS V13.01,2013-08-22 15:33:00,
2013-08-22 08:34:00,67.0,53.1,29.81,WSW,239,3.0,10.0,61,0.00,,SKC,0.00,VWS V13.01,2013-08-22 15:34:00,
2013-08-22 08:35:00,67.0,53.1,29.81,SW,225,7.0,10.0,61,0.00,,SKC,0.00,VWS V13.01,2013-08-22 15:35:00,
2013-08-22 08:36:00,66.9,53.0,29.81,SSW,208,5.0,10.0,61,0.00,,SKC,0.00,VWS V13.01,2013-08-22 15:36:00,
2013-08-22 08:37:00,66.8,52.9,29.81,SW,232,4.0,10.0,61,0.00,,SKC,0.00,VWS V13.01,2013-08-22 15:37:00,
2013-08-22 08:38:00,66.8,53.4,29.81,SW,232,5.0,10.0,62,0.00,,SKC,0.00,VWS V13.01,2013-08-22 15:38:00,
2013-08-22 08:39:00,66.9,53.0,29.81,WSW,258,5.0,10.0,61,0.00,,SKC,0.00,VWS V13.01,2013-08-22 15:39:00,
2013-08-22 08:40:00,66.9,53.5,29.81,WSW,252,3.0,10.0,62,0.00,,SKC,0.00,VWS V13.01,2013-08-22 15:40:00,
2013-08-22 08:41:00,67.1,53.7,29.81,SW,234,9.0,10.0,62,0.00,,SKC,0.00,VWS V13.01,2013-08-22 15:41:00,
2013-08-22 08:42:00,67.2,53.3,29.81,SW,229,5.0,10.0,61,0.00,,SKC,0.00,VWS V13.01,2013-08-22 15:42:00,
2013-08-22 08:43:00,67.2,53.3,29.81,SW,229,7.0,10.0,61,0.00,,SKC,0.00,VWS V13.01,2013-08-22 15:43:00,
2013-08-22 08:44:00,67.3,53.4,29.81,WSW,239,3.0,10.0,61,0.00,,SKC,0.00,VWS V13.01,2013-08-22 15:44:00,
2013-08-22 08:45:00,67.4,53.5,29.81,WSW,252,6.0,10.0,61,0.00,,SKC,0.00,VWS V13.01,2013-08-22 15:45:00,
2013-08-22 08:46:00,67.5,54.0,29.81,WSW,254,3.0,9.0,62,0.00,,SKC,0.00,VWS V13.01,2013-08-22 15:46:00,
2013-08-22 08:47:00,67.6,54.1,29.81,WSW,254,3.0,9.0,62,0.00,,SKC,0.00,VWS V13.01,2013-08-22 15:47:00,
2013-08-22 08:48:00,67.7,54.2,29.81,SW,231,10.0,10.0,62,0.00,,SKC,0.00,VWS V13.01,2013-08-22 15:48:00,
2013-08-22 08:49:00,67.9,54.0,29.81,West,265,8.0,12.0,61,0.00,,SKC,0.00,VWS V13.01,2013-08-22 15:49:00,
2013-08-22 08:50:00,67.9,54.0,29.81,SW,229,8.0,12.0,61,0.00,,SKC,0.00,VWS V13.01,2013-08-22 15:50:00,
2013-08-22 08:51:00,68.0,53.6,29.81,SW,225,2.0,8.0,60,0.00,,SKC,0.00,VWS V13.01,2013-08-22 15:51:00,
2013-08-22 08:52:00,68.2,53.8,29.81,SSW,208,7.0,8.0,60,0.00,,SKC,0.00,VWS V13.01,2013-08-22 15:52:00,
2013-08-22 08:53:00,68.2,53.8,29.81,SSW,207,7.0,8.0,60,0.00,,SKC,0.00,VWS V13.01,2013-08-22 15:53:00,
2013-08-22 08:54:00,68.3,53.9,29.81,SSW,207,10.0,10.0,60,0.00,,SKC,0.00,VWS V13.01,2013-08-22 15:54:00,
2013-08-22 08:55:00,68.3,53.9,29.81,WSW,242,7.0,10.0,60,0.00,,SKC,0.00,VWS V13.01,2013-08-22 15:55:00,
2013-08-22 08:56:00,68.4,54.0,29.81,WSW,244,4.0,8.0,60,0.00,,SKC,0.00,VWS V13.01,2013-08-22 15:56:00,
2013-08-22 08:57:00,68.5,54.1,29.81,SW,222,8.0,9.0,60,0.00,,SKC,0.00,VWS V13.01,2013-08-22 15:57:00,
2013-08-22 08:58:00,68.6,53.7,29.81,SW,227,4.0,10.0,59,0.00,,SKC,0.00,VWS V13.01,2013-08-22 15:58:00,
2013-08-22 08:59:00,68.6,53.2,29.81,SW,217,11.0,11.0,58,0.00,,SKC,0.00,VWS V13.01,2013-08-22 15:59:00,
2013-08-22 09:00:00,68.4,53.1,29.81,SW,223,10.0,13.0,58,0.00,,SKC,0.00,VWS V13.01,2013-08-22 16:00:00,
2013-08-22 09:01:00,68.4,53.5,29.81,WSW,240,6.0,12.0,59,0.00,,SKC,0.00,VWS V13.01,2013-08-22 16:01:00,
2013-08-22 09:02:00,68.4,53.5,29.81,SSW,200,5.0,12.0,59,0.00,,SKC,0.00,VWS V13.01,2013-08-22 16:02:00,
2013-08-22 09:03:00,68.4,53.5,29.81,SW,223,4.0,12.0,59,0.00,,SKC,0.00,VWS V13.01,2013-08-22 16:03:00,
2013-08-22 09:04:00,68.6,53.7,29.81,SW,229,7.0,12.0,59,0.00,,SKC,0.00,VWS V13.01,2013-08-22 16:04:00,
2013-08-22 09:05:00,68.7,53.8,29.81,SSW,213,2.0,12.0,59,0.00,,SKC,0.00,VWS V13.01,2013-08-22 16:05:00,
2013-08-22 09:06:00,68.8,54.4,29.81,SW,229,5.0,6.0,60,0.00,,SKC,0.00,VWS V13.01,2013-08-22 16:06:00,
2013-08-22 09:07:00,68.9,54.0,29.81,SW,222,6.0,14.0,59,0.00,,SKC,0.00,VWS V13.01,2013-08-22 16:07:00,
2013-08-22 09:08:00,68.9,54.0,29.81,SW,225,11.0,14.0,59,0.00,,SKC,0.00,VWS V13.01,2013-08-22 16:08:00,
2013-08-22 09:09:00,68.9,54.0,29.81,SW,223,4.0,14.0,59,0.00,,SKC,0.00,VWS V13.01,2013-08-22 16:09:00,
2013-08-22 09:10:00,68.9,54.0,29.81,SSW,210,2.0,14.0,59,0.00,,SKC,0.00,VWS V13.01,2013-08-22 16:10:00,
2013-08-22 09:11:00,69.0,54.1,29.81,SW,233,10.0,11.0,59,0.00,,SKC,0.00,VWS V13.01,2013-08-22 16:11:00,
2013-08-22 09:12:00,69.0,54.1,29.81,SW,226,7.0,13.0,59,0.00,,SKC,0.00,VWS V13.01,2013-08-22 16:12:00,
2013-08-22 09:13:00,69.0,54.1,29.81,SSW,210,2.0,13.0,59,0.00,,SKC,0.00,VWS V13.01,2013-08-22 16:13:00,
2013-08-22 09:14:00,69.1,54.2,29.81,SW,222,2.0,13.0,59,0.00,,SKC,0.00,VWS V13.01,2013-08-22 16:14:00,
2013-08-22 09:15:00,69.2,54.7,29.81,West,263,6.0,13.0,60,0.00,,SKC,0.00,VWS V13.01,2013-08-22 16:15:00,
2013-08-22 09:16:00,69.2,53.8,29.81,West,267,4.0,11.0,58,0.00,,SKC,0.00,VWS V13.01,2013-08-22 16:16:00,
2013-08-22 09:17:00,69.1,54.2,29.81,West,281,10.0,11.0,59,0.00,,SKC,0.00,VWS V13.01,2013-08-22 16:17:00,
2013-08-22 09:18:00,69.0,54.1,29.81,West,261,3.0,11.0,59,0.00,,SKC,0.00,VWS V13.01,2013-08-22 16:18:00,
2013-08-22 09:19:00,68.9,54.0,29.81,West,277,5.0,12.0,59,0.00,,SKC,0.00,VWS V13.01,2013-08-22 16:19:00,
2013-08-22 09:20:00,68.8,53.9,29.81,West,268,6.0,12.0,59,0.00,,SKC,0.00,VWS V13.01,2013-08-22 16:20:00,
2013-08-22 09:21:00,68.7,53.8,29.81,West,262,5.0,10.0,59,0.00,,SKC,0.00,VWS V13.01,2013-08-22 16:21:00,
2013-08-22 09:22:00,68.6,53.7,29.81,SSW,208,5.0,10.0,59,0.00,,SKC,0.00,VWS V13.01,2013-08-22 16:22:00,
2013-08-22 09:23:00,68.6,53.7,29.81,SSW,207,6.0,10.0,59,0.00,,SKC,0.00,VWS V13.01,2013-08-22 16:23:00,
2013-08-22 09:24:00,68.7,53.8,29.81,SSW,207,2.0,10.0,59,0.00,,SKC,0.00,VWS V13.01,2013-08-22 16:24:00,
2013-08-22 09:25:00,68.9,54.0,29.81,SSW,198,2.0,10.0,59,0.00,,SKC,0.00,VWS V13.01,2013-08-22 16:25:00,
2013-08-22 09:26:00,69.1,54.7,29.81,WSW,248,3.0,6.0,60,0.00,,SKC,0.00,VWS V13.01,2013-08-22 16:26:00,
2013-08-22 09:27:00,69.3,54.4,29.81,SW,226,6.0,6.0,59,0.00,,SKC,0.00,VWS V13.01,2013-08-22 16:27:00,
2013-08-22 09:28:00,69.5,54.1,29.81,WSW,238,6.0,11.0,58,0.00,,SKC,0.00,VWS V13.01,2013-08-22 16:28:00,
2013-08-22 09:29:00,69.5,54.1,29.81,SW,225,5.0,11.0,58,0.00,,SKC,0.00,VWS V13.01,2013-08-22 16:29:00,
2013-08-22 09:30:00,69.6,54.2,29.81,SW,219,8.0,11.0,58,0.00,,SKC,0.00,VWS V13.01,2013-08-22 16:30:00,
2013-08-22 09:31:00,69.6,54.2,29.81,SW,228,6.0,11.0,58,0.00,,SKC,0.00,VWS V13.01,2013-08-22 16:31:00,
2013-08-22 09:32:00,69.6,54.2,29.81,WSW,248,5.0,11.0,58,0.00,,SKC,0.00,VWS V13.01,2013-08-22 16:32:00,
2013-08-22 09:33:00,69.7,54.3,29.81,SW,236,3.0,11.0,58,0.00,,SKC,0.00,VWS V13.01,2013-08-22 16:33:00,
2013-08-22 09:34:00,69.8,54.4,29.81,South,190,3.0,11.0,58,0.00,,SKC,0.00,VWS V13.01,2013-08-22 16:34:00,
2013-08-22 09:35:00,69.9,54.5,29.81,South,190,1.0,11.0,58,0.00,,SKC,0.00,VWS V13.01,2013-08-22 16:35:00,
2013-08-22 09:36:00,70.1,55.1,29.81,SSW,195,3.0,5.0,59,0.00,,SKC,0.00,VWS V13.01,2013-08-22 16:36:00,
2013-08-22 09:37:00,70.2,55.2,29.81,SSW,203,2.0,6.0,59,0.00,,SKC,0.00,VWS V13.01,2013-08-22 16:37:00,
2013-08-22 09:38:00,70.5,55.5,29.82,SSW,207,7.0,8.0,59,0.00,,SKC,0.00,VWS V13.01,2013-08-22 16:38:00,
2013-08-22 09:39:00,70.6,54.6,29.81,WSW,256,4.0,9.0,57,0.00,,SKC,0.00,VWS V13.01,2013-08-22 16:39:00,
2013-08-22 09:40:00,70.7,54.7,29.81,SW,229,5.0,9.0,57,0.00,,SKC,0.00,VWS V13.01,2013-08-22 16:40:00,
2013-08-22 09:41:00,70.9,54.4,29.81,West,260,8.0,10.0,56,0.00,,SKC,0.00,VWS V13.01,2013-08-22 16:41:00,
2013-08-22 09:42:00,71.0,54.5,29.81,WSW,245,7.0,13.0,56,0.00,,SKC,0.00,VWS V13.01,2013-08-22 16:42:00,
2013-08-22 09:43:00,71.0,54.5,29.81,SW,218,9.0,13.0,56,0.00,,SKC,0.00,VWS V13.01,2013-08-22 16:43:00,
2013-08-22 09:44:00,71.0,54.0,29.81,SW,215,9.0,13.0,55,0.00,,SKC,0.00,VWS V13.01,2013-08-22 16:44:00,
2013-08-22 09:45:00,71.0,53.5,29.81,SW,225,5.0,13.0,54,0.00,,SKC,0.00,VWS V13.01,2013-08-22 16:45:00,
2013-08-22 09:46:00,71.0,53.5,29.82,WSW,238,6.0,10.0,54,0.00,,SKC,0.00,VWS V13.01,2013-08-22 16:46:00,
2013-08-22 09:47:00,71.1,53.6,29.81,WSW,247,0.0,10.0,54,0.00,,SKC,0.00,VWS V13.01,2013-08-22 16:47:00,
2013-08-22 09:48:00,71.2,54.2,29.81,WSW,254,4.0,10.0,55,0.00,,SKC,0.00,VWS V13.01,2013-08-22 16:48:00,
2013-08-22 09:49:00,71.3,54.3,29.81,West,278,5.0,10.0,55,0.00,,SKC,0.00,VWS V13.01,2013-08-22 16:49:00,
2013-08-22 09:50:00,71.5,54.5,29.82,WSW,248,5.0,10.0,55,0.00,,SKC,0.00,VWS V13.01,2013-08-22 16:50:00,
2013-08-22 09:51:00,71.7,54.2,29.82,SSW,212,6.0,11.0,54,0.00,,SKC,0.00,VWS V13.01,2013-08-22 16:51:00,
2013-08-22 09:52:00,71.9,54.4,29.82,WSW,237,7.0,11.0,54,0.00,,SKC,0.00,VWS V13.01,2013-08-22 16:52:00,
2013-08-22 09:53:00,72.0,54.5,29.82,SW,236,3.0,11.0,54,0.00,,SKC,0.00,VWS V13.01,2013-08-22 16:53:00,
2013-08-22 09:54:00,72.2,54.1,29.82,SW,234,5.0,11.0,53,0.00,,SKC,0.00,VWS V13.01,2013-08-22 16:54:00,
2013-08-22 09:55:00,72.4,54.3,29.82,West,277,9.0,11.0,53,0.00,,SKC,0.00,VWS V13.01,2013-08-22 16:55:00,
2013-08-22 09:56:00,72.5,53.9,29.81,SW,227,2.0,11.0,52,0.00,,SKC,0.00,VWS V13.01,2013-08-22 16:56:00,
2013-08-22 09:57:00,72.5,53.4,29.81,WSW,242,7.0,11.0,51,0.00,,SKC,0.00,VWS V13.01,2013-08-22 16:57:00,
2013-08-22 09:58:00,72.5,53.4,29.81,WNW,283,5.0,12.0,51,0.00,,SKC,0.00,VWS V13.01,2013-08-22 16:58:00,
2013-08-22 09:59:00,72.5,53.9,29.81,West,270,7.0,12.0,52,0.00,,SKC,0.00,VWS V13.01,2013-08-22 16:59:00,
2013-08-22 10:00:00,72.4,53.3,29.81,West,269,4.0,12.0,51,0.00,,SKC,0.00,VWS V13.01,2013-08-22 17:00:00,
2013-08-22 10:01:00,72.4,53.3,29.82,SW,216,5.0,10.0,51,0.00,,SKC,0.00,VWS V13.01,2013-08-22 17:01:00,
2013-08-22 10:02:00,72.5,53.4,29.82,SSW,193,8.0,11.0,51,0.00,,SKC,0.00,VWS V13.01,2013-08-22 17:02:00,
2013-08-22 10:03:00,72.5,53.4,29.82,SSW,201,7.0,11.0,51,0.00,,SKC,0.00,VWS V13.01,2013-08-22 17:03:00,
2013-08-22 10:04:00,72.5,53.4,29.82,SSW,201,4.0,11.0,51,0.00,,SKC,0.00,VWS V13.01,2013-08-22 17:04:00,
2013-08-22 10:05:00,72.6,54.0,29.81,SSW,201,3.0,11.0,52,0.00,,SKC,0.00,VWS V13.01,2013-08-22 17:05:00,
2013-08-22 10:06:00,72.8,54.2,29.82,SSW,202,4.0,5.0,52,0.00,,SKC,0.00,VWS V13.01,2013-08-22 17:06:00,
2013-08-22 10:07:00,72.9,54.8,29.82,West,278,4.0,10.0,53,0.00,,SKC,0.00,VWS V13.01,2013-08-22 17:07:00,
2013-08-22 10:08:00,72.9,54.3,29.82,West,269,5.0,10.0,52,0.00,,SKC,0.00,VWS V13.01,2013-08-22 17:08:00,
2013-08-22 10:09:00,73.0,54.4,29.82,WSW,243,4.0,11.0,52,0.00,,SKC,0.00,VWS V13.01,2013-08-22 17:09:00,
2013-08-22 10:10:00,73.0,54.4,29.82,SSW,211,9.0,11.0,52,0.00,,SKC,0.00,VWS V13.01,2013-08-22 17:10:00,
2013-08-22 10:11:00,73.1,54.5,29.82,West,275,4.0,9.0,52,0.00,,SKC,0.00,VWS V13.01,2013-08-22 17:11:00,
2013-08-22 10:12:00,73.2,54.5,29.82,SW,232,9.0,9.0,52,0.00,,SKC,0.00,VWS V13.01,2013-08-22 17:12:00,
2013-08-22 10:13:00,73.2,54.5,29.82,West,260,4.0,9.0,52,0.00,,SKC,0.00,VWS V13.01,2013-08-22 17:13:00,
2013-08-22 10:14:00,73.1,54.5,29.82,West,260,3.0,9.0,52,0.00,,SKC,0.00,VWS V13.01,2013-08-22 17:14:00,
2013-08-22 10:15:00,73.2,55.1,29.82,WNW,302,10.0,10.0,53,0.00,,SKC,0.00,VWS V13.01,2013-08-22 17:15:00,
2013-08-22 10:16:00,73.1,55.0,29.82,NW,321,7.0,10.0,53,0.00,,SKC,0.00,VWS V13.01,2013-08-22 17:16:00,
2013-08-22 10:17:00,73.1,55.0,29.82,NW,313,3.0,13.0,53,0.00,,SKC,0.00,VWS V13.01,2013-08-22 17:17:00,
2013-08-22 10:18:00,73.1,55.0,29.82,WNW,288,7.0,13.0,53,0.00,,SKC,0.00,VWS V13.01,2013-08-22 17:18:00,
2013-08-22 10:19:00,73.1,54.5,29.82,West,261,1.0,13.0,52,0.00,,SKC,0.00,VWS V13.01,2013-08-22 17:19:00,
2013-08-22 10:20:00,73.1,55.0,29.82,West,273,4.0,13.0,53,0.00,,SKC,0.00,VWS V13.01,2013-08-22 17:20:00,
2013-08-22 10:21:00,73.2,55.1,29.82,WSW,246,11.0,11.0,53,0.00,,SKC,0.00,VWS V13.01,2013-08-22 17:21:00,
2013-08-22 10:22:00,73.3,55.2,29.82,WSW,252,3.0,11.0,53,0.00,,SKC,0.00,VWS V13.01,2013-08-22 17:22:00,
2013-08-22 10:23:00,73.3,54.6,29.82,SW,225,2.0,11.0,52,0.00,,SKC,0.00,VWS V13.01,2013-08-22 17:23:00,
2013-08-22 10:24:00,73.3,54.6,29.82,SW,225,3.0,11.0,52,0.00,,SKC,0.00,VWS V13.01,2013-08-22 17:24:00,
2013-08-22 10:25:00,73.4,54.7,29.82,West,267,4.0,11.0,52,0.00,,SKC,0.00,VWS V13.01,2013-08-22 17:25:00,
2013-08-22 10:26:00,73.5,55.3,29.82,West,275,2.0,10.0,53,0.00,,SKC,0.00,VWS V13.01,2013-08-22 17:26:00,
2013-08-22 10:27:00,73.7,55.5,29.82,West,273,5.0,10.0,53,0.00,,SKC,0.00,VWS V13.01,2013-08-22 17:27:00,
2013-08-22 10:28:00,73.9,55.7,29.82,West,275,6.0,10.0,53,0.00,,SKC,0.00,VWS V13.01,2013-08-22 17:28:00,
2013-08-22 10:29:00,74.0,55.3,29.82,West,264,3.0,10.0,52,0.00,,SKC,0.00,VWS V13.01,2013-08-22 17:29:00,
2013-08-22 10:30:00,74.0,55.3,29.82,SW,230,6.0,10.0,52,0.00,,SKC,0.00,VWS V13.01,2013-08-22 17:30:00,
2013-08-22 10:31:00,74.1,54.8,29.82,SW,227,6.0,7.0,51,0.00,,SKC,0.00,VWS V13.01,2013-08-22 17:31:00,
2013-08-22 10:32:00,74.2,54.9,29.82,West,275,5.0,7.0,51,0.00,,SKC,0.00,VWS V13.01,2013-08-22 17:32:00,
2013-08-22 10:33:00,74.2,54.9,29.82,SW,228,5.0,9.0,51,0.00,,SKC,0.00,VWS V13.01,2013-08-22 17:33:00,
2013-08-22 10:34:00,74.4,55.1,29.82,WSW,244,5.0,9.0,51,0.00,,SKC,0.00,VWS V13.01,2013-08-22 17:34:00,
2013-08-22 10:35:00,74.4,55.7,29.82,WSW,247,5.0,9.0,52,0.00,,SKC,0.00,VWS V13.01,2013-08-22 17:35:00,
2013-08-22 10:36:00,74.5,55.2,29.82,SW,225,5.0,9.0,51,0.00,,SKC,0.00,VWS V13.01,2013-08-22 17:36:00,
2013-08-22 10:37:00,74.4,54.6,29.82,SSW,208,3.0,10.0,50,0.00,,SKC,0.00,VWS V13.01,2013-08-22 17:37:00,
2013-08-22 10:38:00,74.3,55.0,29.82,SW,234,8.0,10.0,51,0.00,,SKC,0.00,VWS V13.01,2013-08-22 17:38:00,
2013-08-22 10:39:00,74.3,55.0,29.82,WSW,258,6.0,10.0,51,0.00,,SKC,0.00,VWS V13.01,2013-08-22 17:39:00,
2013-08-22 10:40:00,74.3,55.0,29.82,SW,229,8.0,11.0,51,0.00,,SKC,0.00,VWS V13.01,2013-08-22 17:40:00,
2013-08-22 10:41:00,74.3,54.5,29.82,SW,218,4.0,9.0,50,0.00,,SKC,0.00,VWS V13.01,2013-08-22 17:41:00,
2013-08-22 10:42:00,74.2,54.9,29.82,SW,227,12.0,13.0,51,0.00,,SKC,0.00,VWS V13.01,2013-08-22 17:42:00,
2013-08-22 10:43:00,74.2,54.9,29.82,WSW,238,4.0,13.0,51,0.00,,SKC,0.00,VWS V13.01,2013-08-22 17:43:00,
2013-08-22 10:44:00,74.2,54.9,29.82,WSW,244,5.0,13.0,51,0.00,,SKC,0.00,VWS V13.01,2013-08-22 17:44:00,
2013-08-22 10:45:00,74.4,55.1,29.82,WNW,283,4.0,13.0,51,0.00,,SKC,0.00,VWS V13.01,2013-08-22 17:45:00,
2013-08-22 10:46:00,74.4,55.1,29.82,West,260,5.0,7.0,51,0.00,,SKC,0.00,VWS V13.01,2013-08-22 17:46:00,
2013-08-22 10:47:00,74.3,55.0,29.82,West,276,7.0,11.0,51,0.00,,SKC,0.00,VWS V13.01,2013-08-22 17:47:00,
2013-08-22 10:48:00,74.3,54.5,29.82,WSW,243,6.0,11.0,50,0.00,,SKC,0.00,VWS V13.01,2013-08-22 17:48:00,
2013-08-22 10:49:00,74.3,54.5,29.82,SW,228,9.0,12.0,50,0.00,,SKC,0.00,VWS V13.01,2013-08-22 17:49:00,
2013-08-22 10:50:00,74.2,54.9,29.82,SW,219,3.0,12.0,51,0.00,,SKC,0.00,VWS V13.01,2013-08-22 17:50:00,
2013-08-22 10:51:00,74.2,54.9,29.82,SW,222,5.0,6.0,51,0.00,,SKC,0.00,VWS V13.01,2013-08-22 17:51:00,
2013-08-22 10:52:00,74.2,54.9,29.82,SW,219,9.0,9.0,51,0.00,,SKC,0.00,VWS V13.01,2013-08-22 17:52:00,
2013-08-22 10:53:00,74.2,54.4,29.82,SSW,213,7.0,11.0,50,0.00,,SKC,0.00,VWS V13.01,2013-08-22 17:53:00,
2013-08-22 10:54:00,74.2,54.4,29.82,SW,225,7.0,11.0,50,0.00,,SKC,0.00,VWS V13.01,2013-08-22 17:54:00,
2013-08-22 10:55:00,74.3,55.0,29.82,SW,214,10.0,11.0,51,0.00,,SKC,0.00,VWS V13.01,2013-08-22 17:55:00,
2013-08-22 10:56:00,74.4,54.6,29.82,SW,232,4.0,11.0,50,0.00,,SKC,0.00,VWS V13.01,2013-08-22 17:56:00,
2013-08-22 10:57:00,74.5,54.7,29.82,WSW,238,4.0,11.0,50,0.00,,SKC,0.00,VWS V13.01,2013-08-22 17:57:00,
2013-08-22 10:58:00,74.5,55.2,29.82,SW,236,6.0,11.0,51,0.00,,SKC,0.00,VWS V13.01,2013-08-22 17:58:00,
2013-08-22 10:59:00,74.6,55.3,29.82,SW,225,5.0,11.0,51,0.00,,SKC,0.00,VWS V13.01,2013-08-22 17:59:00,
2013-08-22 11:00:00,74.7,54.8,29.82,SW,219,6.0,11.0,50,0.00,,SKC,0.00,VWS V13.01,2013-08-22 18:00:00,
2013-08-22 11:01:00,74.8,54.9,29.82,SW,217,5.0,7.0,50,0.00,,SKC,0.00,VWS V13.01,2013-08-22 18:01:00,
2013-08-22 11:02:00,74.9,55.0,29.82,SW,214,5.0,13.0,50,0.00,,SKC,0.00,VWS V13.01,2013-08-22 18:02:00,
2013-08-22 11:03:00,74.9,55.0,29.82,SW,215,5.0,13.0,50,0.00,,SKC,0.00,VWS V13.01,2013-08-22 18:03:00,
2013-08-22 11:04:00,75.0,55.7,29.82,WSW,256,3.0,13.0,51,0.00,,SKC,0.00,VWS V13.01,2013-08-22 18:04:00,
2013-08-22 11:05:00,75.2,55.8,29.82,West,263,6.0,13.0,51,0.00,,SKC,0.00,VWS V13.01,2013-08-22 18:05:00,
2013-08-22 11:06:00,75.2,55.3,29.82,West,265,2.0,7.0,50,0.00,,SKC,0.00,VWS V13.01,2013-08-22 18:06:00,
2013-08-22 11:07:00,75.3,55.9,29.82,SW,229,0.0,8.0,51,0.00,,SKC,0.00,VWS V13.01,2013-08-22 18:07:00,
2013-08-22 11:08:00,75.4,56.0,29.81,SW,217,7.0,8.0,51,0.00,,SKC,0.00,VWS V13.01,2013-08-22 18:08:00,
2013-08-22 11:09:00,75.6,55.7,29.81,SSW,213,4.0,8.0,50,0.00,,SKC,0.00,VWS V13.01,2013-08-22 18:09:00,
2013-08-22 11:10:00,75.7,55.8,29.81,SW,229,12.0,12.0,50,0.00,,SKC,0.00,VWS V13.01,2013-08-22 18:10:00,
2013-08-22 11:11:00,75.7,55.8,29.81,SW,232,12.0,13.0,50,0.00,,SKC,0.00,VWS V13.01,2013-08-22 18:11:00,
2013-08-22 11:12:00,75.8,55.9,29.81,SW,217,9.0,13.0,50,0.00,,SKC,0.00,VWS V13.01,2013-08-22 18:12:00,
2013-08-22 11:13:00,75.8,55.9,29.81,SW,232,7.0,13.0,50,0.00,,SKC,0.00,VWS V13.01,2013-08-22 18:13:00,
2013-08-22 11:14:00,75.8,55.9,29.81,SW,220,5.0,13.0,50,0.00,,SKC,0.00,VWS V13.01,2013-08-22 18:14:00,
2013-08-22 11:15:00,75.8,55.9,29.81,SW,233,13.0,13.0,50,0.00,,SKC,0.00,VWS V13.01,2013-08-22 18:15:00,
2013-08-22 11:16:00,75.7,55.8,29.81,SW,229,6.0,14.0,50,0.00,,SKC,0.00,VWS V13.01,2013-08-22 18:16:00,
2013-08-22 11:17:00,75.7,55.8,29.81,SSW,201,7.0,14.0,50,0.00,,SKC,0.00,VWS V13.01,2013-08-22 18:17:00,
2013-08-22 11:18:00,75.7,55.8,29.81,SW,215,5.0,14.0,50,0.00,,SKC,0.00,VWS V13.01,2013-08-22 18:18:00,
2013-08-22 11:19:00,75.7,55.8,29.81,SW,226,5.0,14.0,50,0.00,,SKC,0.00,VWS V13.01,2013-08-22 18:19:00,
2013-08-22 11:20:00,75.8,55.9,29.81,SW,220,2.0,14.0,50,0.00,,SKC,0.00,VWS V13.01,2013-08-22 18:20:00,
2013-08-22 11:21:00,76.0,56.0,29.81,WSW,238,10.0,11.0,50,0.00,,SKC,0.00,VWS V13.01,2013-08-22 18:21:00,
2013-08-22 11:22:00,76.1,56.1,29.81,South,188,3.0,11.0,50,0.00,,SKC,0.00,VWS V13.01,2013-08-22 18:22:00,
2013-08-22 11:23:00,76.3,56.3,29.81,SSW,196,6.0,11.0,50,0.00,,SKC,0.00,VWS V13.01,2013-08-22 18:23:00,
2013-08-22 11:24:00,76.4,55.8,29.81,SW,232,6.0,12.0,49,0.00,,SKC,0.00,VWS V13.01,2013-08-22 18:24:00,
2013-08-22 11:25:00,76.5,55.9,29.81,SSW,202,7.0,12.0,49,0.00,,SKC,0.00,VWS V13.01,2013-08-22 18:25:00,
2013-08-22 11:26:00,76.5,55.9,29.81,SSW,195,3.0,7.0,49,0.00,,SKC,0.00,VWS V13.01,2013-08-22 18:26:00,
2013-08-22 11:27:00,76.6,56.0,29.81,WSW,250,1.0,7.0,49,0.00,,SKC,0.00,VWS V13.01,2013-08-22 18:27:00,
2013-08-22 11:28:00,76.7,56.7,29.81,NW,306,2.0,7.0,50,0.00,,SKC,0.00,VWS V13.01,2013-08-22 18:28:00,
2013-08-22 11:29:00,76.9,56.9,29.81,WNW,286,5.0,7.0,50,0.00,,SKC,0.00,VWS V13.01,2013-08-22 18:29:00,
2013-08-22 11:30:00,77.0,55.8,29.81,WSW,254,6.0,12.0,48,0.00,,SKC,0.00,VWS V13.01,2013-08-22 18:30:00,
2013-08-22 11:31:00,77.0,55.8,29.81,WSW,247,4.0,6.0,48,0.00,,SKC,0.00,VWS V13.01,2013-08-22 18:31:00,
2013-08-22 11:32:00,77.0,55.8,29.81,SW,217,6.0,9.0,48,0.00,,SKC,0.00,VWS V13.01,2013-08-22 18:32:00,
2013-08-22 11:33:00,77.0,55.8,29.81,SW,219,8.0,9.0,48,0.00,,SKC,0.00,VWS V13.01,2013-08-22 18:33:00,
2013-08-22 11:34:00,77.0,55.8,29.81,SW,226,6.0,13.0,48,0.00,,SKC,0.00,VWS V13.01,2013-08-22 18:34:00,
2013-08-22 11:35:00,76.9,55.2,29.81,SW,218,10.0,13.0,47,0.00,,SKC,0.00,VWS V13.01,2013-08-22 18:35:00,
2013-08-22 11:36:00,76.9,55.7,29.81,SW,221,11.0,11.0,48,0.00,,SKC,0.00,VWS V13.01,2013-08-22 18:36:00,
2013-08-22 11:37:00,76.9,55.7,29.81,WSW,237,2.0,11.0,48,0.00,,SKC,0.00,VWS V13.01,2013-08-22 18:37:00,
2013-08-22 11:38:00,77.0,55.8,29.81,WSW,237,4.0,11.0,48,0.00,,SKC,0.00,VWS V13.01,2013-08-22 18:38:00,
2013-08-22 11:39:00,77.1,55.9,29.81,West,273,6.0,11.0,48,0.00,,SKC,0.00,VWS V13.01,2013-08-22 18:39:00,
2013-08-22 11:40:00,77.3,56.1,29.81,WSW,257,5.0,11.0,48,0.00,,SKC,0.00,VWS V13.01,2013-08-22 18:40:00,
2013-08-22 11:41:00,77.4,55.6,29.81,WSW,248,5.0,11.0,47,0.00,,SKC,0.00,VWS V13.01,2013-08-22 18:41:00,
2013-08-22 11:42:00,77.4,55.0,29.81,SW,217,10.0,12.0,46,0.00,,SKC,0.00,VWS V13.01,2013-08-22 18:42:00,
2013-08-22 11:43:00,77.3,54.9,29.81,SW,230,12.0,13.0,46,0.00,,SKC,0.00,VWS V13.01,2013-08-22 18:43:00,
2013-08-22 11:44:00,77.2,54.8,29.81,SW,218,12.0,13.0,46,0.00,,SKC,0.00,VWS V13.01,2013-08-22 18:44:00,
2013-08-22 11:45:00,77.1,54.8,29.81,SW,232,6.0,13.0,46,0.00,,SKC,0.00,VWS V13.01,2013-08-22 18:45:00,
2013-08-22 11:46:00,77.0,54.7,29.81,SSW,209,7.0,10.0,46,0.00,,SKC,0.00,VWS V13.01,2013-08-22 18:46:00,
2013-08-22 11:47:00,77.0,55.2,29.81,SSW,205,5.0,11.0,47,0.00,,SKC,0.00,VWS V13.01,2013-08-22 18:47:00,
2013-08-22 11:48:00,77.1,55.3,29.81,SW,216,5.0,11.0,47,0.00,,SKC,0.00,VWS V13.01,2013-08-22 18:48:00,
2013-08-22 11:49:00,77.2,55.4,29.81,SW,216,0.0,11.0,47,0.00,,SKC,0.00,VWS V13.01,2013-08-22 18:49:00,
2013-08-22 11:50:00,77.3,55.5,29.81,WNW,290,0.0,11.0,47,0.00,,SKC,0.00,VWS V13.01,2013-08-22 18:50:00,
2013-08-22 11:51:00,77.5,55.7,29.80,SW,217,5.0,6.0,47,0.00,,SKC,0.00,VWS V13.01,2013-08-22 18:51:00,
2013-08-22 11:52:00,77.7,55.3,29.81,West,272,7.0,7.0,46,0.00,,SKC,0.00,VWS V13.01,2013-08-22 18:52:00,
2013-08-22 11:53:00,77.8,55.4,29.80,SW,223,3.0,9.0,46,0.00,,SKC,0.00,VWS V13.01,2013-08-22 18:53:00,
2013-08-22 11:54:00,77.9,55.5,29.80,WNW,282,3.0,9.0,46,0.00,,SKC,0.00,VWS V13.01,2013-08-22 18:54:00,
2013-08-22 11:55:00,78.0,55.6,29.80,WNW,282,7.0,9.0,46,0.00,,SKC,0.00,VWS V13.01,2013-08-22 18:55:00,
2013-08-22 11:56:00,78.0,56.2,29.80,WNW,290,4.0,7.0,47,0.00,,SKC,0.00,VWS V13.01,2013-08-22 18:56:00,
2013-08-22 11:57:00,78.0,55.6,29.80,WNW,290,0.0,7.0,46,0.00,,SKC,0.00,VWS V13.01,2013-08-22 18:57:00,
2013-08-22 11:58:00,78.1,55.7,29.80,WNW,284,3.0,7.0,46,0.00,,SKC,0.00,VWS V13.01,2013-08-22 18:58:00,
2013-08-22 11:59:00,78.1,55.7,29.80,WNW,284,0.0,7.0,46,0.00,,SKC,0.00,VWS V13.01,2013-08-22 18:59:00,
2013-08-22 12:00:00,78.3,56.4,29.80,WNW,284,0.0,7.0,47,0.00,,SKC,0.00,VWS V13.01,2013-08-22 19:00:00,
2013-08-22 12:01:00,78.4,55.9,29.80,SW,225,5.0,9.0,46,0.00,,SKC,0.00,VWS V13.01,2013-08-22 19:01:00,
2013-08-22 12:02:00,78.5,56.0,29.80,SW,223,8.0,9.0,46,0.00,,SKC,0.00,VWS V13.01,2013-08-22 19:02:00,
2013-08-22 12:03:00,78.5,56.0,29.80,WSW,254,9.0,9.0,46,0.00,,SKC,0.00,VWS V13.01,2013-08-22 19:03:00,
2013-08-22 12:04:00,78.5,56.0,29.80,WSW,251,3.0,11.0,46,0.00,,SKC,0.00,VWS V13.01,2013-08-22 19:04:00,
2013-08-22 12:05:00,78.5,56.0,29.80,West,271,4.0,11.0,46,0.00,,SKC,0.00,VWS V13.01,2013-08-22 19:05:00,
2013-08-22 12:06:00,78.5,55.4,29.80,WNW,286,9.0,9.0,45,0.00,,SKC,0.00,VWS V13.01,2013-08-22 19:06:00,
2013-08-22 12:07:00,78.4,55.3,29.80,West,279,3.0,9.0,45,0.00,,SKC,0.00,VWS V13.01,2013-08-22 19:07:00,
2013-08-22 12:08:00,78.4,55.9,29.80,West,279,6.0,9.0,46,0.00,,SKC,0.00,VWS V13.01,2013-08-22 19:08:00,
2013-08-22 12:09:00,78.4,55.3,29.80,WNW,292,3.0,9.0,45,0.00,,SKC,0.00,VWS V13.01,2013-08-22 19:09:00,
2013-08-22 12:10:00,78.5,55.4,29.80,WNW,292,4.0,9.0,45,0.00,,SKC,0.00,VWS V13.01,2013-08-22 19:10:00,
2013-08-22 12:11:00,78.7,55.6,29.80,WSW,250,3.0,9.0,45,0.00,,SKC,0.00,VWS V13.01,2013-08-22 19:11:00,
2013-08-22 12:12:00,78.7,55.6,29.80,West,269,4.0,11.0,45,0.00,,SKC,0.00,VWS V13.01,2013-08-22 19:12:00,
2013-08-22 12:13:00,78.8,55.1,29.80,WNW,289,6.0,11.0,44,0.00,,SKC,0.00,VWS V13.01,2013-08-22 19:13:00,
2013-08-22 12:14:00,78.9,55.2,29.80,West,275,6.0,11.0,44,0.00,,SKC,0.00,VWS V13.01,2013-08-22 19:14:00,
2013-08-22 12:15:00,79.0,55.2,29.80,West,271,5.0,11.0,44,0.00,,SKC,0.00,VWS V13.01,2013-08-22 19:15:00,
2013-08-22 12:16:00,79.1,56.0,29.80,SW,216,6.0,11.0,45,0.00,,SKC,0.00,VWS V13.01,2013-08-22 19:16:00,
2013-08-22 12:17:00,79.0,55.2,29.80,SSW,207,0.0,11.0,44,0.00,,SKC,0.00,VWS V13.01,2013-08-22 19:17:00,
2013-08-22 12:18:00,79.1,56.0,29.80,WNW,295,0.0,11.0,45,0.00,,SKC,0.00,VWS V13.01,2013-08-22 19:18:00,
2013-08-22 12:19:00,79.2,56.0,29.80,WNW,294,0.0,11.0,45,0.00,,SKC,0.00,VWS V13.01,2013-08-22 19:19:00,
2013-08-22 12:20:00,79.3,56.1,29.80,WNW,295,2.0,11.0,45,0.00,,SKC,0.00,VWS V13.01,2013-08-22 19:20:00,
2013-08-22 12:21:00,79.4,55.6,29.79,WSW,250,7.0,10.0,44,0.00,,SKC,0.00,VWS V13.01,2013-08-22 19:21:00,
2013-08-22 12:22:00,79.6,55.8,29.80,SW,233,5.0,10.0,44,0.00,,SKC,0.00,VWS V13.01,2013-08-22 19:22:00,
2013-08-22 12:23:00,79.6,55.8,29.79,SW,230,5.0,10.0,44,0.00,,SKC,0.00,VWS V13.01,2013-08-22 19:23:00,
2013-08-22 12:24:00,79.5,55.7,29.79,SW,214,1.0,10.0,44,0.00,,SKC,0.00,VWS V13.01,2013-08-22 19:24:00,
2013-08-22 12:25:00,79.5,55.7,29.79,WSW,254,5.0,10.0,44,0.00,,SKC,0.00,VWS V13.01,2013-08-22 19:25:00,
2013-08-22 12:26:00,79.6,56.4,29.79,WNW,298,4.0,7.0,45,0.00,,SKC,0.00,VWS V13.01,2013-08-22 19:26:00,
2013-08-22 12:27:00,79.6,57.0,29.79,WNW,292,6.0,10.0,46,0.00,,SKC,0.00,VWS V13.01,2013-08-22 19:27:00,
2013-08-22 12:28:00,79.6,56.4,29.79,West,281,5.0,10.0,45,0.00,,SKC,0.00,VWS V13.01,2013-08-22 19:28:00,
2013-08-22 12:29:00,79.6,56.4,29.79,West,280,2.0,10.0,45,0.00,,SKC,0.00,VWS V13.01,2013-08-22 19:29:00,
2013-08-22 12:30:00,79.6,56.4,29.79,West,280,0.0,10.0,45,0.00,,SKC,0.00,VWS V13.01,2013-08-22 19:30:00,
2013-08-22 12:31:00,79.7,57.1,29.79,West,280,0.0,0.0,46,0.00,,SKC,0.00,VWS V13.01,2013-08-22 19:31:00,
2013-08-22 12:32:00,79.8,56.6,29.79,SW,215,2.0,6.0,45,0.00,,SKC,0.00,VWS V13.01,2013-08-22 19:32:00,
2013-08-22 12:33:00,80.1,57.5,29.79,NW,317,0.0,7.0,46,0.00,,SKC,0.00,VWS V13.01,2013-08-22 19:33:00,
2013-08-22 12:34:00,80.4,57.8,29.79,WSW,245,2.0,7.0,46,0.00,,SKC,0.00,VWS V13.01,2013-08-22 19:34:00,
2013-08-22 12:35:00,80.6,56.7,29.79,SW,224,1.0,7.0,44,0.00,,SKC,0.00,VWS V13.01,2013-08-22 19:35:00,
2013-08-22 12:36:00,80.7,56.2,29.79,SSW,207,5.0,9.0,43,0.00,,SKC,0.00,VWS V13.01,2013-08-22 19:36:00,
2013-08-22 12:37:00,80.8,56.2,29.79,WSW,248,5.0,10.0,43,0.00,,SKC,0.00,VWS V13.01,2013-08-22 19:37:00,
2013-08-22 12:38:00,81.0,56.4,29.79,WSW,242,1.0,10.0,43,0.00,,SKC,0.00,VWS V13.01,2013-08-22 19:38:00,
2013-08-22 12:39:00,81.1,56.5,29.79,West,265,9.0,10.0,43,0.00,,SKC,0.00,VWS V13.01,2013-08-22 19:39:00,
2013-08-22 12:40:00,81.1,56.5,29.79,West,265,4.0,10.0,43,0.00,,SKC,0.00,VWS V13.01,2013-08-22 19:40:00,
2013-08-22 12:41:00,81.0,56.4,29.79,SW,236,6.0,7.0,43,0.00,,SKC,0.00,VWS V13.01,2013-08-22 19:41:00,
2013-08-22 12:42:00,81.0,55.8,29.78,SW,229,4.0,7.0,42,0.00,,SKC,0.00,VWS V13.01,2013-08-22 19:42:00,
2013-08-22 12:43:00,80.9,55.7,29.78,SW,230,0.0,7.0,42,0.00,,SKC,0.00,VWS V13.01,2013-08-22 19:43:00,
2013-08-22 12:44:00,80.9,55.7,29.78,South,184,3.0,7.0,42,0.00,,SKC,0.00,VWS V13.01,2013-08-22 19:44:00,
2013-08-22 12:45:00,80.9,55.7,29.78,South,190,6.0,7.0,42,0.00,,SKC,0.00,VWS V13.01,2013-08-22 19:45:00,
2013-08-22 12:46:00,81.1,55.9,29.78,South,190,5.0,6.0,42,0.00,,SKC,0.00,VWS V13.01,2013-08-22 19:46:00,
2013-08-22 12:47:00,81.2,56.0,29.78,WSW,238,4.0,9.0,42,0.00,,SKC,0.00,VWS V13.01,2013-08-22 19:47:00,
2013-08-22 12:48:00,81.2,56.0,29.78,WSW,238,0.0,9.0,42,0.00,,SKC,0.00,VWS V13.01,2013-08-22 19:48:00,
2013-08-22 12:49:00,81.2,56.6,29.78,WSW,241,4.0,9.0,43,0.00,,SKC,0.00,VWS V13.01,2013-08-22 19:49:00,
2013-08-22 12:50:00,81.3,56.7,29.78,WNW,294,5.0,9.0,43,0.00,,SKC,0.00,VWS V13.01,2013-08-22 19:50:00,
2013-08-22 12:51:00,81.4,57.4,29.78,WSW,250,4.0,5.0,44,0.00,,SKC,0.00,VWS V13.01,2013-08-22 19:51:00,
2013-08-22 12:52:00,81.5,57.5,29.78,West,259,6.0,6.0,44,0.00,,SKC,0.00,VWS V13.01,2013-08-22 19:52:00,
2013-08-22 12:53:00,81.7,57.0,29.78,WSW,253,0.0,6.0,43,0.00,,SKC,0.00,VWS V13.01,2013-08-22 19:53:00,
2013-08-22 12:54:00,81.9,56.6,29.78,WSW,253,2.0,6.0,42,0.00,,SKC,0.00,VWS V13.01,2013-08-22 19:54:00,
2013-08-22 12:55:00,82.0,57.3,29.78,WSW,253,3.0,6.0,43,0.00,,SKC,0.00,VWS V13.01,2013-08-22 19:55:00,
2013-08-22 12:56:00,82.0,56.7,29.78,West,266,1.0,5.0,42,0.00,,SKC,0.00,VWS V13.01,2013-08-22 19:56:00,
2013-08-22 12:57:00,82.0,57.3,29.78,West,266,2.0,5.0,43,0.00,,SKC,0.00,VWS V13.01,2013-08-22 19:57:00,
2013-08-22 12:58:00,82.0,57.3,29.78,West,279,6.0,7.0,43,0.00,,SKC,0.00,VWS V13.01,2013-08-22 19:58:00,
2013-08-22 12:59:00,82.0,58.0,29.78,WNW,299,5.0,11.0,44,0.00,,SKC,0.00,VWS V13.01,2013-08-22 19:59:00,
2013-08-22 13:00:00,82.0,57.3,29.78,WNW,299,4.0,5.0,43,0.00,,SKC,0.00,VWS V13.01,2013-08-22 20:00:00,
2013-08-22 13:01:00,81.9,57.2,29.78,WNW,299,3.0,5.0,43,0.00,,SKC,0.00,VWS V13.01,2013-08-22 20:01:00,
2013-08-22 13:02:00,81.9,57.9,29.78,SW,225,10.0,10.0,44,0.00,,SKC,0.00,VWS V13.01,2013-08-22 20:02:00,
2013-08-22 13:03:00,81.9,56.6,29.78,SW,219,5.0,11.0,42,0.00,,SKC,0.00,VWS V13.01,2013-08-22 20:03:00,
2013-08-22 13:04:00,81.8,56.5,29.78,SSW,205,6.0,11.0,42,0.00,,SKC,0.00,VWS V13.01,2013-08-22 20:04:00,
2013-08-22 13:05:00,81.8,56.5,29.78,SSW,194,4.0,11.0,42,0.00,,SKC,0.00,VWS V13.01,2013-08-22 20:05:00,
2013-08-22 13:06:00,81.8,56.5,29.78,SSW,196,4.0,5.0,42,0.00,,SKC,0.00,VWS V13.01,2013-08-22 20:06:00,
2013-08-22 13:07:00,81.8,56.5,29.78,West,262,5.0,9.0,42,0.00,,SKC,0.00,VWS V13.01,2013-08-22 20:07:00,
2013-08-22 13:08:00,81.8,56.5,29.78,WSW,258,2.0,9.0,42,0.00,,SKC,0.00,VWS V13.01,2013-08-22 20:08:00,
2013-08-22 13:09:00,81.9,56.6,29.78,WNW,288,5.0,9.0,42,0.00,,SKC,0.00,VWS V13.01,2013-08-22 20:09:00,
2013-08-22 13:10:00,82.1,57.4,29.78,WNW,288,3.0,9.0,43,0.00,,SKC,0.00,VWS V13.01,2013-08-22 20:10:00,
2013-08-22 13:11:00,82.2,56.8,29.78,SW,233,5.0,7.0,42,0.00,,SKC,0.00,VWS V13.01,2013-08-22 20:11:00,
2013-08-22 13:12:00,82.3,56.9,29.78,SW,232,5.0,7.0,42,0.00,,SKC,0.00,VWS V13.01,2013-08-22 20:12:00,
2013-08-22 13:13:00,82.3,56.9,29.78,SW,232,0.0,7.0,42,0.00,,SKC,0.00,VWS V13.01,2013-08-22 20:13:00,
2013-08-22 13:14:00,82.4,57.0,29.78,SW,232,4.0,7.0,42,0.00,,SKC,0.00,VWS V13.01,2013-08-22 20:14:00,
2013-08-22 13:15:00,82.4,57.0,29.78,SW,218,4.0,10.0,42,0.00,,SKC,0.00,VWS V13.01,2013-08-22 20:15:00,
2013-08-22 13:16:00,82.5,57.1,29.78,SW,218,1.0,4.0,42,0.00,,SKC,0.00,VWS V13.01,2013-08-22 20:16:00,
2013-08-22 13:17:00,82.6,57.9,29.78,SW,218,2.0,4.0,43,0.00,,SKC,0.00,VWS V13.01,2013-08-22 20:17:00,
2013-08-22 13:18:00,82.6,57.9,29.78,WNW,302,6.0,11.0,43,0.00,,SKC,0.00,VWS V13.01,2013-08-22 20:18:00,
2013-08-22 13:19:00,82.7,57.3,29.78,NW,311,6.0,11.0,42,0.00,,SKC,0.00,VWS V13.01,2013-08-22 20:19:00,
2013-08-22 13:20:00,82.6,58.5,29.78,NW,305,6.0,11.0,44,0.00,,SKC,0.00,VWS V13.01,2013-08-22 20:20:00,
2013-08-22 13:21:00,82.5,57.8,29.78,WNW,300,3.0,8.0,43,0.00,,SKC,0.00,VWS V13.01,2013-08-22 20:21:00,
2013-08-22 13:22:00,82.5,57.8,29.78,WNW,300,1.0,8.0,43,0.00,,SKC,0.00,VWS V13.01,2013-08-22 20:22:00,
2013-08-22 13:23:00,82.5,57.1,29.78,WSW,258,3.0,8.0,42,0.00,,SKC,0.00,VWS V13.01,2013-08-22 20:23:00,
2013-08-22 13:24:00,82.6,56.5,29.78,SW,219,3.0,8.0,41,0.00,,SKC,0.00,VWS V13.01,2013-08-22 20:24:00,
2013-08-22 13:25:00,82.6,56.5,29.78,WSW,252,0.0,10.0,41,0.00,,SKC,0.00,VWS V13.01,2013-08-22 20:25:00,
2013-08-22 13:26:00,82.8,56.7,29.78,West,280,2.0,5.0,41,0.00,,SKC,0.00,VWS V13.01,2013-08-22 20:26:00,
2013-08-22 13:27:00,82.9,56.8,29.78,WSW,250,3.0,6.0,41,0.00,,SKC,0.00,VWS V13.01,2013-08-22 20:27:00,
2013-08-22 13:28:00,83.1,56.3,29.78,SW,226,8.0,8.0,40,0.00,,SKC,0.00,VWS V13.01,2013-08-22 20:28:00,
2013-08-22 13:29:00,83.2,56.4,29.78,SW,217,9.0,9.0,40,0.00,,SKC,0.00,VWS V13.01,2013-08-22 20:29:00,
2013-08-22 13:30:00,83.2,55.7,29.78,SW,230,7.0,11.0,39,0.00,,SKC,0.00,VWS V13.01,2013-08-22 20:30:00,
2013-08-22 13:31:00,83.1,55.6,29.77,WNW,287,5.0,8.0,39,0.00,,SKC,0.00,VWS V13.01,2013-08-22 20:31:00,
2013-08-22 13:32:00,83.1,57.7,29.77,WNW,295,0.0,8.0,42,0.00,,SKC,0.00,VWS V13.01,2013-08-22 20:32:00,
2013-08-22 13:33:00,83.1,57.0,29.77,NW,315,2.0,8.0,41,0.00,,SKC,0.00,VWS V13.01,2013-08-22 20:33:00,
2013-08-22 13:34:00,83.1,57.0,29.77,NW,306,1.0,8.0,41,0.00,,SKC,0.00,VWS V13.01,2013-08-22 20:34:00,
2013-08-22 13:35:00,83.2,57.1,29.77,NW,306,1.0,8.0,41,0.00,,SKC,0.00,VWS V13.01,2013-08-22 20:35:00,
2013-08-22 13:36:00,83.2,57.1,29.77,NW,306,3.0,4.0,41,0.00,,SKC,0.00,VWS V13.01,2013-08-22 20:36:00,
2013-08-22 13:37:00,83.1,56.3,29.77,NW,306,0.0,4.0,40,0.00,,SKC,0.00,VWS V13.01,2013-08-22 20:37:00,
2013-08-22 13:38:00,83.2,56.4,29.77,NW,306,0.0,4.0,40,0.00,,SKC,0.00,VWS V13.01,2013-08-22 20:38:00,
2013-08-22 13:39:00,83.2,57.1,29.77,NW,305,5.0,5.0,41,0.00,,SKC,0.00,VWS V13.01,2013-08-22 20:39:00,
2013-08-22 13:40:00,83.3,57.8,29.77,NW,322,4.0,7.0,42,0.00,,SKC,0.00,VWS V13.01,2013-08-22 20:40:00,
2013-08-22 13:41:00,83.6,58.1,29.77,NW,317,0.0,5.0,42,0.00,,SKC,0.00,VWS V13.01,2013-08-22 20:41:00,
2013-08-22 13:42:00,83.7,58.2,29.77,NW,321,6.0,7.0,42,0.00,,SKC,0.00,VWS V13.01,2013-08-22 20:42:00,
2013-08-22 13:43:00,83.9,57.7,29.77,NW,323,3.0,8.0,41,0.00,,SKC,0.00,VWS V13.01,2013-08-22 20:43:00,
2013-08-22 13:44:00,83.9,57.0,29.77,North,350,7.0,9.0,40,0.00,,SKC,0.00,VWS V13.01,2013-08-22 20:44:00,
2013-08-22 13:45:00,83.9,57.0,29.77,NNW,345,3.0,9.0,40,0.00,,SKC,0.00,VWS V13.01,2013-08-22 20:45:00,
2013-08-22 13:46:00,83.9,57.0,29.77,WSW,238,4.0,8.0,40,0.00,,SKC,0.00,VWS V13.01,2013-08-22 20:46:00,
2013-08-22 13:47:00,84.1,57.9,29.77,WSW,246,0.0,8.0,41,0.00,,SKC,0.00,VWS V13.01,2013-08-22 20:47:00,
2013-08-22 13:48:00,84.2,57.3,29.77,WSW,246,3.0,8.0,40,0.00,,SKC,0.00,VWS V13.01,2013-08-22 20:48:00,
2013-08-22 13:49:00,84.3,56.7,29.77,WSW,256,5.0,8.0,39,0.00,,SKC,0.00,VWS V13.01,2013-08-22 20:49:00,
2013-08-22 13:50:00,84.4,57.5,29.77,WSW,257,6.0,9.0,40,0.00,,SKC,0.00,VWS V13.01,2013-08-22 20:50:00,
2013-08-22 13:51:00,84.4,56.8,29.77,West,278,7.0,10.0,39,0.00,,SKC,0.00,VWS V13.01,2013-08-22 20:51:00,
2013-08-22 13:52:00,84.3,56.7,29.77,WNW,288,5.0,10.0,39,0.00,,SKC,0.00,VWS V13.01,2013-08-22 20:52:00,
2013-08-22 13:53:00,84.3,57.4,29.76,WNW,288,5.0,10.0,40,0.00,,SKC,0.00,VWS V13.01,2013-08-22 20:53:00,
2013-08-22 13:54:00,84.3,58.1,29.76,WNW,294,7.0,10.0,41,0.00,,SKC,0.00,VWS V13.01,2013-08-22 20:54:00,
2013-08-22 13:55:00,84.3,57.4,29.76,NW,315,4.0,10.0,40,0.00,,SKC,0.00,VWS V13.01,2013-08-22 20:55:00,
2013-08-22 13:56:00,84.4,57.5,29.76,NW,315,2.0,5.0,40,0.00,,SKC,0.00,VWS V13.01,2013-08-22 20:56:00,
2013-08-22 13:57:00,84.4,56.8,29.76,West,281,7.0,7.0,39,0.00,,SKC,0.00,VWS V13.01,2013-08-22 20:57:00,
2013-08-22 13:58:00,84.3,56.7,29.76,West,281,4.0,7.0,39,0.00,,SKC,0.00,VWS V13.01,2013-08-22 20:58:00,
2013-08-22 13:59:00,84.2,57.3,29.76,WNW,297,5.0,7.0,40,0.00,,SKC,0.00,VWS V13.01,2013-08-22 20:59:00,
2013-08-22 14:00:00,84.2,57.3,29.76,WNW,298,3.0,7.0,40,0.00,,SKC,0.00,VWS V13.01,2013-08-22 21:00:00,
2013-08-22 14:01:00,84.2,57.3,29.76,West,267,3.0,11.0,40,0.00,,SKC,0.00,VWS V13.01,2013-08-22 21:01:00,
2013-08-22 14:02:00,84.2,57.3,29.76,West,262,3.0,11.0,40,0.00,,SKC,0.00,VWS V13.01,2013-08-22 21:02:00,
2013-08-22 14:03:00,84.3,56.0,29.76,West,263,10.0,11.0,38,0.00,,SKC,0.00,VWS V13.01,2013-08-22 21:03:00,
2013-08-22 14:04:00,84.2,55.9,29.76,West,274,0.0,11.0,38,0.00,,SKC,0.00,VWS V13.01,2013-08-22 21:04:00,
2013-08-22 14:05:00,84.2,55.9,29.76,SW,235,2.0,11.0,38,0.00,,SKC,0.00,VWS V13.01,2013-08-22 21:05:00,
2013-08-22 14:06:00,84.3,56.0,29.76,SW,235,3.0,5.0,38,0.00,,SKC,0.00,VWS V13.01,2013-08-22 21:06:00,
2013-08-22 14:07:00,84.3,56.0,29.76,SW,234,0.0,5.0,38,0.00,,SKC,0.00,VWS V13.01,2013-08-22 21:07:00,
2013-08-22 14:08:00,84.4,56.0,29.76,SSW,210,1.0,6.0,38,0.00,,SKC,0.00,VWS V13.01,2013-08-22 21:08:00,
2013-08-22 14:09:00,84.5,56.8,29.76,SSW,210,4.0,6.0,39,0.00,,SKC,0.00,VWS V13.01,2013-08-22 21:09:00,
2013-08-22 14:10:00,84.7,57.0,29.76,WSW,246,4.0,6.0,39,0.00,,SKC,0.00,VWS V13.01,2013-08-22 21:10:00,
2013-08-22 14:11:00,84.9,56.5,29.76,WNW,284,5.0,7.0,38,0.00,,SKC,0.00,VWS V13.01,2013-08-22 21:11:00,
2013-08-22 14:12:00,85.0,57.3,29.76,NW,306,5.0,7.0,39,0.00,,SKC,0.00,VWS V13.01,2013-08-22 21:12:00,
2013-08-22 14:13:00,85.2,56.8,29.76,WNW,296,7.0,8.0,38,0.00,,SKC,0.00,VWS V13.01,2013-08-22 21:13:00,
2013-08-22 14:14:00,85.1,56.7,29.76,WNW,298,3.0,8.0,38,0.00,,SKC,0.00,VWS V13.01,2013-08-22 21:14:00,
2013-08-22 14:15:00,85.2,57.5,29.76,WNW,298,0.0,8.0,39,0.00,,SKC,0.00,VWS V13.01,2013-08-22 21:15:00,
2013-08-22 14:16:00,85.2,56.8,29.76,NW,317,8.0,10.0,38,0.00,,SKC,0.00,VWS V13.01,2013-08-22 21:16:00,
2013-08-22 14:17:00,85.1,56.7,29.76,WNW,302,2.0,10.0,38,0.00,,SKC,0.00,VWS V13.01,2013-08-22 21:17:00,
2013-08-22 14:18:00,85.0,55.8,29.76,WNW,302,1.0,10.0,37,0.00,,SKC,0.00,VWS V13.01,2013-08-22 21:18:00,
2013-08-22 14:19:00,85.0,57.3,29.75,WNW,302,2.0,10.0,39,0.00,,SKC,0.00,VWS V13.01,2013-08-22 21:19:00,
2013-08-22 14:20:00,85.1,55.9,29.75,WNW,302,0.0,10.0,37,0.00,,SKC,0.00,VWS V13.01,2013-08-22 21:20:00,
2013-08-22 14:21:00,85.1,55.9,29.75,WNW,302,0.0,2.0,37,0.00,,SKC,0.00,VWS V13.01,2013-08-22 21:21:00,
2013-08-22 14:22:00,85.2,56.0,29.75,WNW,302,0.0,3.0,37,0.00,,SKC,0.00,VWS V13.01,2013-08-22 21:22:00,
2013-08-22 14:23:00,85.3,56.1,29.75,WNW,302,3.0,3.0,37,0.00,,SKC,0.00,VWS V13.01,2013-08-22 21:23:00,
2013-08-22 14:24:00,85.4,57.7,29.75,WNW,299,3.0,10.0,39,0.00,,SKC,0.00,VWS V13.01,2013-08-22 21:24:00,
2013-08-22 14:25:00,85.4,56.2,29.75,WNW,286,5.0,10.0,37,0.00,,SKC,0.00,VWS V13.01,2013-08-22 21:25:00,
2013-08-22 14:26:00,85.3,56.8,29.75,WNW,298,2.0,9.0,38,0.00,,SKC,0.00,VWS V13.01,2013-08-22 21:26:00,
2013-08-22 14:27:00,85.4,56.2,29.75,WNW,298,5.0,9.0,37,0.00,,SKC,0.00,VWS V13.01,2013-08-22 21:27:00,
2013-08-22 14:28:00,85.4,56.2,29.75,WNW,298,0.0,9.0,37,0.00,,SKC,0.00,VWS V13.01,2013-08-22 21:28:00,
2013-08-22 14:29:00,85.3,56.1,29.75,WNW,298,0.0,9.0,37,0.00,,SKC,0.00,VWS V13.01,2013-08-22 21:29:00,
2013-08-22 14:30:00,85.4,56.2,29.75,WNW,298,1.0,9.0,37,0.00,,SKC,0.00,VWS V13.01,2013-08-22 21:30:00,
2013-08-22 14:31:00,85.4,56.2,29.75,WNW,296,3.0,6.0,37,0.00,,SKC,0.00,VWS V13.01,2013-08-22 21:31:00,
2013-08-22 14:32:00,85.3,56.1,29.75,WNW,296,4.0,6.0,37,0.00,,SKC,0.00,VWS V13.01,2013-08-22 21:32:00,
2013-08-22 14:33:00,85.3,56.1,29.75,NW,319,1.0,6.0,37,0.00,,SKC,0.00,VWS V13.01,2013-08-22 21:33:00,
2013-08-22 14:34:00,85.3,56.1,29.75,NW,319,0.0,6.0,37,0.00,,SKC,0.00,VWS V13.01,2013-08-22 21:34:00,
2013-08-22 14:35:00,85.3,56.1,29.75,NW,319,0.0,6.0,37,0.00,,SKC,0.00,VWS V13.01,2013-08-22 21:35:00,
2013-08-22 14:36:00,85.4,56.2,29.75,South,190,3.0,8.0,37,0.00,,SKC,0.00,VWS V13.01,2013-08-22 21:36:00,
2013-08-22 14:37:00,85.4,55.4,29.75,SW,227,7.0,9.0,36,0.00,,SKC,0.00,VWS V13.01,2013-08-22 21:37:00,
2013-08-22 14:38:00,85.4,55.4,29.75,West,271,5.0,9.0,36,0.00,,SKC,0.00,VWS V13.01,2013-08-22 21:38:00,
2013-08-22 14:39:00,85.3,55.3,29.75,West,269,0.0,9.0,36,0.00,,SKC,0.00,VWS V13.01,2013-08-22 21:39:00,
2013-08-22 14:40:00,85.4,55.4,29.75,WNW,303,4.0,9.0,36,0.00,,SKC,0.00,VWS V13.01,2013-08-22 21:40:00,
2013-08-22 14:41:00,85.4,55.4,29.75,SW,236,7.0,7.0,36,0.00,,SKC,0.00,VWS V13.01,2013-08-22 21:41:00,
2013-08-22 14:42:00,85.5,55.5,29.75,WNW,287,4.0,10.0,36,0.00,,SKC,0.00,VWS V13.01,2013-08-22 21:42:00,
2013-08-22 14:43:00,85.6,55.6,29.75,West,265,0.0,10.0,36,0.00,,SKC,0.00,VWS V13.01,2013-08-22 21:43:00,
2013-08-22 14:44:00,85.6,55.6,29.75,West,265,1.0,10.0,36,0.00,,SKC,0.00,VWS V13.01,2013-08-22 21:44:00,
2013-08-22 14:45:00,85.7,55.7,29.75,West,265,1.0,10.0,36,0.00,,SKC,0.00,VWS V13.01,2013-08-22 21:45:00,
2013-08-22 14:46:00,85.8,55.8,29.74,West,273,3.0,9.0,36,0.00,,SKC,0.00,VWS V13.01,2013-08-22 21:46:00,
2013-08-22 14:47:00,85.8,55.8,29.74,West,273,0.0,9.0,36,0.00,,SKC,0.00,VWS V13.01,2013-08-22 21:47:00,
2013-08-22 14:48:00,85.9,55.1,29.75,West,272,0.0,9.0,35,0.00,,SKC,0.00,VWS V13.01,2013-08-22 21:48:00,
2013-08-22 14:49:00,85.9,55.1,29.75,West,272,0.0,9.0,35,0.00,,SKC,0.00,VWS V13.01,2013-08-22 21:49:00,
2013-08-22 14:50:00,86.0,56.0,29.75,West,281,6.0,10.0,36,0.00,,SKC,0.00,VWS V13.01,2013-08-22 21:50:00,
2013-08-22 14:51:00,86.0,55.2,29.74,West,277,3.0,8.0,35,0.00,,SKC,0.00,VWS V13.01,2013-08-22 21:51:00,
2013-08-22 14:52:00,86.0,55.2,29.74,West,277,0.0,8.0,35,0.00,,SKC,0.00,VWS V13.01,2013-08-22 21:52:00,
2013-08-22 14:53:00,86.0,55.2,29.74,SSW,202,5.0,8.0,35,0.00,,SKC,0.00,VWS V13.01,2013-08-22 21:53:00,
2013-08-22 14:54:00,86.0,55.2,29.74,SSW,203,0.0,8.0,35,0.00,,SKC,0.00,VWS V13.01,2013-08-22 21:54:00,
2013-08-22 14:55:00,86.1,54.5,29.74,SSW,203,5.0,8.0,34,0.00,,SKC,0.00,VWS V13.01,2013-08-22 21:55:00,
2013-08-22 14:56:00,86.0,54.4,29.74,SW,219,5.0,9.0,34,0.00,,SKC,0.00,VWS V13.01,2013-08-22 21:56:00,
2013-08-22 14:57:00,85.9,54.3,29.74,WSW,241,2.0,9.0,34,0.00,,SKC,0.00,VWS V13.01,2013-08-22 21:57:00,
2013-08-22 14:58:00,85.9,54.3,29.74,WSW,241,3.0,9.0,34,0.00,,SKC,0.00,VWS V13.01,2013-08-22 21:58:00,
2013-08-22 14:59:00,85.9,55.1,29.74,WSW,241,5.0,9.0,35,0.00,,SKC,0.00,VWS V13.01,2013-08-22 21:59:00,
2013-08-22 15:00:00,85.8,54.2,29.74,SW,234,3.0,9.0,34,0.00,,SKC,0.00,VWS V13.01,2013-08-22 22:00:00,
2013-08-22 15:01:00,85.8,54.2,29.74,SW,216,5.0,6.0,34,0.00,,SKC,0.00,VWS V13.01,2013-08-22 22:01:00,
2013-08-22 15:02:00,85.7,55.7,29.74,SW,216,1.0,6.0,36,0.00,,SKC,0.00,VWS V13.01,2013-08-22 22:02:00,
2013-08-22 15:03:00,85.8,55.8,29.74,WNW,284,5.0,6.0,36,0.00,,SKC,0.00,VWS V13.01,2013-08-22 22:03:00,
2013-08-22 15:04:00,85.9,55.1,29.74,WNW,284,3.0,6.0,35,0.00,,SKC,0.00,VWS V13.01,2013-08-22 22:04:00,
2013-08-22 15:05:00,86.0,55.2,29.74,WNW,284,0.0,6.0,35,0.00,,SKC,0.00,VWS V13.01,2013-08-22 22:05:00,
2013-08-22 15:06:00,86.2,56.9,29.74,WNW,284,0.0,3.0,37,0.00,,SKC,0.00,VWS V13.01,2013-08-22 22:06:00,
2013-08-22 15:07:00,86.4,55.5,29.74,WNW,296,5.0,9.0,35,0.00,,SKC,0.00,VWS V13.01,2013-08-22 22:07:00,
2013-08-22 15:08:00,86.5,55.6,29.74,WNW,297,5.0,9.0,35,0.00,,SKC,0.00,VWS V13.01,2013-08-22 22:08:00,
2013-08-22 15:09:00,86.5,55.6,29.74,WNW,297,2.0,9.0,35,0.00,,SKC,0.00,VWS V13.01,2013-08-22 22:09:00,
2013-08-22 15:10:00,86.6,56.5,29.74,WNW,297,0.0,9.0,36,0.00,,SKC,0.00,VWS V13.01,2013-08-22 22:10:00,
2013-08-22 15:11:00,86.6,55.7,29.74,WNW,297,0.0,0.0,35,0.00,,SKC,0.00,VWS V13.01,2013-08-22 22:11:00,
2013-08-22 15:12:00,86.7,55.8,29.74,WNW,296,5.0,5.0,35,0.00,,SKC,0.00,VWS V13.01,2013-08-22 22:12:00,
2013-08-22 15:13:00,86.7,55.8,29.74,WNW,296,1.0,5.0,35,0.00,,SKC,0.00,VWS V13.01,2013-08-22 22:13:00,
2013-08-22 15:14:00,86.8,56.7,29.74,NW,323,6.0,7.0,36,0.00,,SKC,0.00,VWS V13.01,2013-08-22 22:14:00,
2013-08-22 15:15:00,86.9,55.2,29.74,WNW,294,4.0,7.0,34,0.00,,SKC,0.00,VWS V13.01,2013-08-22 22:15:00,
2013-08-22 15:16:00,87.0,56.1,29.74,WNW,294,5.0,6.0,35,0.00,,SKC,0.00,VWS V13.01,2013-08-22 22:16:00,
2013-08-22 15:17:00,87.1,55.4,29.74,WNW,294,4.0,6.0,34,0.00,,SKC,0.00,VWS V13.01,2013-08-22 22:17:00,
2013-08-22 15:18:00,87.1,55.4,29.74,WNW,294,3.0,6.0,34,0.00,,SKC,0.00,VWS V13.01,2013-08-22 22:18:00,
2013-08-22 15:19:00,87.1,55.4,29.74,West,271,1.0,8.0,34,0.00,,SKC,0.00,VWS V13.01,2013-08-22 22:19:00,
2013-08-22 15:20:00,87.1,54.5,29.74,West,271,3.0,8.0,33,0.00,,SKC,0.00,VWS V13.01,2013-08-22 22:20:00,
2013-08-22 15:21:00,86.9,54.4,29.74,West,265,2.0,5.0,33,0.00,,SKC,0.00,VWS V13.01,2013-08-22 22:21:00,
2013-08-22 15:22:00,86.8,55.1,29.74,West,265,2.0,5.0,34,0.00,,SKC,0.00,VWS V13.01,2013-08-22 22:22:00,
2013-08-22 15:23:00,86.8,54.3,29.73,West,265,0.0,5.0,33,0.00,,SKC,0.00,VWS V13.01,2013-08-22 22:23:00,
2013-08-22 15:24:00,86.8,54.3,29.73,West,265,0.0,5.0,33,0.00,,SKC,0.00,VWS V13.01,2013-08-22 22:24:00,
2013-08-22 15:25:00,86.9,55.2,29.73,West,265,4.0,7.0,34,0.00,,SKC,0.00,VWS V13.01,2013-08-22 22:25:00,
2013-08-22 15:26:00,87.1,55.4,29.73,WNW,283,5.0,5.0,34,0.00,,SKC,0.00,VWS V13.01,2013-08-22 22:26:00,
2013-08-22 15:27:00,87.1,54.5,29.74,WNW,283,4.0,5.0,33,0.00,,SKC,0.00,VWS V13.01,2013-08-22 22:27:00,
2013-08-22 15:28:00,87.2,54.6,29.73,WNW,283,0.0,5.0,33,0.00,,SKC,0.00,VWS V13.01,2013-08-22 22:28:00,
2013-08-22 15:29:00,87.4,54.8,29.73,WNW,283,0.0,5.0,33,0.00,,SKC,0.00,VWS V13.01,2013-08-22 22:29:00,
2013-08-22 15:30:00,87.5,55.7,29.73,West,279,3.0,6.0,34,0.00,,SKC,0.00,VWS V13.01,2013-08-22 22:30:00,
2013-08-22 15:31:00,87.6,55.8,29.73,West,279,0.0,3.0,34,0.00,,SKC,0.00,VWS V13.01,2013-08-22 22:31:00,
2013-08-22 15:32:00,87.7,55.1,29.73,West,279,4.0,4.0,33,0.00,,SKC,0.00,VWS V13.01,2013-08-22 22:32:00,
2013-08-22 15:33:00,87.8,56.0,29.73,West,275,0.0,5.0,34,0.00,,SKC,0.00,VWS V13.01,2013-08-22 22:33:00,
2013-08-22 15:34:00,87.8,55.2,29.73,West,275,0.0,5.0,33,0.00,,SKC,0.00,VWS V13.01,2013-08-22 22:34:00,
2013-08-22 15:35:00,87.8,55.2,29.73,West,275,0.0,5.0,33,0.00,,SKC,0.00,VWS V13.01,2013-08-22 22:35:00,
2013-08-22 15:36:00,87.9,55.2,29.73,WNW,284,5.0,6.0,33,0.00,,SKC,0.00,VWS V13.01,2013-08-22 22:36:00,
2013-08-22 15:37:00,87.9,55.2,29.73,NNW,331,2.0,6.0,33,0.00,,SKC,0.00,VWS V13.01,2013-08-22 22:37:00,
2013-08-22 15:38:00,87.9,55.2,29.73,NNW,330,4.0,6.0,33,0.00,,SKC,0.00,VWS V13.01,2013-08-22 22:38:00,
2013-08-22 15:39:00,87.9,55.2,29.73,NNW,330,0.0,6.0,33,0.00,,SKC,0.00,VWS V13.01,2013-08-22 22:39:00,
2013-08-22 15:40:00,87.9,55.2,29.73,WNW,296,4.0,6.0,33,0.00,,SKC,0.00,VWS V13.01,2013-08-22 22:40:00,
2013-08-22 15:41:00,87.7,54.2,29.73,WNW,288,7.0,9.0,32,0.00,,SKC,0.00,VWS V13.01,2013-08-22 22:41:00,
2013-08-22 15:42:00,87.5,54.0,29.72,WNW,288,2.0,9.0,32,0.00,,SKC,0.00,VWS V13.01,2013-08-22 22:42:00,
2013-08-22 15:43:00,87.4,54.0,29.73,WNW,288,3.0,9.0,32,0.00,,SKC,0.00,VWS V13.01,2013-08-22 22:43:00,
2013-08-22 15:44:00,87.4,53.1,29.73,WNW,288,3.0,9.0,31,0.00,,SKC,0.00,VWS V13.01,2013-08-22 22:44:00,
2013-08-22 15:45:00,87.4,54.0,29.73,West,266,5.0,9.0,32,0.00,,SKC,0.00,VWS V13.01,2013-08-22 22:45:00,
2013-08-22 15:46:00,87.5,54.0,29.73,West,273,6.0,6.0,32,0.00,,SKC,0.00,VWS V13.01,2013-08-22 22:46:00,
2013-08-22 15:47:00,87.5,53.2,29.73,West,273,4.0,7.0,31,0.00,,SKC,0.00,VWS V13.01,2013-08-22 22:47:00,
2013-08-22 15:48:00,87.5,53.2,29.72,West,273,0.0,7.0,31,0.00,,SKC,0.00,VWS V13.01,2013-08-22 22:48:00,
2013-08-22 15:49:00,87.5,53.2,29.72,West,281,3.0,7.0,31,0.00,,SKC,0.00,VWS V13.01,2013-08-22 22:49:00,
2013-08-22 15:50:00,87.5,54.0,29.72,West,281,3.0,7.0,32,0.00,,SKC,0.00,VWS V13.01,2013-08-22 22:50:00,
2013-08-22 15:51:00,87.6,53.3,29.72,WNW,300,1.0,4.0,31,0.00,,SKC,0.00,VWS V13.01,2013-08-22 22:51:00,
2013-08-22 15:52:00,87.7,54.2,29.72,WNW,300,2.0,4.0,32,0.00,,SKC,0.00,VWS V13.01,2013-08-22 22:52:00,
2013-08-22 15:53:00,87.9,55.2,29.72,WNW,299,2.0,6.0,33,0.00,,SKC,0.00,VWS V13.01,2013-08-22 22:53:00,
2013-08-22 15:54:00,88.0,55.3,29.72,WNW,298,0.0,6.0,33,0.00,,SKC,0.00,VWS V13.01,2013-08-22 22:54:00,
2013-08-22 15:55:00,88.1,54.6,29.72,WNW,298,5.0,6.0,32,0.00,,SKC,0.00,VWS V13.01,2013-08-22 22:55:00,
2013-08-22 15:56:00,88.2,54.7,29.72,WNW,298,2.0,5.0,32,0.00,,SKC,0.00,VWS V13.01,2013-08-22 22:56:00,
2013-08-22 15:57:00,88.1,54.6,29.72,WNW,298,0.0,5.0,32,0.00,,SKC,0.00,VWS V13.01,2013-08-22 22:57:00,
2013-08-22 15:58:00,88.1,54.6,29.72,WNW,298,0.0,5.0,32,0.00,,SKC,0.00,VWS V13.01,2013-08-22 22:58:00,
2013-08-22 15:59:00,88.1,55.4,29.72,WNW,298,0.0,5.0,33,0.00,,SKC,0.00,VWS V13.01,2013-08-22 22:59:00,
2013-08-22 16:00:00,88.2,56.3,29.72,WNW,298,0.0,5.0,34,0.00,,SKC,0.00,VWS V13.01,2013-08-22 23:00:00,
2013-08-22 16:01:00,88.3,55.6,29.72,WNW,303,0.0,2.0,33,0.00,,SKC,0.00,VWS V13.01,2013-08-22 23:01:00,
2013-08-22 16:02:00,88.4,56.5,29.72,WNW,303,3.0,5.0,34,0.00,,SKC,0.00,VWS V13.01,2013-08-22 23:02:00,
2013-08-22 16:03:00,88.4,54.8,29.72,WNW,303,0.0,5.0,32,0.00,,SKC,0.00,VWS V13.01,2013-08-22 23:03:00,
2013-08-22 16:04:00,88.5,54.9,29.72,WNW,302,5.0,5.0,32,0.00,,SKC,0.00,VWS V13.01,2013-08-22 23:04:00,
2013-08-22 16:05:00,88.5,55.8,29.72,WNW,302,5.0,7.0,33,0.00,,SKC,0.00,VWS V13.01,2013-08-22 23:05:00,
2013-08-22 16:06:00,88.6,55.0,29.72,WNW,286,0.0,6.0,32,0.00,,SKC,0.00,VWS V13.01,2013-08-22 23:06:00,
2013-08-22 16:07:00,88.6,55.8,29.72,WNW,286,1.0,6.0,33,0.00,,SKC,0.00,VWS V13.01,2013-08-22 23:07:00,
2013-08-22 16:08:00,88.7,55.9,29.72,WNW,286,3.0,6.0,33,0.00,,SKC,0.00,VWS V13.01,2013-08-22 23:08:00,
2013-08-22 16:09:00,88.7,55.1,29.72,WNW,286,2.0,6.0,32,0.00,,SKC,0.00,VWS V13.01,2013-08-22 23:09:00,
2013-08-22 16:10:00,88.8,55.2,29.72,WNW,286,1.0,6.0,32,0.00,,SKC,0.00,VWS V13.01,2013-08-22 23:10:00,
2013-08-22 16:11:00,88.8,55.2,29.72,WNW,286,2.0,3.0,32,0.00,,SKC,0.00,VWS V13.01,2013-08-22 23:11:00,
2013-08-22 16:12:00,88.7,55.1,29.72,SW,223,5.0,6.0,32,0.00,,SKC,0.00,VWS V13.01,2013-08-22 23:12:00,
2013-08-22 16:13:00,88.7,55.9,29.72,WSW,239,4.0,6.0,33,0.00,,SKC,0.00,VWS V13.01,2013-08-22 23:13:00,
2013-08-22 16:14:00,88.6,55.0,29.72,West,275,5.0,6.0,32,0.00,,SKC,0.00,VWS V13.01,2013-08-22 23:14:00,
2013-08-22 16:15:00,88.6,55.8,29.72,West,275,3.0,6.0,33,0.00,,SKC,0.00,VWS V13.01,2013-08-22 23:15:00,
2013-08-22 16:16:00,88.6,55.8,29.72,West,275,0.0,3.0,33,0.00,,SKC,0.00,VWS V13.01,2013-08-22 23:16:00,
2013-08-22 16:17:00,88.6,55.8,29.72,West,272,5.0,7.0,33,0.00,,SKC,0.00,VWS V13.01,2013-08-22 23:17:00,
2013-08-22 16:18:00,88.6,55.0,29.72,West,275,4.0,7.0,32,0.00,,SKC,0.00,VWS V13.01,2013-08-22 23:18:00,
2013-08-22 16:19:00,88.5,54.9,29.72,WNW,282,0.0,7.0,32,0.00,,SKC,0.00,VWS V13.01,2013-08-22 23:19:00,
2013-08-22 16:20:00,88.4,54.8,29.72,WNW,282,3.0,7.0,32,0.00,,SKC,0.00,VWS V13.01,2013-08-22 23:20:00,
2013-08-22 16:21:00,88.3,54.7,29.72,North,355,3.0,5.0,32,0.00,,SKC,0.00,VWS V13.01,2013-08-22 23:21:00,
2013-08-22 16:22:00,88.3,55.6,29.72,NNW,329,2.0,7.0,33,0.00,,SKC,0.00,VWS V13.01,2013-08-22 23:22:00,
2013-08-22 16:23:00,88.2,55.5,29.72,NNW,329,4.0,7.0,33,0.00,,SKC,0.00,VWS V13.01,2013-08-22 23:23:00,
2013-08-22 16:24:00,88.2,57.1,29.72,NNW,329,4.0,7.0,35,0.00,,SKC,0.00,VWS V13.01,2013-08-22 23:24:00,
2013-08-22 16:25:00,88.2,56.3,29.72,NNW,329,2.0,7.0,34,0.00,,SKC,0.00,VWS V13.01,2013-08-22 23:25:00,
2013-08-22 16:26:00,88.2,54.7,29.72,NNW,329,0.0,2.0,32,0.00,,SKC,0.00,VWS V13.01,2013-08-22 23:26:00,
2013-08-22 16:27:00,88.2,54.7,29.72,NNW,329,0.0,5.0,32,0.00,,SKC,0.00,VWS V13.01,2013-08-22 23:27:00,
2013-08-22 16:28:00,88.2,54.7,29.72,NNW,329,3.0,5.0,32,0.00,,SKC,0.00,VWS V13.01,2013-08-22 23:28:00,
2013-08-22 16:29:00,88.1,54.6,29.71,NNW,329,0.0,5.0,32,0.00,,SKC,0.00,VWS V13.01,2013-08-22 23:29:00,
2013-08-22 16:30:00,88.1,55.4,29.72,WSW,257,5.0,5.0,33,0.00,,SKC,0.00,VWS V13.01,2013-08-22 23:30:00,
2013-08-22 16:31:00,88.1,54.6,29.72,SW,234,0.0,7.0,32,0.00,,SKC,0.00,VWS V13.01,2013-08-22 23:31:00,
2013-08-22 16:32:00,88.1,54.6,29.72,SW,232,4.0,7.0,32,0.00,,SKC,0.00,VWS V13.01,2013-08-22 23:32:00,
2013-08-22 16:33:00,88.1,53.7,29.72,SW,232,0.0,7.0,31,0.00,,SKC,0.00,VWS V13.01,2013-08-22 23:33:00,
2013-08-22 16:34:00,88.0,54.5,29.72,WSW,257,2.0,7.0,32,0.00,,SKC,0.00,VWS V13.01,2013-08-22 23:34:00,
2013-08-22 16:35:00,88.0,53.6,29.72,WSW,257,2.0,7.0,31,0.00,,SKC,0.00,VWS V13.01,2013-08-22 23:35:00,
2013-08-22 16:36:00,88.0,54.5,29.72,WSW,257,3.0,7.0,32,0.00,,SKC,0.00,VWS V13.01,2013-08-22 23:36:00,
2013-08-22 16:37:00,87.9,53.5,29.72,WSW,257,4.0,7.0,31,0.00,,SKC,0.00,VWS V13.01,2013-08-22 23:37:00,
2013-08-22 16:38:00,87.9,53.5,29.71,West,263,0.0,7.0,31,0.00,,SKC,0.00,VWS V13.01,2013-08-22 23:38:00,
2013-08-22 16:39:00,87.9,54.4,29.71,West,260,4.0,7.0,32,0.00,,SKC,0.00,VWS V13.01,2013-08-22 23:39:00,
2013-08-22 16:40:00,87.8,55.2,29.71,WSW,240,4.0,7.0,33,0.00,,SKC,0.00,VWS V13.01,2013-08-22 23:40:00,
2013-08-22 16:41:00,87.8,54.3,29.72,WSW,240,2.0,6.0,32,0.00,,SKC,0.00,VWS V13.01,2013-08-22 23:41:00,
2013-08-22 16:42:00,87.8,55.2,29.71,WSW,240,0.0,6.0,33,0.00,,SKC,0.00,VWS V13.01,2013-08-22 23:42:00,
2013-08-22 16:43:00,87.9,55.2,29.71,SW,223,6.0,9.0,33,0.00,,SKC,0.00,VWS V13.01,2013-08-22 23:43:00,
2013-08-22 16:44:00,87.9,54.4,29.71,SW,229,1.0,9.0,32,0.00,,SKC,0.00,VWS V13.01,2013-08-22 23:44:00,
2013-08-22 16:45:00,87.9,54.4,29.71,WSW,241,5.0,9.0,32,0.00,,SKC,0.00,VWS V13.01,2013-08-22 23:45:00,
2013-08-22 16:46:00,87.9,54.4,29.71,WSW,240,1.0,5.0,32,0.00,,SKC,0.00,VWS V13.01,2013-08-22 23:46:00,
2013-08-22 16:47:00,87.9,54.4,29.71,WSW,239,4.0,6.0,32,0.00,,SKC,0.00,VWS V13.01,2013-08-22 23:47:00,
2013-08-22 16:48:00,87.8,54.3,29.71,SW,236,1.0,6.0,32,0.00,,SKC,0.00,VWS V13.01,2013-08-22 23:48:00,
2013-08-22 16:49:00,87.7,54.2,29.71,SW,223,0.0,6.0,32,0.00,,SKC,0.00,VWS V13.01,2013-08-22 23:49:00,
2013-08-22 16:50:00,87.6,54.1,29.71,SW,225,1.0,6.0,32,0.00,,SKC,0.00,VWS V13.01,2013-08-22 23:50:00,
2013-08-22 16:51:00,87.7,55.1,29.71,WSW,247,1.0,4.0,33,0.00,,SKC,0.00,VWS V13.01,2013-08-22 23:51:00,
2013-08-22 16:52:00,87.7,54.2,29.71,West,268,5.0,7.0,32,0.00,,SKC,0.00,VWS V13.01,2013-08-22 23:52:00,
2013-08-22 16:53:00,87.7,54.2,29.71,SW,232,4.0,7.0,32,0.00,,SKC,0.00,VWS V13.01,2013-08-22 23:53:00,
2013-08-22 16:54:00,87.7,53.3,29.71,SW,232,4.0,7.0,31,0.00,,SKC,0.00,VWS V13.01,2013-08-22 23:54:00,
2013-08-22 16:55:00,87.6,54.1,29.71,SW,233,4.0,7.0,32,0.00,,SKC,0.00,VWS V13.01,2013-08-22 23:55:00,
2013-08-22 16:56:00,87.7,54.2,29.71,SW,233,5.0,6.0,32,0.00,,SKC,0.00,VWS V13.01,2013-08-22 23:56:00,
2013-08-22 16:57:00,87.7,54.2,29.71,SW,221,3.0,7.0,32,0.00,,SKC,0.00,VWS V13.01,2013-08-22 23:57:00,
2013-08-22 16:58:00,87.7,54.2,29.71,SW,221,4.0,7.0,32,0.00,,SKC,0.00,VWS V13.01,2013-08-22 23:58:00,
2013-08-22 16:59:00,87.7,54.2,29.71,SW,225,5.0,7.0,32,0.00,,SKC,0.00,VWS V13.01,2013-08-22 23:59:00,
2013-08-22 17:00:00,87.6,54.1,29.71,SW,229,3.0,9.0,32,0.00,,SKC,0.00,VWS V13.01,2013-08-23 00:00:00,
2013-08-22 17:01:00,87.6,54.1,29.71,SW,229,2.0,4.0,32,0.00,,SKC,0.00,VWS V13.01,2013-08-23 00:01:00,
2013-08-22 17:02:00,87.7,55.1,29.72,SW,229,2.0,4.0,33,0.00,,SKC,0.00,VWS V13.01,2013-08-23 00:02:00,
2013-08-22 17:03:00,87.7,55.9,29.72,WSW,240,4.0,6.0,34,0.00,,SKC,0.00,VWS V13.01,2013-08-23 00:03:00,
2013-08-22 17:04:00,87.7,55.1,29.71,SW,235,4.0,6.0,33,0.00,,SKC,0.00,VWS V13.01,2013-08-23 00:04:00,
2013-08-22 17:05:00,87.7,55.1,29.71,WSW,247,4.0,6.0,33,0.00,,SKC,0.00,VWS V13.01,2013-08-23 00:05:00,
2013-08-22 17:06:00,87.6,54.1,29.71,WSW,246,4.0,5.0,32,0.00,,SKC,0.00,VWS V13.01,2013-08-23 00:06:00,
2013-08-22 17:07:00,87.5,54.0,29.71,WSW,246,3.0,5.0,32,0.00,,SKC,0.00,VWS V13.01,2013-08-23 00:07:00,
2013-08-22 17:08:00,87.5,54.0,29.71,WNW,288,10.0,10.0,32,0.00,,SKC,0.00,VWS V13.01,2013-08-23 00:08:00,
2013-08-22 17:09:00,87.5,54.9,29.71,WNW,283,2.0,11.0,33,0.00,,SKC,0.00,VWS V13.01,2013-08-23 00:09:00,
2013-08-22 17:10:00,87.5,54.0,29.71,West,281,3.0,11.0,32,0.00,,SKC,0.00,VWS V13.01,2013-08-23 00:10:00,
2013-08-22 17:11:00,87.6,54.1,29.71,West,263,4.0,5.0,32,0.00,,SKC,0.00,VWS V13.01,2013-08-23 00:11:00,
2013-08-22 17:12:00,87.6,54.1,29.71,SW,222,7.0,7.0,32,0.00,,SKC,0.00,VWS V13.01,2013-08-23 00:12:00,
2013-08-22 17:13:00,87.6,54.1,29.71,WSW,241,5.0,8.0,32,0.00,,SKC,0.00,VWS V13.01,2013-08-23 00:13:00,
2013-08-22 17:14:00,87.5,53.2,29.71,WSW,246,3.0,8.0,31,0.00,,SKC,0.00,VWS V13.01,2013-08-23 00:14:00,
2013-08-22 17:15:00,87.5,54.0,29.71,WSW,246,0.0,8.0,32,0.00,,SKC,0.00,VWS V13.01,2013-08-23 00:15:00,
2013-08-22 17:16:00,87.4,54.0,29.71,SW,227,9.0,9.0,32,0.00,,SKC,0.00,VWS V13.01,2013-08-23 00:16:00,
2013-08-22 17:17:00,87.3,53.9,29.71,SW,217,6.0,9.0,32,0.00,,SKC,0.00,VWS V13.01,2013-08-23 00:17:00,
2013-08-22 17:18:00,87.3,54.7,29.71,West,273,0.0,9.0,33,0.00,,SKC,0.00,VWS V13.01,2013-08-23 00:18:00,
2013-08-22 17:19:00,87.3,53.9,29.71,West,268,4.0,9.0,32,0.00,,SKC,0.00,VWS V13.01,2013-08-23 00:19:00,
2013-08-22 17:20:00,87.3,53.9,29.71,West,269,4.0,9.0,32,0.00,,SKC,0.00,VWS V13.01,2013-08-23 00:20:00,
2013-08-22 17:21:00,87.3,53.9,29.71,West,269,0.0,4.0,32,0.00,,SKC,0.00,VWS V13.01,2013-08-23 00:21:00,
2013-08-22 17:22:00,87.2,53.8,29.71,WNW,300,5.0,9.0,32,0.00,,SKC,0.00,VWS V13.01,2013-08-23 00:22:00,
2013-08-22 17:23:00,87.2,54.6,29.71,WNW,286,7.0,9.0,33,0.00,,SKC,0.00,VWS V13.01,2013-08-23 00:23:00,
2013-08-22 17:24:00,87.2,53.8,29.71,WNW,290,7.0,10.0,32,0.00,,SKC,0.00,VWS V13.01,2013-08-23 00:24:00,
2013-08-22 17:25:00,87.2,53.8,29.71,WNW,289,0.0,10.0,32,0.00,,SKC,0.00,VWS V13.01,2013-08-23 00:25:00,
2013-08-22 17:26:00,87.2,53.8,29.71,WNW,289,2.0,4.0,32,0.00,,SKC,0.00,VWS V13.01,2013-08-23 00:26:00,
2013-08-22 17:27:00,87.2,52.9,29.71,West,278,3.0,6.0,31,0.00,,SKC,0.00,VWS V13.01,2013-08-23 00:27:00,
2013-08-22 17:28:00,87.3,53.9,29.71,West,278,2.0,6.0,32,0.00,,SKC,0.00,VWS V13.01,2013-08-23 00:28:00,
2013-08-22 17:29:00,87.3,53.0,29.71,West,278,4.0,6.0,31,0.00,,SKC,0.00,VWS V13.01,2013-08-23 00:29:00,
2013-08-22 17:30:00,87.3,53.0,29.71,West,270,2.0,7.0,31,0.00,,SKC,0.00,VWS V13.01,2013-08-23 00:30:00,
2013-08-22 17:31:00,87.3,53.0,29.71,West,270,2.0,4.0,31,0.00,,SKC,0.00,VWS V13.01,2013-08-23 00:31:00,
2013-08-22 17:32:00,87.3,53.0,29.71,WNW,290,1.0,9.0,31,0.00,,SKC,0.00,VWS V13.01,2013-08-23 00:32:00,
2013-08-22 17:33:00,87.3,53.0,29.71,WNW,290,1.0,9.0,31,0.00,,SKC,0.00,VWS V13.01,2013-08-23 00:33:00,
2013-08-22 17:34:00,87.3,52.1,29.71,WNW,286,3.0,9.0,30,0.00,,SKC,0.00,VWS V13.01,2013-08-23 00:34:00,
2013-08-22 17:35:00,87.3,53.0,29.71,WNW,285,0.0,9.0,31,0.00,,SKC,0.00,VWS V13.01,2013-08-23 00:35:00,
2013-08-22 17:36:00,87.3,53.0,29.71,WNW,295,7.0,7.0,31,0.00,,SKC,0.00,VWS V13.01,2013-08-23 00:36:00,
2013-08-22 17:37:00,87.2,52.9,29.71,WNW,294,4.0,10.0,31,0.00,,SKC,0.00,VWS V13.01,2013-08-23 00:37:00,
2013-08-22 17:38:00,87.1,52.8,29.71,WNW,294,5.0,10.0,31,0.00,,SKC,0.00,VWS V13.01,2013-08-23 00:38:00,
2013-08-22 17:39:00,87.1,53.7,29.71,WNW,294,3.0,10.0,32,0.00,,SKC,0.00,VWS V13.01,2013-08-23 00:39:00,
2013-08-22 17:40:00,87.1,52.8,29.71,West,261,0.0,10.0,31,0.00,,SKC,0.00,VWS V13.01,2013-08-23 00:40:00,
2013-08-22 17:41:00,87.1,53.7,29.71,West,261,0.0,2.0,32,0.00,,SKC,0.00,VWS V13.01,2013-08-23 00:41:00,
2013-08-22 17:42:00,87.1,53.7,29.71,West,261,5.0,5.0,32,0.00,,SKC,0.00,VWS V13.01,2013-08-23 00:42:00,
2013-08-22 17:43:00,87.1,53.7,29.71,West,259,5.0,5.0,32,0.00,,SKC,0.00,VWS V13.01,2013-08-23 00:43:00,
2013-08-22 17:44:00,87.1,53.7,29.71,WSW,240,4.0,5.0,32,0.00,,SKC,0.00,VWS V13.01,2013-08-23 00:44:00,
2013-08-22 17:45:00,87.0,53.6,29.71,WSW,240,3.0,5.0,32,0.00,,SKC,0.00,VWS V13.01,2013-08-23 00:45:00,
2013-08-22 17:46:00,86.9,52.7,29.71,SW,234,4.0,5.0,31,0.00,,SKC,0.00,VWS V13.01,2013-08-23 00:46:00,
2013-08-22 17:47:00,86.8,52.6,29.71,SW,234,1.0,5.0,31,0.00,,SKC,0.00,VWS V13.01,2013-08-23 00:47:00,
2013-08-22 17:48:00,86.8,53.4,29.71,SW,231,7.0,9.0,32,0.00,,SKC,0.00,VWS V13.01,2013-08-23 00:48:00,
2013-08-22 17:49:00,86.7,52.5,29.71,SW,231,6.0,9.0,31,0.00,,SKC,0.00,VWS V13.01,2013-08-23 00:49:00,
2013-08-22 17:50:00,86.6,52.4,29.71,SW,231,4.0,9.0,31,0.00,,SKC,0.00,VWS V13.01,2013-08-23 00:50:00,
2013-08-22 17:51:00,86.6,53.3,29.71,SW,227,4.0,8.0,32,0.00,,SKC,0.00,VWS V13.01,2013-08-23 00:51:00,
2013-08-22 17:52:00,86.5,53.2,29.71,SW,227,5.0,8.0,32,0.00,,SKC,0.00,VWS V13.01,2013-08-23 00:52:00,
2013-08-22 17:53:00,86.5,53.2,29.71,SW,227,0.0,8.0,32,0.00,,SKC,0.00,VWS V13.01,2013-08-23 00:53:00,
2013-08-22 17:54:00,86.5,54.0,29.71,SW,227,1.0,8.0,33,0.00,,SKC,0.00,VWS V13.01,2013-08-23 00:54:00,
2013-08-22 17:55:00,86.5,54.0,29.71,SW,227,3.0,8.0,33,0.00,,SKC,0.00,VWS V13.01,2013-08-23 00:55:00,
2013-08-22 17:56:00,86.5,54.0,29.71,West,272,5.0,8.0,33,0.00,,SKC,0.00,VWS V13.01,2013-08-23 00:56:00,
2013-08-22 17:57:00,86.5,54.0,29.71,West,268,5.0,8.0,33,0.00,,SKC,0.00,VWS V13.01,2013-08-23 00:57:00,
2013-08-22 17:58:00,86.4,53.9,29.71,West,268,0.0,8.0,33,0.00,,SKC,0.00,VWS V13.01,2013-08-23 00:58:00,
2013-08-22 17:59:00,86.3,53.0,29.71,SW,225,4.0,8.0,32,0.00,,SKC,0.00,VWS V13.01,2013-08-23 00:59:00,
2013-08-22 18:00:00,86.3,53.0,29.71,SW,225,0.0,8.0,32,0.00,,SKC,0.00,VWS V13.01,2013-08-23 01:00:00,
2013-08-22 18:01:00,86.2,53.8,29.71,SW,225,6.0,6.0,33,0.00,,SKC,0.00,VWS V13.01,2013-08-23 01:01:00,
2013-08-22 18:02:00,86.2,52.9,29.71,SSW,200,5.0,9.0,32,0.00,,SKC,0.00,VWS V13.01,2013-08-23 01:02:00,
2013-08-22 18:03:00,86.2,53.8,29.71,SSW,201,0.0,9.0,33,0.00,,SKC,0.00,VWS V13.01,2013-08-23 01:03:00,
2013-08-22 18:04:00,86.2,53.8,29.71,SSW,201,0.0,9.0,33,0.00,,SKC,0.00,VWS V13.01,2013-08-23 01:04:00,
2013-08-22 18:05:00,86.2,53.8,29.71,SSW,201,4.0,9.0,33,0.00,,SKC,0.00,VWS V13.01,2013-08-23 01:05:00,
2013-08-22 18:06:00,86.2,53.8,29.71,SSW,213,4.0,7.0,33,0.00,,SKC,0.00,VWS V13.01,2013-08-23 01:06:00,
2013-08-22 18:07:00,86.1,52.8,29.71,SW,235,5.0,7.0,32,0.00,,SKC,0.00,VWS V13.01,2013-08-23 01:07:00,
2013-08-22 18:08:00,86.0,52.7,29.71,SW,234,5.0,7.0,32,0.00,,SKC,0.00,VWS V13.01,2013-08-23 01:08:00,
2013-08-22 18:09:00,86.0,52.7,29.71,SW,234,4.0,7.0,32,0.00,,SKC,0.00,VWS V13.01,2013-08-23 01:09:00,
2013-08-22 18:10:00,85.9,52.7,29.71,SW,234,3.0,7.0,32,0.00,,SKC,0.00,VWS V13.01,2013-08-23 01:10:00,
2013-08-22 18:11:00,85.9,52.7,29.71,WSW,249,3.0,7.0,32,0.00,,SKC,0.00,VWS V13.01,2013-08-23 01:11:00,
2013-08-22 18:12:00,85.9,52.7,29.71,WSW,249,4.0,7.0,32,0.00,,SKC,0.00,VWS V13.01,2013-08-23 01:12:00,
2013-08-22 18:13:00,85.8,52.6,29.71,WSW,250,0.0,7.0,32,0.00,,SKC,0.00,VWS V13.01,2013-08-23 01:13:00,
2013-08-22 18:14:00,85.7,51.6,29.71,SW,232,7.0,8.0,31,0.00,,SKC,0.00,VWS V13.01,2013-08-23 01:14:00,
2013-08-22 18:15:00,85.6,52.4,29.71,SW,230,0.0,8.0,32,0.00,,SKC,0.00,VWS V13.01,2013-08-23 01:15:00,
2013-08-22 18:16:00,85.5,51.4,29.71,SW,230,5.0,5.0,31,0.00,,SKC,0.00,VWS V13.01,2013-08-23 01:16:00,
2013-08-22 18:17:00,85.3,51.3,29.71,SW,230,2.0,9.0,31,0.00,,SKC,0.00,VWS V13.01,2013-08-23 01:17:00,
2013-08-22 18:18:00,85.2,51.2,29.71,SW,231,4.0,9.0,31,0.00,,SKC,0.00,VWS V13.01,2013-08-23 01:18:00,
2013-08-22 18:19:00,85.2,52.0,29.71,SW,229,3.0,9.0,32,0.00,,SKC,0.00,VWS V13.01,2013-08-23 01:19:00,
2013-08-22 18:20:00,85.1,52.0,29.71,SW,232,4.0,9.0,32,0.00,,SKC,0.00,VWS V13.01,2013-08-23 01:20:00,
2013-08-22 18:21:00,85.0,51.9,29.71,SW,219,5.0,7.0,32,0.00,,SKC,0.00,VWS V13.01,2013-08-23 01:21:00,
2013-08-22 18:22:00,85.0,51.0,29.71,SW,219,4.0,7.0,31,0.00,,SKC,0.00,VWS V13.01,2013-08-23 01:22:00,
2013-08-22 18:23:00,84.9,50.9,29.71,SW,219,3.0,7.0,31,0.00,,SKC,0.00,VWS V13.01,2013-08-23 01:23:00,
2013-08-22 18:24:00,84.8,51.7,29.71,SW,220,2.0,7.0,32,0.00,,SKC,0.00,VWS V13.01,2013-08-23 01:24:00,
2013-08-22 18:25:00,84.7,51.6,29.71,West,265,2.0,7.0,32,0.00,,SKC,0.00,VWS V13.01,2013-08-23 01:25:00,
2013-08-22 18:26:00,84.6,51.5,29.71,West,265,1.0,3.0,32,0.00,,SKC,0.00,VWS V13.01,2013-08-23 01:26:00,
2013-08-22 18:27:00,84.4,51.3,29.71,West,261,0.0,5.0,32,0.00,,SKC,0.00,VWS V13.01,2013-08-23 01:27:00,
2013-08-22 18:28:00,84.3,52.1,29.71,West,260,0.0,5.0,33,0.00,,SKC,0.00,VWS V13.01,2013-08-23 01:28:00,
2013-08-22 18:29:00,84.2,51.2,29.71,West,260,3.0,5.0,32,0.00,,SKC,0.00,VWS V13.01,2013-08-23 01:29:00,
2013-08-22 18:30:00,84.1,51.1,29.71,West,260,5.0,5.0,32,0.00,,SKC,0.00,VWS V13.01,2013-08-23 01:30:00,
2013-08-22 18:31:00,84.0,51.0,29.71,West,260,4.0,5.0,32,0.00,,SKC,0.00,VWS V13.01,2013-08-23 01:31:00,
2013-08-22 18:32:00,83.9,50.9,29.71,West,260,1.0,5.0,32,0.00,,SKC,0.00,VWS V13.01,2013-08-23 01:32:00,
2013-08-22 18:33:00,83.8,50.8,29.71,SW,228,5.0,6.0,32,0.00,,SKC,0.00,VWS V13.01,2013-08-23 01:33:00,
2013-08-22 18:34:00,83.7,50.7,29.71,SW,228,1.0,6.0,32,0.00,,SKC,0.00,VWS V13.01,2013-08-23 01:34:00,
2013-08-22 18:35:00,83.6,51.5,29.71,SW,234,0.0,7.0,33,0.00,,SKC,0.00,VWS V13.01,2013-08-23 01:35:00,
2013-08-22 18:36:00,83.5,51.4,29.71,SW,234,0.0,4.0,33,0.00,,SKC,0.00,VWS V13.01,2013-08-23 01:36:00,
2013-08-22 18:37:00,83.5,51.4,29.71,WSW,238,2.0,6.0,33,0.00,,SKC,0.00,VWS V13.01,2013-08-23 01:37:00,
2013-08-22 18:38:00,83.4,51.3,29.72,WSW,238,2.0,6.0,33,0.00,,SKC,0.00,VWS V13.01,2013-08-23 01:38:00,
2013-08-22 18:39:00,83.3,51.2,29.72,WSW,238,2.0,6.0,33,0.00,,SKC,0.00,VWS V13.01,2013-08-23 01:39:00,
2013-08-22 18:40:00,83.2,51.1,29.72,SW,236,4.0,6.0,33,0.00,,SKC,0.00,VWS V13.01,2013-08-23 01:40:00,
2013-08-22 18:41:00,83.1,51.0,29.72,SW,236,0.0,4.0,33,0.00,,SKC,0.00,VWS V13.01,2013-08-23 01:41:00,
2013-08-22 18:42:00,83.0,51.0,29.72,WSW,252,3.0,9.0,33,0.00,,SKC,0.00,VWS V13.01,2013-08-23 01:42:00,
2013-08-22 18:43:00,83.0,51.0,29.72,WNW,284,4.0,9.0,33,0.00,,SKC,0.00,VWS V13.01,2013-08-23 01:43:00,
2013-08-22 18:44:00,82.9,51.7,29.72,West,267,4.0,9.0,34,0.00,,SKC,0.00,VWS V13.01,2013-08-23 01:44:00,
2013-08-22 18:45:00,82.8,51.6,29.72,WSW,244,6.0,9.0,34,0.00,,SKC,0.00,VWS V13.01,2013-08-23 01:45:00,
2013-08-22 18:46:00,82.7,51.5,29.72,West,263,4.0,9.0,34,0.00,,SKC,0.00,VWS V13.01,2013-08-23 01:46:00,
2013-08-22 18:47:00,82.6,51.4,29.72,West,263,4.0,9.0,34,0.00,,SKC,0.00,VWS V13.01,2013-08-23 01:47:00,
2013-08-22 18:48:00,82.5,51.3,29.72,West,261,1.0,9.0,34,0.00,,SKC,0.00,VWS V13.01,2013-08-23 01:48:00,
2013-08-22 18:49:00,82.5,52.1,29.72,West,261,0.0,9.0,35,0.00,,SKC,0.00,VWS V13.01,2013-08-23 01:49:00,
2013-08-22 18:50:00,82.4,52.0,29.72,West,261,1.0,9.0,35,0.00,,SKC,0.00,VWS V13.01,2013-08-23 01:50:00,
2013-08-22 18:51:00,82.3,51.9,29.72,West,261,0.0,3.0,35,0.00,,SKC,0.00,VWS V13.01,2013-08-23 01:51:00,
2013-08-22 18:52:00,82.2,51.8,29.72,West,261,0.0,3.0,35,0.00,,SKC,0.00,VWS V13.01,2013-08-23 01:52:00,
2013-08-22 18:53:00,82.1,51.8,29.72,West,261,1.0,5.0,35,0.00,,SKC,0.00,VWS V13.01,2013-08-23 01:53:00,
2013-08-22 18:54:00,82.0,51.7,29.72,West,261,4.0,5.0,35,0.00,,SKC,0.00,VWS V13.01,2013-08-23 01:54:00,
2013-08-22 18:55:00,82.0,52.4,29.72,West,261,0.0,5.0,36,0.00,,SKC,0.00,VWS V13.01,2013-08-23 01:55:00,
2013-08-22 18:56:00,81.9,52.3,29.72,West,261,3.0,4.0,36,0.00,,SKC,0.00,VWS V13.01,2013-08-23 01:56:00,
2013-08-22 18:57:00,81.8,52.3,29.72,SW,236,4.0,6.0,36,0.00,,SKC,0.00,VWS V13.01,2013-08-23 01:57:00,
2013-08-22 18:58:00,81.7,52.2,29.72,SW,236,4.0,6.0,36,0.00,,SKC,0.00,VWS V13.01,2013-08-23 01:58:00,
2013-08-22 18:59:00,81.6,52.1,29.72,SW,236,1.0,6.0,36,0.00,,SKC,0.00,VWS V13.01,2013-08-23 01:59:00,
2013-08-22 19:00:00,81.5,52.0,29.72,SW,236,5.0,6.0,36,0.00,,SKC,0.00,VWS V13.01,2013-08-23 02:00:00,
2013-08-22 19:01:00,81.5,52.0,29.72,SW,236,4.0,5.0,36,0.00,,SKC,0.00,VWS V13.01,2013-08-23 02:01:00,
2013-08-22 19:02:00,81.4,52.7,29.72,SW,225,7.0,7.0,37,0.00,,SKC,0.00,VWS V13.01,2013-08-23 02:02:00,
2013-08-22 19:03:00,81.3,52.6,29.72,SW,225,3.0,7.0,37,0.00,,SKC,0.00,VWS V13.01,2013-08-23 02:03:00,
2013-08-22 19:04:00,81.2,52.5,29.72,SW,225,3.0,7.0,37,0.00,,SKC,0.00,VWS V13.01,2013-08-23 02:04:00,
2013-08-22 19:05:00,81.1,52.4,29.72,SW,225,4.0,7.0,37,0.00,,SKC,0.00,VWS V13.01,2013-08-23 02:05:00,
2013-08-22 19:06:00,81.1,52.4,29.72,SW,229,5.0,5.0,37,0.00,,SKC,0.00,VWS V13.01,2013-08-23 02:06:00,
2013-08-22 19:07:00,81.0,52.3,29.72,WSW,239,2.0,7.0,37,0.00,,SKC,0.00,VWS V13.01,2013-08-23 02:07:00,
2013-08-22 19:08:00,80.9,52.9,29.72,WSW,249,6.0,7.0,38,0.00,,SKC,0.00,VWS V13.01,2013-08-23 02:08:00,
2013-08-22 19:09:00,80.8,52.8,29.72,WSW,249,0.0,7.0,38,0.00,,SKC,0.00,VWS V13.01,2013-08-23 02:09:00,
2013-08-22 19:10:00,80.7,52.8,29.72,West,263,4.0,7.0,38,0.00,,SKC,0.00,VWS V13.01,2013-08-23 02:10:00,
2013-08-22 19:11:00,80.6,52.7,29.72,West,263,1.0,4.0,38,0.00,,SKC,0.00,VWS V13.01,2013-08-23 02:11:00,
2013-08-22 19:12:00,80.5,52.6,29.72,West,262,3.0,6.0,38,0.00,,SKC,0.00,VWS V13.01,2013-08-23 02:12:00,
2013-08-22 19:13:00,80.4,52.5,29.72,West,263,0.0,6.0,38,0.00,,SKC,0.00,VWS V13.01,2013-08-23 02:13:00,
2013-08-22 19:14:00,80.4,53.2,29.72,West,262,4.0,6.0,39,0.00,,SKC,0.00,VWS V13.01,2013-08-23 02:14:00,
2013-08-22 19:15:00,80.3,53.1,29.72,West,260,3.0,6.0,39,0.00,,SKC,0.00,VWS V13.01,2013-08-23 02:15:00,
2013-08-22 19:16:00,80.2,53.0,29.73,SW,220,6.0,9.0,39,0.00,,SKC,0.00,VWS V13.01,2013-08-23 02:16:00,
2013-08-22 19:17:00,80.1,52.9,29.73,SW,220,5.0,9.0,39,0.00,,SKC,0.00,VWS V13.01,2013-08-23 02:17:00,
2013-08-22 19:18:00,80.0,52.8,29.72,SW,220,3.0,9.0,39,0.00,,SKC,0.00,VWS V13.01,2013-08-23 02:18:00,
2013-08-22 19:19:00,79.9,52.8,29.72,SW,220,3.0,9.0,39,0.00,,SKC,0.00,VWS V13.01,2013-08-23 02:19:00,
2013-08-22 19:20:00,79.8,52.7,29.73,SW,220,3.0,9.0,39,0.00,,SKC,0.00,VWS V13.01,2013-08-23 02:20:00,
2013-08-22 19:21:00,79.7,53.3,29.73,SW,220,5.0,6.0,40,0.00,,SKC,0.00,VWS V13.01,2013-08-23 02:21:00,
2013-08-22 19:22:00,79.5,53.1,29.72,SW,217,8.0,11.0,40,0.00,,SKC,0.00,VWS V13.01,2013-08-23 02:22:00,
2013-08-22 19:23:00,79.4,53.0,29.72,SW,220,6.0,11.0,40,0.00,,SKC,0.00,VWS V13.01,2013-08-23 02:23:00,
2013-08-22 19:24:00,79.3,52.9,29.72,SW,220,4.0,11.0,40,0.00,,SKC,0.00,VWS V13.01,2013-08-23 02:24:00,
2013-08-22 19:25:00,79.2,53.5,29.72,SW,220,2.0,11.0,41,0.00,,SKC,0.00,VWS V13.01,2013-08-23 02:25:00,
2013-08-22 19:26:00,79.1,53.4,29.73,SW,220,0.0,5.0,41,0.00,,SKC,0.00,VWS V13.01,2013-08-23 02:26:00,
2013-08-22 19:27:00,78.9,53.2,29.73,SW,220,2.0,6.0,41,0.00,,SKC,0.00,VWS V13.01,2013-08-23 02:27:00,
2013-08-22 19:28:00,78.7,53.0,29.73,SW,220,5.0,6.0,41,0.00,,SKC,0.00,VWS V13.01,2013-08-23 02:28:00,
2013-08-22 19:29:00,78.7,53.0,29.73,SW,220,4.0,6.0,41,0.00,,SKC,0.00,VWS V13.01,2013-08-23 02:29:00,
2013-08-22 19:30:00,78.6,53.0,29.73,SW,220,5.0,6.0,41,0.00,,SKC,0.00,VWS V13.01,2013-08-23 02:30:00,
2013-08-22 19:31:00,78.4,53.4,29.73,SW,225,6.0,6.0,42,0.00,,SKC,0.00,VWS V13.01,2013-08-23 02:31:00,
2013-08-22 19:32:00,78.3,53.3,29.73,SW,234,2.0,7.0,42,0.00,,SKC,0.00,VWS V13.01,2013-08-23 02:32:00,
2013-08-22 19:33:00,78.2,53.2,29.73,SW,234,3.0,7.0,42,0.00,,SKC,0.00,VWS V13.01,2013-08-23 02:33:00,
2013-08-22 19:34:00,78.0,53.1,29.73,WSW,242,2.0,7.0,42,0.00,,SKC,0.00,VWS V13.01,2013-08-23 02:34:00,
2013-08-22 19:35:00,77.9,53.0,29.73,WSW,242,0.0,7.0,42,0.00,,SKC,0.00,VWS V13.01,2013-08-23 02:35:00,
2013-08-22 19:36:00,77.8,52.9,29.73,WSW,242,1.0,5.0,42,0.00,,SKC,0.00,VWS V13.01,2013-08-23 02:36:00,
2013-08-22 19:37:00,77.6,53.4,29.73,WSW,240,0.0,5.0,43,0.00,,SKC,0.00,VWS V13.01,2013-08-23 02:37:00,
2013-08-22 19:38:00,77.5,53.3,29.73,WSW,240,2.0,6.0,43,0.00,,SKC,0.00,VWS V13.01,2013-08-23 02:38:00,
2013-08-22 19:39:00,77.4,53.2,29.73,WSW,241,5.0,6.0,43,0.00,,SKC,0.00,VWS V13.01,2013-08-23 02:39:00,
2013-08-22 19:40:00,77.3,53.1,29.73,West,269,6.0,11.0,43,0.00,,SKC,0.00,VWS V13.01,2013-08-23 02:40:00,
2013-08-22 19:41:00,77.2,53.0,29.73,SW,223,5.0,9.0,43,0.00,,SKC,0.00,VWS V13.01,2013-08-23 02:41:00,
2013-08-22 19:42:00,77.0,52.8,29.73,SW,235,6.0,9.0,43,0.00,,SKC,0.00,VWS V13.01,2013-08-23 02:42:00,
2013-08-22 19:43:00,76.9,52.7,29.73,SW,235,4.0,9.0,43,0.00,,SKC,0.00,VWS V13.01,2013-08-23 02:43:00,
2013-08-22 19:44:00,76.8,53.3,29.73,SW,229,5.0,10.0,44,0.00,,SKC,0.00,VWS V13.01,2013-08-23 02:44:00,
2013-08-22 19:45:00,76.8,53.3,29.73,West,260,4.0,11.0,44,0.00,,SKC,0.00,VWS V13.01,2013-08-23 02:45:00,
2013-08-22 19:46:00,76.6,53.1,29.73,SW,233,7.0,7.0,44,0.00,,SKC,0.00,VWS V13.01,2013-08-23 02:46:00,
2013-08-22 19:47:00,76.6,53.1,29.73,West,260,5.0,7.0,44,0.00,,SKC,0.00,VWS V13.01,2013-08-23 02:47:00,
2013-08-22 19:48:00,76.5,53.0,29.73,West,260,3.0,7.0,44,0.00,,SKC,0.00,VWS V13.01,2013-08-23 02:48:00,
2013-08-22 19:49:00,76.4,52.9,29.73,WSW,243,5.0,7.0,44,0.00,,SKC,0.00,VWS V13.01,2013-08-23 02:49:00,
2013-08-22 19:50:00,76.3,52.8,29.74,WSW,243,2.0,7.0,44,0.00,,SKC,0.00,VWS V13.01,2013-08-23 02:50:00,
2013-08-22 19:51:00,76.2,52.7,29.74,WSW,252,3.0,6.0,44,0.00,,SKC,0.00,VWS V13.01,2013-08-23 02:51:00,
2013-08-22 19:52:00,76.1,53.2,29.74,WSW,252,3.0,6.0,45,0.00,,SKC,0.00,VWS V13.01,2013-08-23 02:52:00,
2013-08-22 19:53:00,76.0,53.2,29.74,WSW,252,0.0,6.0,45,0.00,,SKC,0.00,VWS V13.01,2013-08-23 02:53:00,
2013-08-22 19:54:00,75.8,53.0,29.74,WSW,251,2.0,6.0,45,0.00,,SKC,0.00,VWS V13.01,2013-08-23 02:54:00,
2013-08-22 19:55:00,75.7,53.5,29.74,WSW,249,4.0,6.0,46,0.00,,SKC,0.00,VWS V13.01,2013-08-23 02:55:00,
2013-08-22 19:56:00,75.6,53.4,29.74,WSW,249,2.0,6.0,46,0.00,,SKC,0.00,VWS V13.01,2013-08-23 02:56:00,
2013-08-22 19:57:00,75.5,52.7,29.74,WSW,246,0.0,6.0,45,0.00,,SKC,0.00,VWS V13.01,2013-08-23 02:57:00,
2013-08-22 19:58:00,75.4,52.6,29.74,WSW,246,4.0,6.0,45,0.00,,SKC,0.00,VWS V13.01,2013-08-23 02:58:00,
2013-08-22 19:59:00,75.3,53.1,29.74,WSW,246,2.0,6.0,46,0.00,,SKC,0.00,VWS V13.01,2013-08-23 02:59:00,
2013-08-22 20:00:00,75.2,53.0,29.74,WSW,246,3.0,6.0,46,0.00,,SKC,0.00,VWS V13.01,2013-08-23 03:00:00,
2013-08-22 20:01:00,75.1,52.9,29.74,SSW,209,7.0,7.0,46,0.00,,SKC,0.00,VWS V13.01,2013-08-23 03:01:00,
2013-08-22 20:02:00,75.1,52.9,29.74,SW,236,9.0,10.0,46,0.00,,SKC,0.00,VWS V13.01,2013-08-23 03:02:00,
2013-08-22 20:03:00,75.0,52.8,29.74,SW,235,0.0,10.0,46,0.00,,SKC,0.00,VWS V13.01,2013-08-23 03:03:00,
2013-08-22 20:04:00,74.9,52.8,29.74,SW,234,4.0,10.0,46,0.00,,SKC,0.00,VWS V13.01,2013-08-23 03:04:00,
2013-08-22 20:05:00,74.8,52.7,29.74,SW,234,3.0,10.0,46,0.00,,SKC,0.00,VWS V13.01,2013-08-23 03:05:00,
2013-08-22 20:06:00,74.7,53.2,29.74,SW,234,5.0,5.0,47,0.00,,SKC,0.00,VWS V13.01,2013-08-23 03:06:00,
2013-08-22 20:07:00,74.6,53.1,29.74,SW,219,8.0,9.0,47,0.00,,SKC,0.00,VWS V13.01,2013-08-23 03:07:00,
2013-08-22 20:08:00,74.6,53.1,29.74,SW,221,4.0,9.0,47,0.00,,SKC,0.00,VWS V13.01,2013-08-23 03:08:00,
2013-08-22 20:09:00,74.5,53.0,29.74,WSW,247,2.0,9.0,47,0.00,,SKC,0.00,VWS V13.01,2013-08-23 03:09:00,
2013-08-22 20:10:00,74.4,52.9,29.74,WSW,246,2.0,9.0,47,0.00,,SKC,0.00,VWS V13.01,2013-08-23 03:10:00,
2013-08-22 20:11:00,74.3,53.4,29.74,SW,225,5.0,10.0,48,0.00,,SKC,0.00,VWS V13.01,2013-08-23 03:11:00,
2013-08-22 20:12:00,74.2,53.3,29.75,WSW,240,3.0,10.0,48,0.00,,SKC,0.00,VWS V13.01,2013-08-23 03:12:00,
2013-08-22 20:13:00,74.2,53.3,29.75,WSW,243,5.0,10.0,48,0.00,,SKC,0.00,VWS V13.01,2013-08-23 03:13:00,
2013-08-22 20:14:00,74.1,53.2,29.75,WSW,238,12.0,12.0,48,0.00,,SKC,0.00,VWS V13.01,2013-08-23 03:14:00,
2013-08-22 20:15:00,74.0,53.1,29.75,SW,231,4.0,12.0,48,0.00,,SKC,0.00,VWS V13.01,2013-08-23 03:15:00,
2013-08-22 20:16:00,74.0,53.1,29.75,SW,219,10.0,10.0,48,0.00,,SKC,0.00,VWS V13.01,2013-08-23 03:16:00,
2013-08-22 20:17:00,73.9,53.0,29.75,WSW,253,4.0,10.0,48,0.00,,SKC,0.00,VWS V13.01,2013-08-23 03:17:00,
2013-08-22 20:18:00,73.8,52.9,29.75,SW,219,7.0,10.0,48,0.00,,SKC,0.00,VWS V13.01,2013-08-23 03:18:00,
2013-08-22 20:19:00,73.8,52.9,29.75,SW,234,6.0,10.0,48,0.00,,SKC,0.00,VWS V13.01,2013-08-23 03:19:00,
2013-08-22 20:20:00,73.7,52.8,29.75,SW,215,6.0,10.0,48,0.00,,SKC,0.00,VWS V13.01,2013-08-23 03:20:00,
2013-08-22 20:21:00,73.6,52.7,29.75,SW,217,4.0,10.0,48,0.00,,SKC,0.00,VWS V13.01,2013-08-23 03:21:00,
2013-08-22 20:22:00,73.6,53.3,29.75,SW,217,4.0,10.0,49,0.00,,SKC,0.00,VWS V13.01,2013-08-23 03:22:00,
2013-08-22 20:23:00,73.5,53.2,29.75,SW,231,4.0,10.0,49,0.00,,SKC,0.00,VWS V13.01,2013-08-23 03:23:00,
2013-08-22 20:24:00,73.4,53.1,29.75,SW,234,3.0,10.0,49,0.00,,SKC,0.00,VWS V13.01,2013-08-23 03:24:00,
2013-08-22 20:25:00,73.3,53.0,29.75,WSW,242,6.0,10.0,49,0.00,,SKC,0.00,VWS V13.01,2013-08-23 03:25:00,
2013-08-22 20:26:00,73.2,52.9,29.75,SW,222,1.0,7.0,49,0.00,,SKC,0.00,VWS V13.01,2013-08-23 03:26:00,
2013-08-22 20:27:00,73.1,53.4,29.75,SW,222,3.0,7.0,50,0.00,,SKC,0.00,VWS V13.01,2013-08-23 03:27:00,
2013-08-22 20:28:00,73.0,53.3,29.75,SW,226,4.0,7.0,50,0.00,,SKC,0.00,VWS V13.01,2013-08-23 03:28:00,
2013-08-22 20:29:00,73.0,53.3,29.75,SW,226,4.0,7.0,50,0.00,,SKC,0.00,VWS V13.01,2013-08-23 03:29:00,
2013-08-22 20:30:00,72.9,53.2,29.75,WSW,253,4.0,7.0,50,0.00,,SKC,0.00,VWS V13.01,2013-08-23 03:30:00,
2013-08-22 20:31:00,72.7,53.0,29.75,WSW,245,7.0,7.0,50,0.00,,SKC,0.00,VWS V13.01,2013-08-23 03:31:00,
2013-08-22 20:32:00,72.6,52.9,29.75,WSW,240,2.0,7.0,50,0.00,,SKC,0.00,VWS V13.01,2013-08-23 03:32:00,
2013-08-22 20:33:00,72.6,52.9,29.76,WSW,249,2.0,8.0,50,0.00,,SKC,0.00,VWS V13.01,2013-08-23 03:33:00,
2013-08-22 20:34:00,72.4,52.7,29.76,WSW,242,3.0,8.0,50,0.00,,SKC,0.00,VWS V13.01,2013-08-23 03:34:00,
2013-08-22 20:35:00,72.4,53.3,29.76,SW,236,3.0,8.0,51,0.00,,SKC,0.00,VWS V13.01,2013-08-23 03:35:00,
2013-08-22 20:36:00,72.3,53.2,29.76,SW,236,4.0,6.0,51,0.00,,SKC,0.00,VWS V13.01,2013-08-23 03:36:00,
2013-08-22 20:37:00,72.2,53.1,29.76,WSW,238,5.0,10.0,51,0.00,,SKC,0.00,VWS V13.01,2013-08-23 03:37:00,
2013-08-22 20:38:00,72.1,53.0,29.76,SW,227,1.0,10.0,51,0.00,,SKC,0.00,VWS V13.01,2013-08-23 03:38:00,
2013-08-22 20:39:00,72.1,53.0,29.76,SW,227,0.0,10.0,51,0.00,,SKC,0.00,VWS V13.01,2013-08-23 03:39:00,
2013-08-22 20:40:00,72.0,52.9,29.76,SW,227,3.0,10.0,51,0.00,,SKC,0.00,VWS V13.01,2013-08-23 03:40:00,
2013-08-22 20:41:00,71.9,52.8,29.76,SW,227,3.0,4.0,51,0.00,,SKC,0.00,VWS V13.01,2013-08-23 03:41:00,
2013-08-22 20:42:00,71.9,53.3,29.76,SW,227,4.0,4.0,52,0.00,,SKC,0.00,VWS V13.01,2013-08-23 03:42:00,
2013-08-22 20:43:00,71.8,53.2,29.76,SW,227,3.0,4.0,52,0.00,,SKC,0.00,VWS V13.01,2013-08-23 03:43:00,
2013-08-22 20:44:00,71.7,53.2,29.76,SW,227,0.0,4.0,52,0.00,,SKC,0.00,VWS V13.01,2013-08-23 03:44:00,
2013-08-22 20:45:00,71.7,53.2,29.76,SW,219,6.0,6.0,52,0.00,,SKC,0.00,VWS V13.01,2013-08-23 03:45:00,
2013-08-22 20:46:00,71.7,53.2,29.76,SW,217,5.0,9.0,52,0.00,,SKC,0.00,VWS V13.01,2013-08-23 03:46:00,
2013-08-22 20:47:00,71.6,53.1,29.76,SSW,202,4.0,9.0,52,0.00,,SKC,0.00,VWS V13.01,2013-08-23 03:47:00,
2013-08-22 20:48:00,71.6,53.1,29.76,SSW,202,2.0,9.0,52,0.00,,SKC,0.00,VWS V13.01,2013-08-23 03:48:00,
2013-08-22 20:49:00,71.5,53.5,29.76,SSW,202,5.0,9.0,53,0.00,,SKC,0.00,VWS V13.01,2013-08-23 03:49:00,
2013-08-22 20:50:00,71.5,53.5,29.76,SSW,207,6.0,9.0,53,0.00,,SKC,0.00,VWS V13.01,2013-08-23 03:50:00,
2013-08-22 20:51:00,71.4,53.4,29.76,SW,225,6.0,9.0,53,0.00,,SKC,0.00,VWS V13.01,2013-08-23 03:51:00,
2013-08-22 20:52:00,71.4,53.4,29.76,SW,229,6.0,9.0,53,0.00,,SKC,0.00,VWS V13.01,2013-08-23 03:52:00,
2013-08-22 20:53:00,71.3,53.8,29.76,SW,217,5.0,9.0,54,0.00,,SKC,0.00,VWS V13.01,2013-08-23 03:53:00,
2013-08-22 20:54:00,71.3,53.8,29.76,West,265,5.0,9.0,54,0.00,,SKC,0.00,VWS V13.01,2013-08-23 03:54:00,
2013-08-22 20:55:00,71.2,53.7,29.76,SW,234,4.0,11.0,54,0.00,,SKC,0.00,VWS V13.01,2013-08-23 03:55:00,
2013-08-22 20:56:00,71.2,53.7,29.76,SW,234,6.0,6.0,54,0.00,,SKC,0.00,VWS V13.01,2013-08-23 03:56:00,
2013-08-22 20:57:00,71.1,53.6,29.76,SW,234,4.0,7.0,54,0.00,,SKC,0.00,VWS V13.01,2013-08-23 03:57:00,
2013-08-22 20:58:00,71.0,53.5,29.76,SW,233,4.0,7.0,54,0.00,,SKC,0.00,VWS V13.01,2013-08-23 03:58:00,
2013-08-22 20:59:00,70.9,54.0,29.76,SW,223,5.0,10.0,55,0.00,,SKC,0.00,VWS V13.01,2013-08-23 03:59:00,
2013-08-22 21:00:00,70.9,54.0,29.76,SW,222,3.0,10.0,55,0.00,,SKC,0.00,VWS V13.01,2013-08-23 04:00:00,
2013-08-22 21:01:00,70.8,53.8,29.76,SW,222,3.0,4.0,55,0.00,,SKC,0.00,VWS V13.01,2013-08-23 04:01:00,
2013-08-22 21:02:00,70.7,53.8,29.76,SW,223,2.0,4.0,55,0.00,,SKC,0.00,VWS V13.01,2013-08-23 04:02:00,
2013-08-22 21:03:00,70.7,53.8,29.76,SW,223,4.0,5.0,55,0.00,,SKC,0.00,VWS V13.01,2013-08-23 04:03:00,
2013-08-22 21:04:00,70.6,53.7,29.76,SSW,211,5.0,7.0,55,0.00,,SKC,0.00,VWS V13.01,2013-08-23 04:04:00,
2013-08-22 21:05:00,70.6,53.7,29.76,SSW,211,3.0,7.0,55,0.00,,SKC,0.00,VWS V13.01,2013-08-23 04:05:00,
2013-08-22 21:06:00,70.4,53.5,29.76,SSW,211,5.0,8.0,55,0.00,,SKC,0.00,VWS V13.01,2013-08-23 04:06:00,
2013-08-22 21:07:00,70.3,53.9,29.76,SSW,211,4.0,8.0,56,0.00,,SKC,0.00,VWS V13.01,2013-08-23 04:07:00,
2013-08-22 21:08:00,70.3,53.9,29.76,SW,216,6.0,8.0,56,0.00,,SKC,0.00,VWS V13.01,2013-08-23 04:08:00,
2013-08-22 21:09:00,70.2,53.8,29.76,SW,216,4.0,8.0,56,0.00,,SKC,0.00,VWS V13.01,2013-08-23 04:09:00,
2013-08-22 21:10:00,70.1,53.7,29.76,SW,216,6.0,8.0,56,0.00,,SKC,0.00,VWS V13.01,2013-08-23 04:10:00,
2013-08-22 21:11:00,70.1,53.7,29.76,SW,216,4.0,5.0,56,0.00,,SKC,0.00,VWS V13.01,2013-08-23 04:11:00,
2013-08-22 21:12:00,69.9,53.5,29.76,SW,216,4.0,5.0,56,0.00,,SKC,0.00,VWS V13.01,2013-08-23 04:12:00,
2013-08-22 21:13:00,69.9,54.0,29.76,SW,216,5.0,6.0,57,0.00,,SKC,0.00,VWS V13.01,2013-08-23 04:13:00,
2013-08-22 21:14:00,69.8,53.9,29.76,SW,229,1.0,9.0,57,0.00,,SKC,0.00,VWS V13.01,2013-08-23 04:14:00,
2013-08-22 21:15:00,69.7,53.8,29.76,SW,223,6.0,9.0,57,0.00,,SKC,0.00,VWS V13.01,2013-08-23 04:15:00,
2013-08-22 21:16:00,69.7,53.8,29.76,SW,221,3.0,6.0,57,0.00,,SKC,0.00,VWS V13.01,2013-08-23 04:16:00,
2013-08-22 21:17:00,69.6,53.7,29.76,SW,214,6.0,6.0,57,0.00,,SKC,0.00,VWS V13.01,2013-08-23 04:17:00,
2013-08-22 21:18:00,69.6,53.7,29.76,SW,214,7.0,7.0,57,0.00,,SKC,0.00,VWS V13.01,2013-08-23 04:18:00,
2013-08-22 21:19:00,69.5,53.6,29.76,SW,215,9.0,10.0,57,0.00,,SKC,0.00,VWS V13.01,2013-08-23 04:19:00,
2013-08-22 21:20:00,69.4,53.5,29.77,SW,230,11.0,11.0,57,0.00,,SKC,0.00,VWS V13.01,2013-08-23 04:20:00,
2013-08-22 21:21:00,69.4,53.5,29.77,SW,217,11.0,11.0,57,0.00,,SKC,0.00,VWS V13.01,2013-08-23 04:21:00,
2013-08-22 21:22:00,69.3,53.4,29.77,SW,219,10.0,12.0,57,0.00,,SKC,0.00,VWS V13.01,2013-08-23 04:22:00,
2013-08-22 21:23:00,69.2,53.3,29.77,SSW,213,10.0,12.0,57,0.00,,SKC,0.00,VWS V13.01,2013-08-23 04:23:00,
2013-08-22 21:24:00,69.1,53.2,29.77,SW,217,6.0,12.0,57,0.00,,SKC,0.00,VWS V13.01,2013-08-23 04:24:00,
2013-08-22 21:25:00,69.0,53.2,29.77,SW,219,5.0,12.0,57,0.00,,SKC,0.00,VWS V13.01,2013-08-23 04:25:00,
2013-08-22 21:26:00,69.0,53.6,29.77,SW,216,4.0,7.0,58,0.00,,SKC,0.00,VWS V13.01,2013-08-23 04:26:00,
2013-08-22 21:27:00,68.9,53.5,29.77,SSW,213,6.0,7.0,58,0.00,,SKC,0.00,VWS V13.01,2013-08-23 04:27:00,
2013-08-22 21:28:00,68.9,53.5,29.77,SSW,211,7.0,10.0,58,0.00,,SKC,0.00,VWS V13.01,2013-08-23 04:28:00,
2013-08-22 21:29:00,68.8,53.4,29.77,South,181,12.0,12.0,58,0.00,,SKC,0.00,VWS V13.01,2013-08-23 04:29:00,
2013-08-22 21:30:00,68.7,53.8,29.77,SSW,203,6.0,12.0,59,0.00,,SKC,0.00,VWS V13.01,2013-08-23 04:30:00,
2013-08-22 21:31:00,68.7,53.8,29.77,SW,216,6.0,11.0,59,0.00,,SKC,0.00,VWS V13.01,2013-08-23 04:31:00,
2013-08-22 21:32:00,68.6,53.7,29.77,SSW,212,5.0,11.0,59,0.00,,SKC,0.00,VWS V13.01,2013-08-23 04:32:00,
2013-08-22 21:33:00,68.6,53.7,29.77,SW,214,9.0,11.0,59,0.00,,SKC,0.00,VWS V13.01,2013-08-23 04:33:00,
2013-08-22 21:34:00,68.5,53.6,29.77,SW,225,5.0,11.0,59,0.00,,SKC,0.00,VWS V13.01,2013-08-23 04:34:00,
2013-08-22 21:35:00,68.4,53.5,29.77,SSW,207,5.0,11.0,59,0.00,,SKC,0.00,VWS V13.01,2013-08-23 04:35:00,
2013-08-22 21:36:00,68.3,53.4,29.77,SSW,207,5.0,6.0,59,0.00,,SKC,0.00,VWS V13.01,2013-08-23 04:36:00,
2013-08-22 21:37:00,68.3,53.4,29.77,SW,229,6.0,11.0,59,0.00,,SKC,0.00,VWS V13.01,2013-08-23 04:37:00,
2013-08-22 21:38:00,68.2,53.8,29.77,SW,218,4.0,11.0,60,0.00,,SKC,0.00,VWS V13.01,2013-08-23 04:38:00,
2013-08-22 21:39:00,68.1,53.7,29.77,SSW,197,12.0,12.0,60,0.00,,SKC,0.00,VWS V13.01,2013-08-23 04:39:00,
2013-08-22 21:40:00,68.1,53.7,29.77,SSW,208,9.0,12.0,60,0.00,,SKC,0.00,VWS V13.01,2013-08-23 04:40:00,
2013-08-22 21:41:00,68.0,53.6,29.77,SSW,209,6.0,10.0,60,0.00,,SKC,0.00,VWS V13.01,2013-08-23 04:41:00,
2013-08-22 21:42:00,68.0,53.6,29.77,SW,227,5.0,10.0,60,0.00,,SKC,0.00,VWS V13.01,2013-08-23 04:42:00,
2013-08-22 21:43:00,67.9,53.5,29.77,SW,219,5.0,10.0,60,0.00,,SKC,0.00,VWS V13.01,2013-08-23 04:43:00,
2013-08-22 21:44:00,67.9,53.5,29.77,SW,219,5.0,10.0,60,0.00,,SKC,0.00,VWS V13.01,2013-08-23 04:44:00,
2013-08-22 21:45:00,67.8,53.4,29.77,SW,216,4.0,10.0,60,0.00,,SKC,0.00,VWS V13.01,2013-08-23 04:45:00,
2013-08-22 21:46:00,67.7,53.3,29.77,SW,217,4.0,6.0,60,0.00,,SKC,0.00,VWS V13.01,2013-08-23 04:46:00,
2013-08-22 21:47:00,67.7,53.3,29.77,SW,216,5.0,6.0,60,0.00,,SKC,0.00,VWS V13.01,2013-08-23 04:47:00,
2013-08-22 21:48:00,67.6,53.2,29.77,SW,215,5.0,9.0,60,0.00,,SKC,0.00,VWS V13.01,2013-08-23 04:48:00,
2013-08-22 21:49:00,67.6,53.2,29.77,SSW,211,9.0,10.0,60,0.00,,SKC,0.00,VWS V13.01,2013-08-23 04:49:00,
2013-08-22 21:50:00,67.5,53.1,29.77,SSW,211,7.0,10.0,60,0.00,,SKC,0.00,VWS V13.01,2013-08-23 04:50:00,
2013-08-22 21:51:00,67.5,53.1,29.77,SW,233,6.0,11.0,60,0.00,,SKC,0.00,VWS V13.01,2013-08-23 04:51:00,
2013-08-22 21:52:00,67.4,53.0,29.77,SW,217,5.0,11.0,60,0.00,,SKC,0.00,VWS V13.01,2013-08-23 04:52:00,
2013-08-22 21:53:00,67.4,53.0,29.77,SW,217,3.0,11.0,60,0.00,,SKC,0.00,VWS V13.01,2013-08-23 04:53:00,
2013-08-22 21:54:00,67.4,53.0,29.77,SW,219,11.0,11.0,60,0.00,,SKC,0.00,VWS V13.01,2013-08-23 04:54:00,
2013-08-22 21:55:00,67.3,53.4,29.77,SSW,206,5.0,11.0,61,0.00,,SKC,0.00,VWS V13.01,2013-08-23 04:55:00,
2013-08-22 21:56:00,67.3,53.4,29.77,SSW,207,10.0,12.0,61,0.00,,SKC,0.00,VWS V13.01,2013-08-23 04:56:00,
2013-08-22 21:57:00,67.2,53.3,29.77,SSW,209,6.0,12.0,61,0.00,,SKC,0.00,VWS V13.01,2013-08-23 04:57:00,
2013-08-22 21:58:00,67.2,53.3,29.77,SSW,209,7.0,12.0,61,0.00,,SKC,0.00,VWS V13.01,2013-08-23 04:58:00,
2013-08-22 21:59:00,67.2,53.3,29.77,SW,218,4.0,12.0,61,0.00,,SKC,0.00,VWS V13.01,2013-08-23 04:59:00,
2013-08-22 22:00:00,67.1,53.2,29.77,SW,215,4.0,12.0,61,0.00,,SKC,0.00,VWS V13.01,2013-08-23 05:00:00,
2013-08-22 22:01:00,67.1,53.2,29.77,SW,216,5.0,7.0,61,0.00,,SKC,0.00,VWS V13.01,2013-08-23 05:01:00,
2013-08-22 22:02:00,67.0,53.1,29.77,SW,216,8.0,8.0,61,0.00,,SKC,0.00,VWS V13.01,2013-08-23 05:02:00,
2013-08-22 22:03:00,67.0,53.1,29.77,SW,216,5.0,9.0,61,0.00,,SKC,0.00,VWS V13.01,2013-08-23 05:03:00,
2013-08-22 22:04:00,66.9,53.0,29.77,SW,215,5.0,9.0,61,0.00,,SKC,0.00,VWS V13.01,2013-08-23 05:04:00,
2013-08-22 22:05:00,66.9,53.0,29.77,SW,215,5.0,9.0,61,0.00,,SKC,0.00,VWS V13.01,2013-08-23 05:05:00,
2013-08-22 22:06:00,66.8,52.9,29.77,SSW,209,5.0,9.0,61,0.00,,SKC,0.00,VWS V13.01,2013-08-23 05:06:00,
2013-08-22 22:07:00,66.8,52.9,29.77,SW,217,7.0,9.0,61,0.00,,SKC,0.00,VWS V13.01,2013-08-23 05:07:00,
2013-08-22 22:08:00,66.7,52.8,29.77,SSW,207,5.0,9.0,61,0.00,,SKC,0.00,VWS V13.01,2013-08-23 05:08:00,
2013-08-22 22:09:00,66.7,52.8,29.77,SSW,208,5.0,9.0,61,0.00,,SKC,0.00,VWS V13.01,2013-08-23 05:09:00,
2013-08-22 22:10:00,66.7,52.8,29.77,SSW,206,10.0,10.0,61,0.00,,SKC,0.00,VWS V13.01,2013-08-23 05:10:00,
2013-08-22 22:11:00,66.6,52.8,29.77,SSW,206,5.0,7.0,61,0.00,,SKC,0.00,VWS V13.01,2013-08-23 05:11:00,
2013-08-22 22:12:00,66.6,52.8,29.77,SSW,205,4.0,11.0,61,0.00,,SKC,0.00,VWS V13.01,2013-08-23 05:12:00,
2013-08-22 22:13:00,66.6,52.8,29.77,SSW,205,4.0,11.0,61,0.00,,SKC,0.00,VWS V13.01,2013-08-23 05:13:00,
2013-08-22 22:14:00,66.5,52.7,29.77,SSW,202,4.0,11.0,61,0.00,,SKC,0.00,VWS V13.01,2013-08-23 05:14:00,
2013-08-22 22:15:00,66.5,53.1,29.77,SSW,202,4.0,11.0,62,0.00,,SKC,0.00,VWS V13.01,2013-08-23 05:15:00,
2013-08-22 22:16:00,66.5,53.1,29.77,SSW,202,6.0,6.0,62,0.00,,SKC,0.00,VWS V13.01,2013-08-23 05:16:00,
2013-08-22 22:17:00,66.4,53.0,29.77,SSW,202,4.0,6.0,62,0.00,,SKC,0.00,VWS V13.01,2013-08-23 05:17:00,
2013-08-22 22:18:00,66.4,53.0,29.77,SSW,202,5.0,6.0,62,0.00,,SKC,0.00,VWS V13.01,2013-08-23 05:18:00,
2013-08-22 22:19:00,66.3,52.9,29.77,SSW,202,3.0,6.0,62,0.00,,SKC,0.00,VWS V13.01,2013-08-23 05:19:00,
2013-08-22 22:20:00,66.2,52.8,29.77,SSW,202,5.0,6.0,62,0.00,,SKC,0.00,VWS V13.01,2013-08-23 05:20:00,
2013-08-22 22:21:00,66.2,52.8,29.78,SSW,202,5.0,7.0,62,0.00,,SKC,0.00,VWS V13.01,2013-08-23 05:21:00,
2013-08-22 22:22:00,66.1,52.7,29.77,SSW,202,7.0,7.0,62,0.00,,SKC,0.00,VWS V13.01,2013-08-23 05:22:00,
2013-08-22 22:23:00,66.1,52.7,29.78,SSW,203,3.0,10.0,62,0.00,,SKC,0.00,VWS V13.01,2013-08-23 05:23:00,
2013-08-22 22:24:00,66.0,52.6,29.78,SW,214,6.0,10.0,62,0.00,,SKC,0.00,VWS V13.01,2013-08-23 05:24:00,
2013-08-22 22:25:00,66.0,53.1,29.78,SW,214,4.0,10.0,63,0.00,,SKC,0.00,VWS V13.01,2013-08-23 05:25:00,
2013-08-22 22:26:00,66.0,52.6,29.78,SW,214,3.0,5.0,62,0.00,,SKC,0.00,VWS V13.01,2013-08-23 05:26:00,
2013-08-22 22:27:00,65.9,52.5,29.78,SW,223,5.0,8.0,62,0.00,,SKC,0.00,VWS V13.01,2013-08-23 05:27:00,
2013-08-22 22:28:00,65.8,52.9,29.78,SW,223,5.0,9.0,63,0.00,,SKC,0.00,VWS V13.01,2013-08-23 05:28:00,
2013-08-22 22:29:00,65.8,52.9,29.78,SSW,207,7.0,9.0,63,0.00,,SKC,0.00,VWS V13.01,2013-08-23 05:29:00,
2013-08-22 22:30:00,65.8,52.9,29.78,SSW,207,3.0,9.0,63,0.00,,SKC,0.00,VWS V13.01,2013-08-23 05:30:00,
2013-08-22 22:31:00,65.7,52.8,29.78,SSW,207,4.0,6.0,63,0.00,,SKC,0.00,VWS V13.01,2013-08-23 05:31:00,
2013-08-22 22:32:00,65.7,52.8,29.78,SSW,208,6.0,6.0,63,0.00,,SKC,0.00,VWS V13.01,2013-08-23 05:32:00,
2013-08-22 22:33:00,65.6,52.7,29.78,SSW,207,3.0,6.0,63,0.00,,SKC,0.00,VWS V13.01,2013-08-23 05:33:00,
2013-08-22 22:34:00,65.6,52.7,29.78,SSW,207,3.0,6.0,63,0.00,,SKC,0.00,VWS V13.01,2013-08-23 05:34:00,
2013-08-22 22:35:00,65.6,52.7,29.78,SSW,207,4.0,6.0,63,0.00,,SKC,0.00,VWS V13.01,2013-08-23 05:35:00,
2013-08-22 22:36:00,65.5,52.6,29.78,SSW,207,3.0,5.0,63,0.00,,SKC,0.00,VWS V13.01,2013-08-23 05:36:00,
2013-08-22 22:37:00,65.5,52.6,29.78,SSW,207,4.0,5.0,63,0.00,,SKC,0.00,VWS V13.01,2013-08-23 05:37:00,
2013-08-22 22:38:00,65.4,52.5,29.78,SSW,207,3.0,5.0,63,0.00,,SKC,0.00,VWS V13.01,2013-08-23 05:38:00,
2013-08-22 22:39:00,65.4,52.5,29.78,SSW,207,3.0,5.0,63,0.00,,SKC,0.00,VWS V13.01,2013-08-23 05:39:00,
2013-08-22 22:40:00,65.3,52.8,29.78,SSW,207,5.0,6.0,64,0.00,,SKC,0.00,VWS V13.01,2013-08-23 05:40:00,
2013-08-22 22:41:00,65.3,52.8,29.78,SSW,207,5.0,8.0,64,0.00,,SKC,0.00,VWS V13.01,2013-08-23 05:41:00,
2013-08-22 22:42:00,65.3,52.8,29.78,SSW,206,7.0,8.0,64,0.00,,SKC,0.00,VWS V13.01,2013-08-23 05:42:00,
2013-08-22 22:43:00,65.3,52.8,29.78,SSW,206,4.0,8.0,64,0.00,,SKC,0.00,VWS V13.01,2013-08-23 05:43:00,
2013-08-22 22:44:00,65.3,52.8,29.78,SSW,207,3.0,8.0,64,0.00,,SKC,0.00,VWS V13.01,2013-08-23 05:44:00,
2013-08-22 22:45:00,65.2,52.7,29.78,SSW,211,4.0,8.0,64,0.00,,SKC,0.00,VWS V13.01,2013-08-23 05:45:00,
2013-08-22 22:46:00,65.2,52.7,29.77,SSW,211,5.0,5.0,64,0.00,,SKC,0.00,VWS V13.01,2013-08-23 05:46:00,
2013-08-22 22:47:00,65.2,52.7,29.78,SSW,211,4.0,5.0,64,0.00,,SKC,0.00,VWS V13.01,2013-08-23 05:47:00,
2013-08-22 22:48:00,65.2,52.7,29.77,SSW,211,3.0,5.0,64,0.00,,SKC,0.00,VWS V13.01,2013-08-23 05:48:00,
2013-08-22 22:49:00,65.1,52.6,29.78,SSW,211,3.0,5.0,64,0.00,,SKC,0.00,VWS V13.01,2013-08-23 05:49:00,
2013-08-22 22:50:00,65.1,52.6,29.78,SSW,211,4.0,5.0,64,0.00,,SKC,0.00,VWS V13.01,2013-08-23 05:50:00,
2013-08-22 22:51:00,65.1,52.6,29.77,SSW,211,3.0,5.0,64,0.00,,SKC,0.00,VWS V13.01,2013-08-23 05:51:00,
2013-08-22 22:52:00,65.0,53.0,29.77,SSW,211,1.0,5.0,65,0.00,,SKC,0.00,VWS V13.01,2013-08-23 05:52:00,
2013-08-22 22:53:00,65.0,53.0,29.77,SSW,210,4.0,5.0,65,0.00,,SKC,0.00,VWS V13.01,2013-08-23 05:53:00,
2013-08-22 22:54:00,65.0,53.0,29.77,SSW,210,4.0,5.0,65,0.00,,SKC,0.00,VWS V13.01,2013-08-23 05:54:00,
2013-08-22 22:55:00,65.0,53.0,29.77,SSW,210,4.0,5.0,65,0.00,,SKC,0.00,VWS V13.01,2013-08-23 05:55:00,
2013-08-22 22:56:00,64.9,52.9,29.77,SSW,210,2.0,5.0,65,0.00,,SKC,0.00,VWS V13.01,2013-08-23 05:56:00,
2013-08-22 22:57:00,64.9,52.9,29.77,SSW,210,2.0,5.0,65,0.00,,SKC,0.00,VWS V13.01,2013-08-23 05:57:00,
2013-08-22 22:58:00,64.9,52.9,29.77,SSW,210,3.0,5.0,65,0.00,,SKC,0.00,VWS V13.01,2013-08-23 05:58:00,
2013-08-22 22:59:00,64.8,52.8,29.77,SSW,210,3.0,5.0,65,0.00,,SKC,0.00,VWS V13.01,2013-08-23 05:59:00,
2013-08-22 23:00:00,64.8,52.8,29.77,SSW,210,3.0,5.0,65,0.00,,SKC,0.00,VWS V13.01,2013-08-23 06:00:00,
2013-08-22 23:01:00,64.8,52.8,29.77,SSW,210,3.0,4.0,65,0.00,,SKC,0.00,VWS V13.01,2013-08-23 06:01:00,
2013-08-22 23:02:00,64.8,52.8,29.77,SSW,210,6.0,6.0,65,0.00,,SKC,0.00,VWS V13.01,2013-08-23 06:02:00,
2013-08-22 23:03:00,64.8,53.2,29.77,SSW,210,4.0,6.0,66,0.00,,SKC,0.00,VWS V13.01,2013-08-23 06:03:00,
2013-08-22 23:04:00,64.8,53.2,29.77,SSW,210,2.0,6.0,66,0.00,,SKC,0.00,VWS V13.01,2013-08-23 06:04:00,
2013-08-22 23:05:00,64.8,53.2,29.77,SSW,210,5.0,6.0,66,0.00,,SKC,0.00,VWS V13.01,2013-08-23 06:05:00,
2013-08-22 23:06:00,64.8,53.2,29.77,SSW,210,5.0,6.0,66,0.00,,SKC,0.00,VWS V13.01,2013-08-23 06:06:00,
2013-08-22 23:07:00,64.7,53.1,29.77,SSW,210,5.0,6.0,66,0.00,,SKC,0.00,VWS V13.01,2013-08-23 06:07:00,
2013-08-22 23:08:00,64.7,53.1,29.77,SSW,210,4.0,6.0,66,0.00,,SKC,0.00,VWS V13.01,2013-08-23 06:08:00,
2013-08-22 23:09:00,64.7,53.1,29.77,SSW,210,6.0,6.0,66,0.00,,SKC,0.00,VWS V13.01,2013-08-23 06:09:00,
2013-08-22 23:10:00,64.7,53.1,29.77,SSW,210,3.0,6.0,66,0.00,,SKC,0.00,VWS V13.01,2013-08-23 06:10:00,
2013-08-22 23:11:00,64.7,53.1,29.77,SSW,210,5.0,6.0,66,0.00,,SKC,0.00,VWS V13.01,2013-08-23 06:11:00,
2013-08-22 23:12:00,64.7,53.1,29.77,SSW,210,3.0,7.0,66,0.00,,SKC,0.00,VWS V13.01,2013-08-23 06:12:00,
2013-08-22 23:13:00,64.7,53.1,29.77,SSW,210,4.0,7.0,66,0.00,,SKC,0.00,VWS V13.01,2013-08-23 06:13:00,
2013-08-22 23:14:00,64.7,53.1,29.77,SSW,208,5.0,10.0,66,0.00,,SKC,0.00,VWS V13.01,2013-08-23 06:14:00,
2013-08-22 23:15:00,64.7,53.1,29.77,SSW,211,5.0,10.0,66,0.00,,SKC,0.00,VWS V13.01,2013-08-23 06:15:00,
2013-08-22 23:16:00,64.7,53.1,29.77,SSW,211,6.0,7.0,66,0.00,,SKC,0.00,VWS V13.01,2013-08-23 06:16:00,
2013-08-22 23:17:00,64.7,53.1,29.77,SSW,211,6.0,7.0,66,0.00,,SKC,0.00,VWS V13.01,2013-08-23 06:17:00,
2013-08-22 23:18:00,64.7,53.1,29.77,SW,215,7.0,11.0,66,0.00,,SKC,0.00,VWS V13.01,2013-08-23 06:18:00,
2013-08-22 23:19:00,64.7,53.1,29.77,SW,215,7.0,11.0,66,0.00,,SKC,0.00,VWS V13.01,2013-08-23 06:19:00,
2013-08-22 23:20:00,64.7,53.1,29.77,SW,217,10.0,13.0,66,0.00,,SKC,0.00,VWS V13.01,2013-08-23 06:20:00,
2013-08-22 23:21:00,64.7,53.1,29.77,SSW,213,4.0,10.0,66,0.00,,SKC,0.00,VWS V13.01,2013-08-23 06:21:00,
2013-08-22 23:22:00,64.8,53.2,29.77,SSW,208,6.0,10.0,66,0.00,,SKC,0.00,VWS V13.01,2013-08-23 06:22:00,
2013-08-22 23:23:00,64.8,53.2,29.77,SW,223,8.0,11.0,66,0.00,,SKC,0.00,VWS V13.01,2013-08-23 06:23:00,
2013-08-22 23:24:00,64.8,53.2,29.77,SSW,211,8.0,11.0,66,0.00,,SKC,0.00,VWS V13.01,2013-08-23 06:24:00,
2013-08-22 23:25:00,64.8,53.2,29.77,SSW,212,6.0,6.0,66,0.00,,SKC,0.00,VWS V13.01,2013-08-23 06:25:00,
2013-08-22 23:26:00,64.8,53.2,29.77,SW,224,4.0,9.0,66,0.00,,SKC,0.00,VWS V13.01,2013-08-23 06:26:00,
2013-08-22 23:27:00,64.8,53.2,29.77,SW,224,3.0,9.0,66,0.00,,SKC,0.00,VWS V13.01,2013-08-23 06:27:00,
2013-08-22 23:28:00,64.8,53.2,29.77,SW,219,9.0,9.0,66,0.00,,SKC,0.00,VWS V13.01,2013-08-23 06:28:00,
2013-08-22 23:29:00,64.8,53.2,29.77,SW,215,5.0,9.0,66,0.00,,SKC,0.00,VWS V13.01,2013-08-23 06:29:00,
2013-08-22 23:30:00,64.7,53.1,29.77,SW,215,5.0,9.0,66,0.00,,SKC,0.00,VWS V13.01,2013-08-23 06:30:00,
2013-08-22 23:31:00,64.7,53.1,29.77,SW,215,5.0,9.0,66,0.00,,SKC,0.00,VWS V13.01,2013-08-23 06:31:00,
2013-08-22 23:32:00,64.7,53.1,29.77,SW,221,5.0,11.0,66,0.00,,SKC,0.00,VWS V13.01,2013-08-23 06:32:00,
2013-08-22 23:33:00,64.6,53.0,29.77,SW,218,4.0,11.0,66,0.00,,SKC,0.00,VWS V13.01,2013-08-23 06:33:00,
2013-08-22 23:34:00,64.6,53.0,29.77,SW,219,7.0,11.0,66,0.00,,SKC,0.00,VWS V13.01,2013-08-23 06:34:00,
2013-08-22 23:35:00,64.5,52.9,29.77,SW,236,7.0,11.0,66,0.00,,SKC,0.00,VWS V13.01,2013-08-23 06:35:00,
2013-08-22 23:36:00,64.5,52.9,29.77,SW,219,5.0,10.0,66,0.00,,SKC,0.00,VWS V13.01,2013-08-23 06:36:00,
2013-08-22 23:37:00,64.4,52.8,29.77,SW,221,7.0,10.0,66,0.00,,SKC,0.00,VWS V13.01,2013-08-23 06:37:00,
2013-08-22 23:38:00,64.3,52.7,29.77,SW,234,3.0,10.0,66,0.00,,SKC,0.00,VWS V13.01,2013-08-23 06:38:00,
2013-08-22 23:39:00,64.3,52.7,29.77,SW,234,6.0,10.0,66,0.00,,SKC,0.00,VWS V13.01,2013-08-23 06:39:00,
2013-08-22 23:40:00,64.2,52.6,29.77,SW,227,5.0,10.0,66,0.00,,SKC,0.00,VWS V13.01,2013-08-23 06:40:00,
2013-08-22 23:41:00,64.2,52.6,29.77,SSW,205,10.0,10.0,66,0.00,,SKC,0.00,VWS V13.01,2013-08-23 06:41:00,
2013-08-22 23:42:00,64.2,53.0,29.77,SSW,207,8.0,10.0,67,0.00,,SKC,0.00,VWS V13.01,2013-08-23 06:42:00,
2013-08-22 23:43:00,64.2,53.0,29.77,SSW,207,10.0,10.0,67,0.00,,SKC,0.00,VWS V13.01,2013-08-23 06:43:00,
2013-08-22 23:44:00,64.1,52.9,29.77,SSW,208,4.0,11.0,67,0.00,,SKC,0.00,VWS V13.01,2013-08-23 06:44:00,
2013-08-22 23:45:00,64.1,52.9,29.77,SSW,208,5.0,11.0,67,0.00,,SKC,0.00,VWS V13.01,2013-08-23 06:45:00,
2013-08-22 23:46:00,64.1,52.9,29.77,SSW,205,6.0,10.0,67,0.00,,SKC,0.00,VWS V13.01,2013-08-23 06:46:00,
2013-08-22 23:47:00,64.1,52.9,29.77,SSW,208,5.0,10.0,67,0.00,,SKC,0.00,VWS V13.01,2013-08-23 06:47:00,
2013-08-22 23:48:00,64.1,52.9,29.77,SW,221,5.0,10.0,67,0.00,,SKC,0.00,VWS V13.01,2013-08-23 06:48:00,
2013-08-22 23:49:00,64.0,52.8,29.77,SW,221,4.0,10.0,67,0.00,,SKC,0.00,VWS V13.01,2013-08-23 06:49:00,
2013-08-22 23:50:00,64.0,52.8,29.77,SW,228,7.0,10.0,67,0.00,,SKC,0.00,VWS V13.01,2013-08-23 06:50:00,
2013-08-22 23:51:00,63.9,52.7,29.77,SW,226,6.0,8.0,67,0.00,,SKC,0.00,VWS V13.01,2013-08-23 06:51:00,
2013-08-22 23:52:00,63.9,53.1,29.77,SW,225,5.0,8.0,68,0.00,,SKC,0.00,VWS V13.01,2013-08-23 06:52:00,
2013-08-22 23:53:00,63.8,52.7,29.77,SW,225,4.0,8.0,67,0.00,,SKC,0.00,VWS V13.01,2013-08-23 06:53:00,
2013-08-22 23:54:00,63.8,53.0,29.77,SW,225,4.0,8.0,68,0.00,,SKC,0.00,VWS V13.01,2013-08-23 06:54:00,
2013-08-22 23:55:00,63.7,53.0,29.77,SW,225,2.0,8.0,68,0.00,,SKC,0.00,VWS V13.01,2013-08-23 06:55:00,
2013-08-22 23:56:00,63.7,53.0,29.77,SW,225,5.0,7.0,68,0.00,,SKC,0.00,VWS V13.01,2013-08-23 06:56:00,
2013-08-22 23:57:00,63.6,52.9,29.77,SW,226,4.0,7.0,68,0.00,,SKC,0.00,VWS V13.01,2013-08-23 06:57:00,
2013-08-22 23:58:00,63.6,52.9,29.77,SW,226,2.0,7.0,68,0.00,,SKC,0.00,VWS V13.01,2013-08-23 06:58:00,
2013-08-22 23:59:00,63.5,52.8,29.78,SW,223,2.0,7.0,68,0.00,,SKC,0.00,VWS V13.01,2013-08-23 06:59:00,